<?xml version="1.0" encoding="UTF-8" standalone="no" ?>
<gpx xmlns="http://www.topografix.com/GPX/1/1" xmlns:xsi="http://www.w3.org/2001/XMLSchema-instance" xsi:schemaLocation="http://www.topografix.com/GPX/1/1 http://www.topografix.com/GPX/1/1/gpx.xsd" version="1.1" creator="VisuGPX - https://www.visugpx.com">
  <metadata>
    <name>Col de Meyrand (Ardèche)2021-09-07</name>
  </metadata>
  <trk>
    <name><![CDATA[TRK-2021-09-07]]></name>
    <trkseg>
      <trkpt lat="44.5877" lon="4.12915">
        <ele>-50.915344</ele>
        <time>2021-09-07T09:30:17</time>
      </trkpt>
      <trkpt lat="44.5877" lon="4.12917">
        <ele>495.91797</ele>
        <time>2021-09-07T09:30:20</time>
      </trkpt>
      <trkpt lat="44.5877" lon="4.12916">
        <ele>495.91797</ele>
        <time>2021-09-07T09:30:21</time>
      </trkpt>
      <trkpt lat="44.5877" lon="4.12917">
        <ele>495.91797</ele>
        <time>2021-09-07T09:30:26</time>
      </trkpt>
      <trkpt lat="44.58771" lon="4.12917">
        <ele>495.91797</ele>
        <time>2021-09-07T09:30:27</time>
      </trkpt>
      <trkpt lat="44.58771" lon="4.12918">
        <ele>495.91797</ele>
        <time>2021-09-07T09:30:28</time>
      </trkpt>
      <trkpt lat="44.58771" lon="4.12919">
        <ele>495.91797</ele>
        <time>2021-09-07T09:30:29</time>
      </trkpt>
      <trkpt lat="44.58771" lon="4.1292">
        <ele>495.88464</ele>
        <time>2021-09-07T09:30:59</time>
      </trkpt>
      <trkpt lat="44.5877" lon="4.1292">
        <ele>496.68463</ele>
        <time>2021-09-07T09:31:02</time>
      </trkpt>
      <trkpt lat="44.5877" lon="4.1292">
        <ele>496.68463</ele>
        <time>2021-09-07T09:31:03</time>
      </trkpt>
      <trkpt lat="44.58769" lon="4.1292">
        <ele>496.68463</ele>
        <time>2021-09-07T09:31:04</time>
      </trkpt>
      <trkpt lat="44.58769" lon="4.1292">
        <ele>496.68463</ele>
        <time>2021-09-07T09:31:05</time>
      </trkpt>
      <trkpt lat="44.5877" lon="4.12917">
        <ele>496.68463</ele>
        <time>2021-09-07T09:31:13</time>
      </trkpt>
      <trkpt lat="44.5877" lon="4.12917">
        <ele>496.68463</ele>
        <time>2021-09-07T09:31:14</time>
      </trkpt>
      <trkpt lat="44.5877" lon="4.12917">
        <ele>496.68463</ele>
        <time>2021-09-07T09:31:15</time>
      </trkpt>
      <trkpt lat="44.58769" lon="4.1292">
        <ele>498.18463</ele>
        <time>2021-09-07T09:31:30</time>
      </trkpt>
      <trkpt lat="44.58768" lon="4.12921">
        <ele>498.18463</ele>
        <time>2021-09-07T09:31:31</time>
      </trkpt>
      <trkpt lat="44.58768" lon="4.12921">
        <ele>498.18463</ele>
        <time>2021-09-07T09:31:32</time>
      </trkpt>
      <trkpt lat="44.58768" lon="4.12922">
        <ele>498.18463</ele>
        <time>2021-09-07T09:31:33</time>
      </trkpt>
      <trkpt lat="44.58768" lon="4.12922">
        <ele>498.18463</ele>
        <time>2021-09-07T09:31:34</time>
      </trkpt>
      <trkpt lat="44.58768" lon="4.12922">
        <ele>498.18463</ele>
        <time>2021-09-07T09:31:35</time>
      </trkpt>
      <trkpt lat="44.58768" lon="4.12922">
        <ele>498.18463</ele>
        <time>2021-09-07T09:31:36</time>
      </trkpt>
      <trkpt lat="44.58768" lon="4.12922">
        <ele>498.18463</ele>
        <time>2021-09-07T09:31:37</time>
      </trkpt>
      <trkpt lat="44.58768" lon="4.12922">
        <ele>500.08466</ele>
        <time>2021-09-07T09:31:42</time>
      </trkpt>
      <trkpt lat="44.58767" lon="4.12922">
        <ele>500.08466</ele>
        <time>2021-09-07T09:31:44</time>
      </trkpt>
      <trkpt lat="44.58768" lon="4.12922">
        <ele>500.08466</ele>
        <time>2021-09-07T09:31:45</time>
      </trkpt>
      <trkpt lat="44.58768" lon="4.12922">
        <ele>500.08466</ele>
        <time>2021-09-07T09:31:46</time>
      </trkpt>
      <trkpt lat="44.58767" lon="4.12921">
        <ele>500.08466</ele>
        <time>2021-09-07T09:31:47</time>
      </trkpt>
      <trkpt lat="44.58767" lon="4.1292">
        <ele>499.9513</ele>
        <time>2021-09-07T09:31:51</time>
      </trkpt>
      <trkpt lat="44.58768" lon="4.1292">
        <ele>499.9513</ele>
        <time>2021-09-07T09:31:52</time>
      </trkpt>
      <trkpt lat="44.58768" lon="4.12922">
        <ele>501.48468</ele>
        <time>2021-09-07T09:32:21</time>
      </trkpt>
      <trkpt lat="44.58768" lon="4.12922">
        <ele>501.48468</ele>
        <time>2021-09-07T09:32:22</time>
      </trkpt>
      <trkpt lat="44.58768" lon="4.12922">
        <ele>501.48468</ele>
        <time>2021-09-07T09:32:23</time>
      </trkpt>
      <trkpt lat="44.58768" lon="4.12923">
        <ele>501.48468</ele>
        <time>2021-09-07T09:32:24</time>
      </trkpt>
      <trkpt lat="44.58768" lon="4.12923">
        <ele>501.48468</ele>
        <time>2021-09-07T09:32:25</time>
      </trkpt>
      <trkpt lat="44.58767" lon="4.12924">
        <ele>501.48468</ele>
        <time>2021-09-07T09:32:27</time>
      </trkpt>
      <trkpt lat="44.58766" lon="4.12924">
        <ele>501.68463</ele>
        <time>2021-09-07T09:32:31</time>
      </trkpt>
      <trkpt lat="44.58765" lon="4.12924">
        <ele>501.68463</ele>
        <time>2021-09-07T09:32:32</time>
      </trkpt>
      <trkpt lat="44.58764" lon="4.12925">
        <ele>510.28467</ele>
        <time>2021-09-07T09:33:02</time>
      </trkpt>
      <trkpt lat="44.58764" lon="4.12925">
        <ele>510.35132</ele>
        <time>2021-09-07T09:33:34</time>
      </trkpt>
      <trkpt lat="44.58765" lon="4.12925">
        <ele>510.38464</ele>
        <time>2021-09-07T09:33:50</time>
      </trkpt>
      <trkpt lat="44.58765" lon="4.12925">
        <ele>510.38464</ele>
        <time>2021-09-07T09:33:51</time>
      </trkpt>
      <trkpt lat="44.58767" lon="4.12923">
        <ele>507.91797</ele>
        <time>2021-09-07T09:34:21</time>
      </trkpt>
      <trkpt lat="44.58768" lon="4.12922">
        <ele>507.91797</ele>
        <time>2021-09-07T09:34:22</time>
      </trkpt>
      <trkpt lat="44.58768" lon="4.12922">
        <ele>507.91797</ele>
        <time>2021-09-07T09:34:23</time>
      </trkpt>
      <trkpt lat="44.58767" lon="4.12922">
        <ele>507.91797</ele>
        <time>2021-09-07T09:34:24</time>
      </trkpt>
      <trkpt lat="44.58767" lon="4.12922">
        <ele>507.91797</ele>
        <time>2021-09-07T09:34:25</time>
      </trkpt>
      <trkpt lat="44.58765" lon="4.12922">
        <ele>507.91797</ele>
        <time>2021-09-07T09:34:27</time>
      </trkpt>
      <trkpt lat="44.58769" lon="4.12917">
        <ele>507.78467</ele>
        <time>2021-09-07T09:34:34</time>
      </trkpt>
      <trkpt lat="44.58769" lon="4.12919">
        <ele>507.78467</ele>
        <time>2021-09-07T09:34:35</time>
      </trkpt>
      <trkpt lat="44.58769" lon="4.12919">
        <ele>507.78467</ele>
        <time>2021-09-07T09:34:40</time>
      </trkpt>
      <trkpt lat="44.58771" lon="4.12918">
        <ele>506.88464</ele>
        <time>2021-09-07T09:34:41</time>
      </trkpt>
      <trkpt lat="44.58771" lon="4.12915">
        <ele>506.88464</ele>
        <time>2021-09-07T09:34:42</time>
      </trkpt>
      <trkpt lat="44.58771" lon="4.12913">
        <ele>506.88464</ele>
        <time>2021-09-07T09:34:43</time>
      </trkpt>
      <trkpt lat="44.58771" lon="4.12908">
        <ele>506.88464</ele>
        <time>2021-09-07T09:34:46</time>
      </trkpt>
      <trkpt lat="44.58772" lon="4.12905">
        <ele>504.78467</ele>
        <time>2021-09-07T09:35:16</time>
      </trkpt>
      <trkpt lat="44.58772" lon="4.12903">
        <ele>504.78467</ele>
        <time>2021-09-07T09:35:21</time>
      </trkpt>
      <trkpt lat="44.58771" lon="4.12901">
        <ele>504.78467</ele>
        <time>2021-09-07T09:35:22</time>
      </trkpt>
      <trkpt lat="44.5877" lon="4.12896">
        <ele>504.78467</ele>
        <time>2021-09-07T09:35:24</time>
      </trkpt>
      <trkpt lat="44.58771" lon="4.12892">
        <ele>504.78467</ele>
        <time>2021-09-07T09:35:25</time>
      </trkpt>
      <trkpt lat="44.58771" lon="4.1288">
        <ele>504.78467</ele>
        <time>2021-09-07T09:35:29</time>
      </trkpt>
      <trkpt lat="44.58768" lon="4.12867">
        <ele>503.28467</ele>
        <time>2021-09-07T09:35:34</time>
      </trkpt>
      <trkpt lat="44.58766" lon="4.12862">
        <ele>503.28467</ele>
        <time>2021-09-07T09:35:37</time>
      </trkpt>
      <trkpt lat="44.58765" lon="4.12857">
        <ele>503.28467</ele>
        <time>2021-09-07T09:35:40</time>
      </trkpt>
      <trkpt lat="44.58764" lon="4.12852">
        <ele>503.28467</ele>
        <time>2021-09-07T09:35:42</time>
      </trkpt>
      <trkpt lat="44.58763" lon="4.12845">
        <ele>503.28467</ele>
        <time>2021-09-07T09:35:44</time>
      </trkpt>
      <trkpt lat="44.58763" lon="4.12837">
        <ele>503.28467</ele>
        <time>2021-09-07T09:35:48</time>
      </trkpt>
      <trkpt lat="44.58763" lon="4.12835">
        <ele>503.28467</ele>
        <time>2021-09-07T09:35:49</time>
      </trkpt>
      <trkpt lat="44.58761" lon="4.12832">
        <ele>503.28467</ele>
        <time>2021-09-07T09:35:51</time>
      </trkpt>
      <trkpt lat="44.5876" lon="4.1283">
        <ele>503.28467</ele>
        <time>2021-09-07T09:35:52</time>
      </trkpt>
      <trkpt lat="44.5876" lon="4.12829">
        <ele>503.28467</ele>
        <time>2021-09-07T09:35:53</time>
      </trkpt>
      <trkpt lat="44.58759" lon="4.12827">
        <ele>503.28467</ele>
        <time>2021-09-07T09:35:55</time>
      </trkpt>
      <trkpt lat="44.58758" lon="4.12825">
        <ele>503.28467</ele>
        <time>2021-09-07T09:35:57</time>
      </trkpt>
      <trkpt lat="44.58757" lon="4.12824">
        <ele>503.28467</ele>
        <time>2021-09-07T09:35:58</time>
      </trkpt>
      <trkpt lat="44.58757" lon="4.12823">
        <ele>503.28467</ele>
        <time>2021-09-07T09:35:59</time>
      </trkpt>
      <trkpt lat="44.58756" lon="4.12822">
        <ele>500.58466</ele>
        <time>2021-09-07T09:36:01</time>
      </trkpt>
      <trkpt lat="44.58756" lon="4.12821">
        <ele>500.58466</ele>
        <time>2021-09-07T09:36:02</time>
      </trkpt>
      <trkpt lat="44.58753" lon="4.1282">
        <ele>500.58466</ele>
        <time>2021-09-07T09:36:09</time>
      </trkpt>
      <trkpt lat="44.58748" lon="4.12819">
        <ele>510.68463</ele>
        <time>2021-09-07T09:36:12</time>
      </trkpt>
      <trkpt lat="44.58746" lon="4.12817">
        <ele>510.68463</ele>
        <time>2021-09-07T09:36:13</time>
      </trkpt>
      <trkpt lat="44.58745" lon="4.12813">
        <ele>510.68463</ele>
        <time>2021-09-07T09:36:14</time>
      </trkpt>
      <trkpt lat="44.58744" lon="4.12809">
        <ele>510.68463</ele>
        <time>2021-09-07T09:36:15</time>
      </trkpt>
      <trkpt lat="44.58745" lon="4.12805">
        <ele>510.68463</ele>
        <time>2021-09-07T09:36:16</time>
      </trkpt>
      <trkpt lat="44.58745" lon="4.12778">
        <ele>507.98468</ele>
        <time>2021-09-07T09:36:23</time>
      </trkpt>
      <trkpt lat="44.58741" lon="4.12761">
        <ele>507.98468</ele>
        <time>2021-09-07T09:36:27</time>
      </trkpt>
      <trkpt lat="44.58745" lon="4.12722">
        <ele>507.98468</ele>
        <time>2021-09-07T09:36:34</time>
      </trkpt>
      <trkpt lat="44.58751" lon="4.1269">
        <ele>507.98468</ele>
        <time>2021-09-07T09:36:40</time>
      </trkpt>
      <trkpt lat="44.58762" lon="4.1266">
        <ele>507.98468</ele>
        <time>2021-09-07T09:36:46</time>
      </trkpt>
      <trkpt lat="44.58764" lon="4.12656">
        <ele>507.98468</ele>
        <time>2021-09-07T09:36:47</time>
      </trkpt>
      <trkpt lat="44.58779" lon="4.12634">
        <ele>506.98468</ele>
        <time>2021-09-07T09:36:52</time>
      </trkpt>
      <trkpt lat="44.58803" lon="4.12603">
        <ele>505.68463</ele>
        <time>2021-09-07T09:37:01</time>
      </trkpt>
      <trkpt lat="44.58825" lon="4.12555">
        <ele>508.28467</ele>
        <time>2021-09-07T09:37:14</time>
      </trkpt>
      <trkpt lat="44.58827" lon="4.12547">
        <ele>508.28467</ele>
        <time>2021-09-07T09:37:16</time>
      </trkpt>
      <trkpt lat="44.58841" lon="4.125">
        <ele>508.28467</ele>
        <time>2021-09-07T09:37:29</time>
      </trkpt>
      <trkpt lat="44.58843" lon="4.12489">
        <ele>508.28467</ele>
        <time>2021-09-07T09:37:31</time>
      </trkpt>
      <trkpt lat="44.58851" lon="4.12461">
        <ele>508.28467</ele>
        <time>2021-09-07T09:37:36</time>
      </trkpt>
      <trkpt lat="44.58886" lon="4.12327">
        <ele>509.78467</ele>
        <time>2021-09-07T09:38:06</time>
      </trkpt>
      <trkpt lat="44.58902" lon="4.12262">
        <ele>515.9847</ele>
        <time>2021-09-07T09:38:23</time>
      </trkpt>
      <trkpt lat="44.58905" lon="4.12249">
        <ele>515.9847</ele>
        <time>2021-09-07T09:38:27</time>
      </trkpt>
      <trkpt lat="44.58921" lon="4.12185">
        <ele>518.88464</ele>
        <time>2021-09-07T09:38:47</time>
      </trkpt>
      <trkpt lat="44.58937" lon="4.12153">
        <ele>523.38464</ele>
        <time>2021-09-07T09:38:57</time>
      </trkpt>
      <trkpt lat="44.58957" lon="4.12114">
        <ele>517.28467</ele>
        <time>2021-09-07T09:39:11</time>
      </trkpt>
      <trkpt lat="44.58978" lon="4.12089">
        <ele>517.4847</ele>
        <time>2021-09-07T09:39:21</time>
      </trkpt>
      <trkpt lat="44.59009" lon="4.12061">
        <ele>517.4847</ele>
        <time>2021-09-07T09:39:35</time>
      </trkpt>
      <trkpt lat="44.59014" lon="4.12056">
        <ele>517.4847</ele>
        <time>2021-09-07T09:39:37</time>
      </trkpt>
      <trkpt lat="44.59024" lon="4.12041">
        <ele>517.4847</ele>
        <time>2021-09-07T09:39:44</time>
      </trkpt>
      <trkpt lat="44.59029" lon="4.12032">
        <ele>517.4847</ele>
        <time>2021-09-07T09:39:47</time>
      </trkpt>
      <trkpt lat="44.59032" lon="4.12023">
        <ele>517.4847</ele>
        <time>2021-09-07T09:39:50</time>
      </trkpt>
      <trkpt lat="44.5904" lon="4.11991">
        <ele>517.4847</ele>
        <time>2021-09-07T09:39:59</time>
      </trkpt>
      <trkpt lat="44.59048" lon="4.11937">
        <ele>519.38464</ele>
        <time>2021-09-07T09:40:12</time>
      </trkpt>
      <trkpt lat="44.59049" lon="4.11882">
        <ele>519.38464</ele>
        <time>2021-09-07T09:40:28</time>
      </trkpt>
      <trkpt lat="44.59049" lon="4.11867">
        <ele>519.38464</ele>
        <time>2021-09-07T09:40:33</time>
      </trkpt>
      <trkpt lat="44.5905" lon="4.11857">
        <ele>519.38464</ele>
        <time>2021-09-07T09:40:36</time>
      </trkpt>
      <trkpt lat="44.59051" lon="4.11842">
        <ele>519.38464</ele>
        <time>2021-09-07T09:40:40</time>
      </trkpt>
      <trkpt lat="44.59063" lon="4.11723">
        <ele>539.18463</ele>
        <time>2021-09-07T09:41:10</time>
      </trkpt>
      <trkpt lat="44.59071" lon="4.11602">
        <ele>541.78467</ele>
        <time>2021-09-07T09:41:40</time>
      </trkpt>
      <trkpt lat="44.59072" lon="4.11515">
        <ele>545.68463</ele>
        <time>2021-09-07T09:41:56</time>
      </trkpt>
      <trkpt lat="44.59078" lon="4.11489">
        <ele>543.58466</ele>
        <time>2021-09-07T09:42:01</time>
      </trkpt>
      <trkpt lat="44.59102" lon="4.11372">
        <ele>543.618</ele>
        <time>2021-09-07T09:42:26</time>
      </trkpt>
      <trkpt lat="44.59103" lon="4.11355">
        <ele>543.618</ele>
        <time>2021-09-07T09:42:30</time>
      </trkpt>
      <trkpt lat="44.59105" lon="4.11338">
        <ele>542.88464</ele>
        <time>2021-09-07T09:42:34</time>
      </trkpt>
      <trkpt lat="44.59104" lon="4.11331">
        <ele>542.88464</ele>
        <time>2021-09-07T09:42:36</time>
      </trkpt>
      <trkpt lat="44.59101" lon="4.11317">
        <ele>542.88464</ele>
        <time>2021-09-07T09:42:40</time>
      </trkpt>
      <trkpt lat="44.59103" lon="4.11297">
        <ele>544.4847</ele>
        <time>2021-09-07T09:42:45</time>
      </trkpt>
      <trkpt lat="44.59105" lon="4.11289">
        <ele>544.4847</ele>
        <time>2021-09-07T09:42:47</time>
      </trkpt>
      <trkpt lat="44.59109" lon="4.11278">
        <ele>544.4847</ele>
        <time>2021-09-07T09:42:50</time>
      </trkpt>
      <trkpt lat="44.59112" lon="4.11272">
        <ele>549.4513</ele>
        <time>2021-09-07T09:42:52</time>
      </trkpt>
      <trkpt lat="44.59116" lon="4.11268">
        <ele>549.4513</ele>
        <time>2021-09-07T09:42:54</time>
      </trkpt>
      <trkpt lat="44.59126" lon="4.11259">
        <ele>549.4513</ele>
        <time>2021-09-07T09:42:58</time>
      </trkpt>
      <trkpt lat="44.59136" lon="4.11251">
        <ele>549.4513</ele>
        <time>2021-09-07T09:43:02</time>
      </trkpt>
      <trkpt lat="44.59145" lon="4.11244">
        <ele>549.4513</ele>
        <time>2021-09-07T09:43:05</time>
      </trkpt>
      <trkpt lat="44.5922" lon="4.11206">
        <ele>549.4513</ele>
        <time>2021-09-07T09:43:31</time>
      </trkpt>
      <trkpt lat="44.59226" lon="4.11201">
        <ele>549.4513</ele>
        <time>2021-09-07T09:43:34</time>
      </trkpt>
      <trkpt lat="44.59229" lon="4.11197">
        <ele>549.4513</ele>
        <time>2021-09-07T09:43:36</time>
      </trkpt>
      <trkpt lat="44.59231" lon="4.11192">
        <ele>549.4513</ele>
        <time>2021-09-07T09:43:38</time>
      </trkpt>
      <trkpt lat="44.59235" lon="4.11187">
        <ele>549.4513</ele>
        <time>2021-09-07T09:43:40</time>
      </trkpt>
      <trkpt lat="44.5924" lon="4.11185">
        <ele>549.4513</ele>
        <time>2021-09-07T09:43:42</time>
      </trkpt>
      <trkpt lat="44.59243" lon="4.11185">
        <ele>549.4513</ele>
        <time>2021-09-07T09:43:43</time>
      </trkpt>
      <trkpt lat="44.59246" lon="4.11185">
        <ele>549.4513</ele>
        <time>2021-09-07T09:43:44</time>
      </trkpt>
      <trkpt lat="44.59298" lon="4.11192">
        <ele>539.4847</ele>
        <time>2021-09-07T09:44:03</time>
      </trkpt>
      <trkpt lat="44.59302" lon="4.11189">
        <ele>539.4847</ele>
        <time>2021-09-07T09:44:05</time>
      </trkpt>
      <trkpt lat="44.59304" lon="4.11187">
        <ele>539.4847</ele>
        <time>2021-09-07T09:44:06</time>
      </trkpt>
      <trkpt lat="44.59308" lon="4.11178">
        <ele>539.4847</ele>
        <time>2021-09-07T09:44:09</time>
      </trkpt>
      <trkpt lat="44.59309" lon="4.11174">
        <ele>539.4847</ele>
        <time>2021-09-07T09:44:10</time>
      </trkpt>
      <trkpt lat="44.5931" lon="4.1117">
        <ele>539.4847</ele>
        <time>2021-09-07T09:44:11</time>
      </trkpt>
      <trkpt lat="44.59313" lon="4.11143">
        <ele>539.4847</ele>
        <time>2021-09-07T09:44:18</time>
      </trkpt>
      <trkpt lat="44.59313" lon="4.11138">
        <ele>539.4847</ele>
        <time>2021-09-07T09:44:19</time>
      </trkpt>
      <trkpt lat="44.59313" lon="4.11134">
        <ele>539.4847</ele>
        <time>2021-09-07T09:44:20</time>
      </trkpt>
      <trkpt lat="44.5931" lon="4.11127">
        <ele>550.18463</ele>
        <time>2021-09-07T09:44:22</time>
      </trkpt>
      <trkpt lat="44.59307" lon="4.1112">
        <ele>550.18463</ele>
        <time>2021-09-07T09:44:24</time>
      </trkpt>
      <trkpt lat="44.59295" lon="4.11095">
        <ele>556.58466</ele>
        <time>2021-09-07T09:44:31</time>
      </trkpt>
      <trkpt lat="44.59294" lon="4.1109">
        <ele>556.58466</ele>
        <time>2021-09-07T09:44:32</time>
      </trkpt>
      <trkpt lat="44.59294" lon="4.11085">
        <ele>556.58466</ele>
        <time>2021-09-07T09:44:33</time>
      </trkpt>
      <trkpt lat="44.59295" lon="4.11081">
        <ele>556.58466</ele>
        <time>2021-09-07T09:44:34</time>
      </trkpt>
      <trkpt lat="44.59296" lon="4.11073">
        <ele>556.58466</ele>
        <time>2021-09-07T09:44:36</time>
      </trkpt>
      <trkpt lat="44.593" lon="4.11063">
        <ele>556.58466</ele>
        <time>2021-09-07T09:44:39</time>
      </trkpt>
      <trkpt lat="44.59305" lon="4.11054">
        <ele>556.58466</ele>
        <time>2021-09-07T09:44:42</time>
      </trkpt>
      <trkpt lat="44.59355" lon="4.10959">
        <ele>567.9847</ele>
        <time>2021-09-07T09:45:12</time>
      </trkpt>
      <trkpt lat="44.59401" lon="4.10867">
        <ele>577.08466</ele>
        <time>2021-09-07T09:45:42</time>
      </trkpt>
      <trkpt lat="44.59436" lon="4.10793">
        <ele>582.78467</ele>
        <time>2021-09-07T09:46:05</time>
      </trkpt>
      <trkpt lat="44.59463" lon="4.10687">
        <ele>588.318</ele>
        <time>2021-09-07T09:46:35</time>
      </trkpt>
      <trkpt lat="44.5948" lon="4.10638">
        <ele>588.318</ele>
        <time>2021-09-07T09:46:50</time>
      </trkpt>
      <trkpt lat="44.59511" lon="4.10561">
        <ele>591.78467</ele>
        <time>2021-09-07T09:47:11</time>
      </trkpt>
      <trkpt lat="44.59511" lon="4.10549">
        <ele>591.78467</ele>
        <time>2021-09-07T09:47:15</time>
      </trkpt>
      <trkpt lat="44.59512" lon="4.10538">
        <ele>591.78467</ele>
        <time>2021-09-07T09:47:18</time>
      </trkpt>
      <trkpt lat="44.59515" lon="4.10519">
        <ele>591.78467</ele>
        <time>2021-09-07T09:47:23</time>
      </trkpt>
      <trkpt lat="44.59517" lon="4.10505">
        <ele>591.78467</ele>
        <time>2021-09-07T09:47:27</time>
      </trkpt>
      <trkpt lat="44.59522" lon="4.10444">
        <ele>591.78467</ele>
        <time>2021-09-07T09:47:44</time>
      </trkpt>
      <trkpt lat="44.59519" lon="4.10423">
        <ele>591.78467</ele>
        <time>2021-09-07T09:47:49</time>
      </trkpt>
      <trkpt lat="44.5951" lon="4.10368">
        <ele>603.58466</ele>
        <time>2021-09-07T09:48:04</time>
      </trkpt>
      <trkpt lat="44.59511" lon="4.1036">
        <ele>603.58466</ele>
        <time>2021-09-07T09:48:06</time>
      </trkpt>
      <trkpt lat="44.59511" lon="4.10346">
        <ele>603.58466</ele>
        <time>2021-09-07T09:48:09</time>
      </trkpt>
      <trkpt lat="44.59507" lon="4.10312">
        <ele>606.9847</ele>
        <time>2021-09-07T09:48:17</time>
      </trkpt>
      <trkpt lat="44.59505" lon="4.10302">
        <ele>606.9847</ele>
        <time>2021-09-07T09:48:20</time>
      </trkpt>
      <trkpt lat="44.59501" lon="4.10294">
        <ele>605.9847</ele>
        <time>2021-09-07T09:48:23</time>
      </trkpt>
      <trkpt lat="44.59497" lon="4.10281">
        <ele>605.9847</ele>
        <time>2021-09-07T09:48:27</time>
      </trkpt>
      <trkpt lat="44.59496" lon="4.10271">
        <ele>605.9847</ele>
        <time>2021-09-07T09:48:29</time>
      </trkpt>
      <trkpt lat="44.59498" lon="4.10246">
        <ele>604.78467</ele>
        <time>2021-09-07T09:48:35</time>
      </trkpt>
      <trkpt lat="44.59499" lon="4.1023">
        <ele>604.78467</ele>
        <time>2021-09-07T09:48:39</time>
      </trkpt>
      <trkpt lat="44.59498" lon="4.10208">
        <ele>607.58466</ele>
        <time>2021-09-07T09:48:45</time>
      </trkpt>
      <trkpt lat="44.59497" lon="4.10195">
        <ele>607.58466</ele>
        <time>2021-09-07T09:48:48</time>
      </trkpt>
      <trkpt lat="44.59498" lon="4.10172">
        <ele>606.38464</ele>
        <time>2021-09-07T09:48:54</time>
      </trkpt>
      <trkpt lat="44.59499" lon="4.10124">
        <ele>606.38464</ele>
        <time>2021-09-07T09:49:08</time>
      </trkpt>
      <trkpt lat="44.59498" lon="4.10113">
        <ele>606.38464</ele>
        <time>2021-09-07T09:49:11</time>
      </trkpt>
      <trkpt lat="44.59495" lon="4.10106">
        <ele>606.38464</ele>
        <time>2021-09-07T09:49:13</time>
      </trkpt>
      <trkpt lat="44.59492" lon="4.10099">
        <ele>606.38464</ele>
        <time>2021-09-07T09:49:15</time>
      </trkpt>
      <trkpt lat="44.5949" lon="4.10096">
        <ele>606.38464</ele>
        <time>2021-09-07T09:49:16</time>
      </trkpt>
      <trkpt lat="44.59487" lon="4.10095">
        <ele>606.38464</ele>
        <time>2021-09-07T09:49:17</time>
      </trkpt>
      <trkpt lat="44.59481" lon="4.10094">
        <ele>606.38464</ele>
        <time>2021-09-07T09:49:19</time>
      </trkpt>
      <trkpt lat="44.59471" lon="4.10094">
        <ele>606.38464</ele>
        <time>2021-09-07T09:49:22</time>
      </trkpt>
      <trkpt lat="44.59462" lon="4.10091">
        <ele>606.38464</ele>
        <time>2021-09-07T09:49:25</time>
      </trkpt>
      <trkpt lat="44.59459" lon="4.10089">
        <ele>606.38464</ele>
        <time>2021-09-07T09:49:26</time>
      </trkpt>
      <trkpt lat="44.59455" lon="4.10083">
        <ele>606.38464</ele>
        <time>2021-09-07T09:49:28</time>
      </trkpt>
      <trkpt lat="44.5945" lon="4.10075">
        <ele>606.38464</ele>
        <time>2021-09-07T09:49:30</time>
      </trkpt>
      <trkpt lat="44.59447" lon="4.10065">
        <ele>606.38464</ele>
        <time>2021-09-07T09:49:32</time>
      </trkpt>
      <trkpt lat="44.59432" lon="4.10024">
        <ele>606.38464</ele>
        <time>2021-09-07T09:49:42</time>
      </trkpt>
      <trkpt lat="44.59427" lon="4.10019">
        <ele>606.38464</ele>
        <time>2021-09-07T09:49:44</time>
      </trkpt>
      <trkpt lat="44.59425" lon="4.10018">
        <ele>606.38464</ele>
        <time>2021-09-07T09:49:45</time>
      </trkpt>
      <trkpt lat="44.59422" lon="4.10018">
        <ele>606.38464</ele>
        <time>2021-09-07T09:49:46</time>
      </trkpt>
      <trkpt lat="44.59409" lon="4.10018">
        <ele>613.28467</ele>
        <time>2021-09-07T09:49:51</time>
      </trkpt>
      <trkpt lat="44.59398" lon="4.10017">
        <ele>613.28467</ele>
        <time>2021-09-07T09:49:55</time>
      </trkpt>
      <trkpt lat="44.59395" lon="4.10016">
        <ele>613.28467</ele>
        <time>2021-09-07T09:49:57</time>
      </trkpt>
      <trkpt lat="44.59394" lon="4.10013">
        <ele>613.28467</ele>
        <time>2021-09-07T09:49:58</time>
      </trkpt>
      <trkpt lat="44.59389" lon="4.10006">
        <ele>613.28467</ele>
        <time>2021-09-07T09:50:01</time>
      </trkpt>
      <trkpt lat="44.59381" lon="4.09995">
        <ele>613.28467</ele>
        <time>2021-09-07T09:50:05</time>
      </trkpt>
      <trkpt lat="44.59371" lon="4.09985">
        <ele>613.28467</ele>
        <time>2021-09-07T09:50:09</time>
      </trkpt>
      <trkpt lat="44.59364" lon="4.09981">
        <ele>613.28467</ele>
        <time>2021-09-07T09:50:12</time>
      </trkpt>
      <trkpt lat="44.59353" lon="4.0997">
        <ele>613.28467</ele>
        <time>2021-09-07T09:50:18</time>
      </trkpt>
      <trkpt lat="44.59351" lon="4.0997">
        <ele>613.28467</ele>
        <time>2021-09-07T09:50:19</time>
      </trkpt>
      <trkpt lat="44.59346" lon="4.09967">
        <ele>613.28467</ele>
        <time>2021-09-07T09:50:22</time>
      </trkpt>
      <trkpt lat="44.59339" lon="4.09959">
        <ele>613.28467</ele>
        <time>2021-09-07T09:50:26</time>
      </trkpt>
      <trkpt lat="44.59329" lon="4.09954">
        <ele>613.28467</ele>
        <time>2021-09-07T09:50:30</time>
      </trkpt>
      <trkpt lat="44.59307" lon="4.09933">
        <ele>613.28467</ele>
        <time>2021-09-07T09:50:39</time>
      </trkpt>
      <trkpt lat="44.59303" lon="4.09929">
        <ele>613.28467</ele>
        <time>2021-09-07T09:50:41</time>
      </trkpt>
      <trkpt lat="44.59301" lon="4.09928">
        <ele>613.28467</ele>
        <time>2021-09-07T09:50:42</time>
      </trkpt>
      <trkpt lat="44.59293" lon="4.09923">
        <ele>613.28467</ele>
        <time>2021-09-07T09:50:45</time>
      </trkpt>
      <trkpt lat="44.5929" lon="4.0992">
        <ele>613.28467</ele>
        <time>2021-09-07T09:50:46</time>
      </trkpt>
      <trkpt lat="44.59281" lon="4.09907">
        <ele>613.28467</ele>
        <time>2021-09-07T09:50:50</time>
      </trkpt>
      <trkpt lat="44.59278" lon="4.09899">
        <ele>636.58466</ele>
        <time>2021-09-07T09:50:52</time>
      </trkpt>
      <trkpt lat="44.59276" lon="4.0989">
        <ele>636.58466</ele>
        <time>2021-09-07T09:50:54</time>
      </trkpt>
      <trkpt lat="44.59276" lon="4.09881">
        <ele>636.58466</ele>
        <time>2021-09-07T09:50:56</time>
      </trkpt>
      <trkpt lat="44.59276" lon="4.09871">
        <ele>636.58466</ele>
        <time>2021-09-07T09:50:58</time>
      </trkpt>
      <trkpt lat="44.59278" lon="4.09856">
        <ele>632.08466</ele>
        <time>2021-09-07T09:51:01</time>
      </trkpt>
      <trkpt lat="44.59278" lon="4.09833">
        <ele>632.08466</ele>
        <time>2021-09-07T09:51:06</time>
      </trkpt>
      <trkpt lat="44.59276" lon="4.09812">
        <ele>632.4847</ele>
        <time>2021-09-07T09:51:12</time>
      </trkpt>
      <trkpt lat="44.59274" lon="4.0978">
        <ele>632.4847</ele>
        <time>2021-09-07T09:51:20</time>
      </trkpt>
      <trkpt lat="44.59275" lon="4.0977">
        <ele>632.4847</ele>
        <time>2021-09-07T09:51:22</time>
      </trkpt>
      <trkpt lat="44.59278" lon="4.09754">
        <ele>632.4847</ele>
        <time>2021-09-07T09:51:26</time>
      </trkpt>
      <trkpt lat="44.59285" lon="4.09724">
        <ele>635.4847</ele>
        <time>2021-09-07T09:51:35</time>
      </trkpt>
      <trkpt lat="44.59284" lon="4.09718">
        <ele>635.4847</ele>
        <time>2021-09-07T09:51:38</time>
      </trkpt>
      <trkpt lat="44.59283" lon="4.09716">
        <ele>635.4847</ele>
        <time>2021-09-07T09:51:39</time>
      </trkpt>
      <trkpt lat="44.59276" lon="4.09693">
        <ele>638.38464</ele>
        <time>2021-09-07T09:51:45</time>
      </trkpt>
      <trkpt lat="44.59276" lon="4.09688">
        <ele>638.38464</ele>
        <time>2021-09-07T09:51:46</time>
      </trkpt>
      <trkpt lat="44.59276" lon="4.09683">
        <ele>638.38464</ele>
        <time>2021-09-07T09:51:47</time>
      </trkpt>
      <trkpt lat="44.59278" lon="4.09679">
        <ele>638.38464</ele>
        <time>2021-09-07T09:51:48</time>
      </trkpt>
      <trkpt lat="44.5928" lon="4.09676">
        <ele>638.38464</ele>
        <time>2021-09-07T09:51:49</time>
      </trkpt>
      <trkpt lat="44.59284" lon="4.0967">
        <ele>642.28467</ele>
        <time>2021-09-07T09:51:51</time>
      </trkpt>
      <trkpt lat="44.59289" lon="4.09666">
        <ele>642.28467</ele>
        <time>2021-09-07T09:51:53</time>
      </trkpt>
      <trkpt lat="44.59292" lon="4.09665">
        <ele>642.28467</ele>
        <time>2021-09-07T09:51:54</time>
      </trkpt>
      <trkpt lat="44.59295" lon="4.09665">
        <ele>642.28467</ele>
        <time>2021-09-07T09:51:55</time>
      </trkpt>
      <trkpt lat="44.59299" lon="4.09666">
        <ele>642.28467</ele>
        <time>2021-09-07T09:51:56</time>
      </trkpt>
      <trkpt lat="44.59301" lon="4.09666">
        <ele>642.28467</ele>
        <time>2021-09-07T09:51:57</time>
      </trkpt>
      <trkpt lat="44.59303" lon="4.09668">
        <ele>642.28467</ele>
        <time>2021-09-07T09:51:58</time>
      </trkpt>
      <trkpt lat="44.59304" lon="4.09671">
        <ele>642.28467</ele>
        <time>2021-09-07T09:51:59</time>
      </trkpt>
      <trkpt lat="44.59306" lon="4.09676">
        <ele>644.38464</ele>
        <time>2021-09-07T09:52:01</time>
      </trkpt>
      <trkpt lat="44.59306" lon="4.09679">
        <ele>644.38464</ele>
        <time>2021-09-07T09:52:02</time>
      </trkpt>
      <trkpt lat="44.59306" lon="4.09694">
        <ele>644.38464</ele>
        <time>2021-09-07T09:52:07</time>
      </trkpt>
      <trkpt lat="44.59304" lon="4.09711">
        <ele>633.9847</ele>
        <time>2021-09-07T09:52:12</time>
      </trkpt>
      <trkpt lat="44.59304" lon="4.09718">
        <ele>633.9847</ele>
        <time>2021-09-07T09:52:14</time>
      </trkpt>
      <trkpt lat="44.59303" lon="4.09722">
        <ele>633.9847</ele>
        <time>2021-09-07T09:52:15</time>
      </trkpt>
      <trkpt lat="44.593" lon="4.09728">
        <ele>633.9847</ele>
        <time>2021-09-07T09:52:17</time>
      </trkpt>
      <trkpt lat="44.59299" lon="4.09731">
        <ele>633.9847</ele>
        <time>2021-09-07T09:52:18</time>
      </trkpt>
      <trkpt lat="44.59299" lon="4.09734">
        <ele>633.9847</ele>
        <time>2021-09-07T09:52:19</time>
      </trkpt>
      <trkpt lat="44.59298" lon="4.09737">
        <ele>633.9847</ele>
        <time>2021-09-07T09:52:20</time>
      </trkpt>
      <trkpt lat="44.59298" lon="4.09745">
        <ele>633.9847</ele>
        <time>2021-09-07T09:52:22</time>
      </trkpt>
      <trkpt lat="44.59296" lon="4.0976">
        <ele>633.9847</ele>
        <time>2021-09-07T09:52:26</time>
      </trkpt>
      <trkpt lat="44.59297" lon="4.09768">
        <ele>633.9847</ele>
        <time>2021-09-07T09:52:28</time>
      </trkpt>
      <trkpt lat="44.59302" lon="4.09793">
        <ele>641.68463</ele>
        <time>2021-09-07T09:52:34</time>
      </trkpt>
      <trkpt lat="44.59314" lon="4.09831">
        <ele>641.68463</ele>
        <time>2021-09-07T09:52:45</time>
      </trkpt>
      <trkpt lat="44.59315" lon="4.09833">
        <ele>641.68463</ele>
        <time>2021-09-07T09:52:46</time>
      </trkpt>
      <trkpt lat="44.59316" lon="4.09837">
        <ele>641.68463</ele>
        <time>2021-09-07T09:52:48</time>
      </trkpt>
      <trkpt lat="44.59319" lon="4.09845">
        <ele>641.68463</ele>
        <time>2021-09-07T09:52:51</time>
      </trkpt>
      <trkpt lat="44.59323" lon="4.09854">
        <ele>626.08466</ele>
        <time>2021-09-07T09:52:55</time>
      </trkpt>
      <trkpt lat="44.59327" lon="4.09857">
        <ele>626.08466</ele>
        <time>2021-09-07T09:52:57</time>
      </trkpt>
      <trkpt lat="44.59339" lon="4.09864">
        <ele>634.58466</ele>
        <time>2021-09-07T09:53:04</time>
      </trkpt>
      <trkpt lat="44.59346" lon="4.09866">
        <ele>634.58466</ele>
        <time>2021-09-07T09:53:07</time>
      </trkpt>
      <trkpt lat="44.59349" lon="4.09868">
        <ele>634.58466</ele>
        <time>2021-09-07T09:53:09</time>
      </trkpt>
      <trkpt lat="44.59367" lon="4.09878">
        <ele>638.08466</ele>
        <time>2021-09-07T09:53:16</time>
      </trkpt>
      <trkpt lat="44.59373" lon="4.09882">
        <ele>638.08466</ele>
        <time>2021-09-07T09:53:18</time>
      </trkpt>
      <trkpt lat="44.59387" lon="4.09889">
        <ele>638.08466</ele>
        <time>2021-09-07T09:53:23</time>
      </trkpt>
      <trkpt lat="44.5939" lon="4.09889">
        <ele>638.08466</ele>
        <time>2021-09-07T09:53:24</time>
      </trkpt>
      <trkpt lat="44.59452" lon="4.09891">
        <ele>649.58466</ele>
        <time>2021-09-07T09:53:46</time>
      </trkpt>
      <trkpt lat="44.59457" lon="4.0989">
        <ele>649.58466</ele>
        <time>2021-09-07T09:53:48</time>
      </trkpt>
      <trkpt lat="44.5946" lon="4.0989">
        <ele>649.58466</ele>
        <time>2021-09-07T09:53:49</time>
      </trkpt>
      <trkpt lat="44.59466" lon="4.09892">
        <ele>649.58466</ele>
        <time>2021-09-07T09:53:51</time>
      </trkpt>
      <trkpt lat="44.59474" lon="4.09894">
        <ele>647.68463</ele>
        <time>2021-09-07T09:53:54</time>
      </trkpt>
      <trkpt lat="44.59484" lon="4.099">
        <ele>647.68463</ele>
        <time>2021-09-07T09:53:58</time>
      </trkpt>
      <trkpt lat="44.59487" lon="4.09902">
        <ele>647.68463</ele>
        <time>2021-09-07T09:53:59</time>
      </trkpt>
      <trkpt lat="44.59489" lon="4.09904">
        <ele>647.68463</ele>
        <time>2021-09-07T09:54:00</time>
      </trkpt>
      <trkpt lat="44.59524" lon="4.09948">
        <ele>655.58466</ele>
        <time>2021-09-07T09:54:16</time>
      </trkpt>
      <trkpt lat="44.5954" lon="4.09958">
        <ele>655.58466</ele>
        <time>2021-09-07T09:54:22</time>
      </trkpt>
      <trkpt lat="44.59566" lon="4.09974">
        <ele>655.58466</ele>
        <time>2021-09-07T09:54:32</time>
      </trkpt>
      <trkpt lat="44.59588" lon="4.09993">
        <ele>655.58466</ele>
        <time>2021-09-07T09:54:41</time>
      </trkpt>
      <trkpt lat="44.59596" lon="4.09998">
        <ele>655.58466</ele>
        <time>2021-09-07T09:54:44</time>
      </trkpt>
      <trkpt lat="44.59611" lon="4.10001">
        <ele>655.58466</ele>
        <time>2021-09-07T09:54:50</time>
      </trkpt>
      <trkpt lat="44.59614" lon="4.10001">
        <ele>655.58466</ele>
        <time>2021-09-07T09:54:51</time>
      </trkpt>
      <trkpt lat="44.59623" lon="4.10003">
        <ele>655.58466</ele>
        <time>2021-09-07T09:54:54</time>
      </trkpt>
      <trkpt lat="44.59628" lon="4.10005">
        <ele>655.58466</ele>
        <time>2021-09-07T09:54:56</time>
      </trkpt>
      <trkpt lat="44.59633" lon="4.10009">
        <ele>655.58466</ele>
        <time>2021-09-07T09:54:58</time>
      </trkpt>
      <trkpt lat="44.59638" lon="4.10015">
        <ele>655.58466</ele>
        <time>2021-09-07T09:55:00</time>
      </trkpt>
      <trkpt lat="44.59649" lon="4.10026">
        <ele>655.58466</ele>
        <time>2021-09-07T09:55:05</time>
      </trkpt>
      <trkpt lat="44.59654" lon="4.10029">
        <ele>655.58466</ele>
        <time>2021-09-07T09:55:07</time>
      </trkpt>
      <trkpt lat="44.59656" lon="4.10029">
        <ele>655.58466</ele>
        <time>2021-09-07T09:55:08</time>
      </trkpt>
      <trkpt lat="44.59659" lon="4.10028">
        <ele>655.58466</ele>
        <time>2021-09-07T09:55:09</time>
      </trkpt>
      <trkpt lat="44.59664" lon="4.10025">
        <ele>655.58466</ele>
        <time>2021-09-07T09:55:11</time>
      </trkpt>
      <trkpt lat="44.59667" lon="4.10023">
        <ele>655.58466</ele>
        <time>2021-09-07T09:55:12</time>
      </trkpt>
      <trkpt lat="44.59668" lon="4.1002">
        <ele>655.58466</ele>
        <time>2021-09-07T09:55:13</time>
      </trkpt>
      <trkpt lat="44.59669" lon="4.10018">
        <ele>655.58466</ele>
        <time>2021-09-07T09:55:14</time>
      </trkpt>
      <trkpt lat="44.59669" lon="4.10014">
        <ele>655.58466</ele>
        <time>2021-09-07T09:55:15</time>
      </trkpt>
      <trkpt lat="44.5967" lon="4.1001">
        <ele>655.58466</ele>
        <time>2021-09-07T09:55:16</time>
      </trkpt>
      <trkpt lat="44.5967" lon="4.10002">
        <ele>655.58466</ele>
        <time>2021-09-07T09:55:18</time>
      </trkpt>
      <trkpt lat="44.59668" lon="4.09994">
        <ele>655.58466</ele>
        <time>2021-09-07T09:55:20</time>
      </trkpt>
      <trkpt lat="44.59667" lon="4.0999">
        <ele>655.58466</ele>
        <time>2021-09-07T09:55:21</time>
      </trkpt>
      <trkpt lat="44.59665" lon="4.09986">
        <ele>655.58466</ele>
        <time>2021-09-07T09:55:22</time>
      </trkpt>
      <trkpt lat="44.59664" lon="4.09984">
        <ele>655.58466</ele>
        <time>2021-09-07T09:55:23</time>
      </trkpt>
      <trkpt lat="44.59662" lon="4.09982">
        <ele>655.58466</ele>
        <time>2021-09-07T09:55:24</time>
      </trkpt>
      <trkpt lat="44.59658" lon="4.09979">
        <ele>655.58466</ele>
        <time>2021-09-07T09:55:26</time>
      </trkpt>
      <trkpt lat="44.59656" lon="4.09978">
        <ele>655.58466</ele>
        <time>2021-09-07T09:55:27</time>
      </trkpt>
      <trkpt lat="44.59654" lon="4.09978">
        <ele>655.58466</ele>
        <time>2021-09-07T09:55:28</time>
      </trkpt>
      <trkpt lat="44.59648" lon="4.09979">
        <ele>655.58466</ele>
        <time>2021-09-07T09:55:30</time>
      </trkpt>
      <trkpt lat="44.59628" lon="4.09983">
        <ele>668.38464</ele>
        <time>2021-09-07T09:55:36</time>
      </trkpt>
      <trkpt lat="44.59617" lon="4.0998">
        <ele>668.38464</ele>
        <time>2021-09-07T09:55:39</time>
      </trkpt>
      <trkpt lat="44.59611" lon="4.09978">
        <ele>668.38464</ele>
        <time>2021-09-07T09:55:41</time>
      </trkpt>
      <trkpt lat="44.59597" lon="4.09969">
        <ele>670.4847</ele>
        <time>2021-09-07T09:55:46</time>
      </trkpt>
      <trkpt lat="44.59592" lon="4.09961">
        <ele>670.4847</ele>
        <time>2021-09-07T09:55:48</time>
      </trkpt>
      <trkpt lat="44.59588" lon="4.0995">
        <ele>670.4847</ele>
        <time>2021-09-07T09:55:50</time>
      </trkpt>
      <trkpt lat="44.59573" lon="4.09919">
        <ele>668.88464</ele>
        <time>2021-09-07T09:55:58</time>
      </trkpt>
      <trkpt lat="44.59567" lon="4.09912">
        <ele>668.88464</ele>
        <time>2021-09-07T09:56:01</time>
      </trkpt>
      <trkpt lat="44.59552" lon="4.09899">
        <ele>667.18463</ele>
        <time>2021-09-07T09:56:08</time>
      </trkpt>
      <trkpt lat="44.59549" lon="4.09892">
        <ele>667.18463</ele>
        <time>2021-09-07T09:56:10</time>
      </trkpt>
      <trkpt lat="44.59542" lon="4.09875">
        <ele>669.08466</ele>
        <time>2021-09-07T09:56:15</time>
      </trkpt>
      <trkpt lat="44.59524" lon="4.09825">
        <ele>671.68463</ele>
        <time>2021-09-07T09:56:29</time>
      </trkpt>
      <trkpt lat="44.59522" lon="4.09823">
        <ele>671.68463</ele>
        <time>2021-09-07T09:56:30</time>
      </trkpt>
      <trkpt lat="44.59519" lon="4.09822">
        <ele>671.68463</ele>
        <time>2021-09-07T09:56:31</time>
      </trkpt>
      <trkpt lat="44.59516" lon="4.09822">
        <ele>674.4847</ele>
        <time>2021-09-07T09:56:32</time>
      </trkpt>
      <trkpt lat="44.59493" lon="4.0981">
        <ele>677.18463</ele>
        <time>2021-09-07T09:56:42</time>
      </trkpt>
      <trkpt lat="44.59489" lon="4.09803">
        <ele>677.18463</ele>
        <time>2021-09-07T09:56:44</time>
      </trkpt>
      <trkpt lat="44.59486" lon="4.09796">
        <ele>677.18463</ele>
        <time>2021-09-07T09:56:46</time>
      </trkpt>
      <trkpt lat="44.59483" lon="4.09785">
        <ele>677.18463</ele>
        <time>2021-09-07T09:56:49</time>
      </trkpt>
      <trkpt lat="44.59482" lon="4.09779">
        <ele>677.18463</ele>
        <time>2021-09-07T09:56:51</time>
      </trkpt>
      <trkpt lat="44.59482" lon="4.09775">
        <ele>677.18463</ele>
        <time>2021-09-07T09:56:52</time>
      </trkpt>
      <trkpt lat="44.59482" lon="4.09771">
        <ele>677.18463</ele>
        <time>2021-09-07T09:56:53</time>
      </trkpt>
      <trkpt lat="44.59484" lon="4.09764">
        <ele>677.18463</ele>
        <time>2021-09-07T09:56:55</time>
      </trkpt>
      <trkpt lat="44.59488" lon="4.09754">
        <ele>677.18463</ele>
        <time>2021-09-07T09:56:58</time>
      </trkpt>
      <trkpt lat="44.59491" lon="4.09749">
        <ele>677.18463</ele>
        <time>2021-09-07T09:57:00</time>
      </trkpt>
      <trkpt lat="44.59497" lon="4.09737">
        <ele>677.18463</ele>
        <time>2021-09-07T09:57:04</time>
      </trkpt>
      <trkpt lat="44.59501" lon="4.09723">
        <ele>677.18463</ele>
        <time>2021-09-07T09:57:07</time>
      </trkpt>
      <trkpt lat="44.59505" lon="4.09697">
        <ele>673.38464</ele>
        <time>2021-09-07T09:57:13</time>
      </trkpt>
      <trkpt lat="44.59505" lon="4.09633">
        <ele>681.88464</ele>
        <time>2021-09-07T09:57:28</time>
      </trkpt>
      <trkpt lat="44.59505" lon="4.09622">
        <ele>681.88464</ele>
        <time>2021-09-07T09:57:31</time>
      </trkpt>
      <trkpt lat="44.59506" lon="4.09619">
        <ele>688.05133</ele>
        <time>2021-09-07T09:57:32</time>
      </trkpt>
      <trkpt lat="44.59517" lon="4.09575">
        <ele>686.618</ele>
        <time>2021-09-07T09:57:44</time>
      </trkpt>
      <trkpt lat="44.5952" lon="4.09568">
        <ele>686.618</ele>
        <time>2021-09-07T09:57:46</time>
      </trkpt>
      <trkpt lat="44.59524" lon="4.09563">
        <ele>686.618</ele>
        <time>2021-09-07T09:57:48</time>
      </trkpt>
      <trkpt lat="44.59534" lon="4.09549">
        <ele>688.4847</ele>
        <time>2021-09-07T09:57:55</time>
      </trkpt>
      <trkpt lat="44.59535" lon="4.09546">
        <ele>688.4847</ele>
        <time>2021-09-07T09:57:56</time>
      </trkpt>
      <trkpt lat="44.59536" lon="4.09542">
        <ele>688.4847</ele>
        <time>2021-09-07T09:57:57</time>
      </trkpt>
      <trkpt lat="44.59557" lon="4.0945">
        <ele>695.4847</ele>
        <time>2021-09-07T09:58:24</time>
      </trkpt>
      <trkpt lat="44.59571" lon="4.09416">
        <ele>695.4847</ele>
        <time>2021-09-07T09:58:34</time>
      </trkpt>
      <trkpt lat="44.59575" lon="4.09407">
        <ele>695.4847</ele>
        <time>2021-09-07T09:58:37</time>
      </trkpt>
      <trkpt lat="44.59593" lon="4.09364">
        <ele>695.4847</ele>
        <time>2021-09-07T09:58:51</time>
      </trkpt>
      <trkpt lat="44.59596" lon="4.09356">
        <ele>710.78467</ele>
        <time>2021-09-07T09:58:53</time>
      </trkpt>
      <trkpt lat="44.59604" lon="4.09341">
        <ele>710.78467</ele>
        <time>2021-09-07T09:58:57</time>
      </trkpt>
      <trkpt lat="44.59609" lon="4.09331">
        <ele>710.78467</ele>
        <time>2021-09-07T09:59:00</time>
      </trkpt>
      <trkpt lat="44.59613" lon="4.09319">
        <ele>700.18463</ele>
        <time>2021-09-07T09:59:04</time>
      </trkpt>
      <trkpt lat="44.59617" lon="4.09313">
        <ele>700.18463</ele>
        <time>2021-09-07T09:59:07</time>
      </trkpt>
      <trkpt lat="44.59618" lon="4.09312">
        <ele>700.18463</ele>
        <time>2021-09-07T09:59:08</time>
      </trkpt>
      <trkpt lat="44.59622" lon="4.09308">
        <ele>700.18463</ele>
        <time>2021-09-07T09:59:10</time>
      </trkpt>
      <trkpt lat="44.59624" lon="4.09307">
        <ele>700.18463</ele>
        <time>2021-09-07T09:59:11</time>
      </trkpt>
      <trkpt lat="44.59648" lon="4.09285">
        <ele>706.18463</ele>
        <time>2021-09-07T09:59:22</time>
      </trkpt>
      <trkpt lat="44.59651" lon="4.09278">
        <ele>706.18463</ele>
        <time>2021-09-07T09:59:24</time>
      </trkpt>
      <trkpt lat="44.59653" lon="4.09271">
        <ele>706.18463</ele>
        <time>2021-09-07T09:59:26</time>
      </trkpt>
      <trkpt lat="44.59654" lon="4.09263">
        <ele>706.18463</ele>
        <time>2021-09-07T09:59:28</time>
      </trkpt>
      <trkpt lat="44.59654" lon="4.09254">
        <ele>706.18463</ele>
        <time>2021-09-07T09:59:30</time>
      </trkpt>
      <trkpt lat="44.59652" lon="4.09247">
        <ele>709.58466</ele>
        <time>2021-09-07T09:59:32</time>
      </trkpt>
      <trkpt lat="44.59651" lon="4.0922">
        <ele>709.58466</ele>
        <time>2021-09-07T09:59:39</time>
      </trkpt>
      <trkpt lat="44.59652" lon="4.09212">
        <ele>709.58466</ele>
        <time>2021-09-07T09:59:41</time>
      </trkpt>
      <trkpt lat="44.59654" lon="4.09201">
        <ele>710.78467</ele>
        <time>2021-09-07T09:59:44</time>
      </trkpt>
      <trkpt lat="44.59657" lon="4.09191">
        <ele>710.78467</ele>
        <time>2021-09-07T09:59:47</time>
      </trkpt>
      <trkpt lat="44.5966" lon="4.09182">
        <ele>710.78467</ele>
        <time>2021-09-07T09:59:50</time>
      </trkpt>
      <trkpt lat="44.59666" lon="4.0917">
        <ele>711.08466</ele>
        <time>2021-09-07T09:59:54</time>
      </trkpt>
      <trkpt lat="44.5967" lon="4.09164">
        <ele>711.08466</ele>
        <time>2021-09-07T09:59:56</time>
      </trkpt>
      <trkpt lat="44.59682" lon="4.09145">
        <ele>711.08466</ele>
        <time>2021-09-07T10:00:02</time>
      </trkpt>
      <trkpt lat="44.59696" lon="4.09118">
        <ele>711.08466</ele>
        <time>2021-09-07T10:00:11</time>
      </trkpt>
      <trkpt lat="44.59698" lon="4.09111">
        <ele>711.08466</ele>
        <time>2021-09-07T10:00:13</time>
      </trkpt>
      <trkpt lat="44.59698" lon="4.09102">
        <ele>711.08466</ele>
        <time>2021-09-07T10:00:15</time>
      </trkpt>
      <trkpt lat="44.59698" lon="4.09094">
        <ele>711.08466</ele>
        <time>2021-09-07T10:00:17</time>
      </trkpt>
      <trkpt lat="44.59697" lon="4.09092">
        <ele>711.08466</ele>
        <time>2021-09-07T10:00:18</time>
      </trkpt>
      <trkpt lat="44.59696" lon="4.0909">
        <ele>711.08466</ele>
        <time>2021-09-07T10:00:19</time>
      </trkpt>
      <trkpt lat="44.59693" lon="4.09087">
        <ele>711.08466</ele>
        <time>2021-09-07T10:00:21</time>
      </trkpt>
      <trkpt lat="44.59689" lon="4.09078">
        <ele>711.08466</ele>
        <time>2021-09-07T10:00:24</time>
      </trkpt>
      <trkpt lat="44.59671" lon="4.09027">
        <ele>711.08466</ele>
        <time>2021-09-07T10:00:37</time>
      </trkpt>
      <trkpt lat="44.59668" lon="4.09023">
        <ele>711.08466</ele>
        <time>2021-09-07T10:00:39</time>
      </trkpt>
      <trkpt lat="44.59667" lon="4.09022">
        <ele>711.08466</ele>
        <time>2021-09-07T10:00:40</time>
      </trkpt>
      <trkpt lat="44.59666" lon="4.09022">
        <ele>711.08466</ele>
        <time>2021-09-07T10:00:41</time>
      </trkpt>
      <trkpt lat="44.59658" lon="4.09022">
        <ele>711.08466</ele>
        <time>2021-09-07T10:00:45</time>
      </trkpt>
      <trkpt lat="44.59656" lon="4.09022">
        <ele>711.08466</ele>
        <time>2021-09-07T10:00:46</time>
      </trkpt>
      <trkpt lat="44.59647" lon="4.09023">
        <ele>711.08466</ele>
        <time>2021-09-07T10:00:49</time>
      </trkpt>
      <trkpt lat="44.59637" lon="4.09021">
        <ele>711.08466</ele>
        <time>2021-09-07T10:00:53</time>
      </trkpt>
      <trkpt lat="44.59631" lon="4.09021">
        <ele>730.518</ele>
        <time>2021-09-07T10:00:56</time>
      </trkpt>
      <trkpt lat="44.59622" lon="4.0902">
        <ele>730.518</ele>
        <time>2021-09-07T10:00:59</time>
      </trkpt>
      <trkpt lat="44.5962" lon="4.09019">
        <ele>730.518</ele>
        <time>2021-09-07T10:01:00</time>
      </trkpt>
      <trkpt lat="44.59617" lon="4.09018">
        <ele>730.518</ele>
        <time>2021-09-07T10:01:01</time>
      </trkpt>
      <trkpt lat="44.59601" lon="4.09007">
        <ele>730.518</ele>
        <time>2021-09-07T10:01:07</time>
      </trkpt>
      <trkpt lat="44.59598" lon="4.09003">
        <ele>730.518</ele>
        <time>2021-09-07T10:01:09</time>
      </trkpt>
      <trkpt lat="44.59595" lon="4.08997">
        <ele>730.518</ele>
        <time>2021-09-07T10:01:11</time>
      </trkpt>
      <trkpt lat="44.59582" lon="4.08974">
        <ele>730.518</ele>
        <time>2021-09-07T10:01:18</time>
      </trkpt>
      <trkpt lat="44.59573" lon="4.08948">
        <ele>730.518</ele>
        <time>2021-09-07T10:01:24</time>
      </trkpt>
      <trkpt lat="44.59573" lon="4.08943">
        <ele>730.518</ele>
        <time>2021-09-07T10:01:25</time>
      </trkpt>
      <trkpt lat="44.59572" lon="4.08935">
        <ele>730.518</ele>
        <time>2021-09-07T10:01:27</time>
      </trkpt>
      <trkpt lat="44.59571" lon="4.08928">
        <ele>730.518</ele>
        <time>2021-09-07T10:01:29</time>
      </trkpt>
      <trkpt lat="44.59566" lon="4.08891">
        <ele>732.68463</ele>
        <time>2021-09-07T10:01:39</time>
      </trkpt>
      <trkpt lat="44.59565" lon="4.08877">
        <ele>732.68463</ele>
        <time>2021-09-07T10:01:43</time>
      </trkpt>
      <trkpt lat="44.59565" lon="4.08874">
        <ele>738.58466</ele>
        <time>2021-09-07T10:01:44</time>
      </trkpt>
      <trkpt lat="44.59566" lon="4.08871">
        <ele>738.58466</ele>
        <time>2021-09-07T10:01:45</time>
      </trkpt>
      <trkpt lat="44.59567" lon="4.08868">
        <ele>738.58466</ele>
        <time>2021-09-07T10:01:46</time>
      </trkpt>
      <trkpt lat="44.59571" lon="4.08863">
        <ele>738.58466</ele>
        <time>2021-09-07T10:01:48</time>
      </trkpt>
      <trkpt lat="44.59573" lon="4.08861">
        <ele>738.58466</ele>
        <time>2021-09-07T10:01:49</time>
      </trkpt>
      <trkpt lat="44.59579" lon="4.08856">
        <ele>738.58466</ele>
        <time>2021-09-07T10:01:51</time>
      </trkpt>
      <trkpt lat="44.59588" lon="4.08853">
        <ele>741.18463</ele>
        <time>2021-09-07T10:01:54</time>
      </trkpt>
      <trkpt lat="44.59618" lon="4.08841">
        <ele>731.4847</ele>
        <time>2021-09-07T10:02:04</time>
      </trkpt>
      <trkpt lat="44.59643" lon="4.08829">
        <ele>731.4847</ele>
        <time>2021-09-07T10:02:15</time>
      </trkpt>
      <trkpt lat="44.59659" lon="4.08818">
        <ele>731.4847</ele>
        <time>2021-09-07T10:02:21</time>
      </trkpt>
      <trkpt lat="44.59667" lon="4.08813">
        <ele>731.4847</ele>
        <time>2021-09-07T10:02:24</time>
      </trkpt>
      <trkpt lat="44.59676" lon="4.08806">
        <ele>731.4847</ele>
        <time>2021-09-07T10:02:28</time>
      </trkpt>
      <trkpt lat="44.59698" lon="4.08794">
        <ele>731.4847</ele>
        <time>2021-09-07T10:02:37</time>
      </trkpt>
      <trkpt lat="44.59702" lon="4.08795">
        <ele>731.4847</ele>
        <time>2021-09-07T10:02:38</time>
      </trkpt>
      <trkpt lat="44.59713" lon="4.08796">
        <ele>731.4847</ele>
        <time>2021-09-07T10:02:41</time>
      </trkpt>
      <trkpt lat="44.59729" lon="4.08792">
        <ele>731.4847</ele>
        <time>2021-09-07T10:02:47</time>
      </trkpt>
      <trkpt lat="44.59737" lon="4.08786">
        <ele>731.4847</ele>
        <time>2021-09-07T10:02:50</time>
      </trkpt>
      <trkpt lat="44.59747" lon="4.08775">
        <ele>731.4847</ele>
        <time>2021-09-07T10:02:55</time>
      </trkpt>
      <trkpt lat="44.59749" lon="4.08773">
        <ele>731.4847</ele>
        <time>2021-09-07T10:02:56</time>
      </trkpt>
      <trkpt lat="44.59763" lon="4.08749">
        <ele>731.4847</ele>
        <time>2021-09-07T10:03:04</time>
      </trkpt>
      <trkpt lat="44.59765" lon="4.08741">
        <ele>731.4847</ele>
        <time>2021-09-07T10:03:06</time>
      </trkpt>
      <trkpt lat="44.59768" lon="4.08724">
        <ele>731.4847</ele>
        <time>2021-09-07T10:03:11</time>
      </trkpt>
      <trkpt lat="44.59769" lon="4.087">
        <ele>731.4847</ele>
        <time>2021-09-07T10:03:18</time>
      </trkpt>
      <trkpt lat="44.59768" lon="4.08691">
        <ele>731.4847</ele>
        <time>2021-09-07T10:03:20</time>
      </trkpt>
      <trkpt lat="44.59765" lon="4.08679">
        <ele>731.4847</ele>
        <time>2021-09-07T10:03:23</time>
      </trkpt>
      <trkpt lat="44.59752" lon="4.08645">
        <ele>741.58466</ele>
        <time>2021-09-07T10:03:32</time>
      </trkpt>
      <trkpt lat="44.59749" lon="4.08634">
        <ele>742.9847</ele>
        <time>2021-09-07T10:03:35</time>
      </trkpt>
      <trkpt lat="44.59744" lon="4.0861">
        <ele>742.9847</ele>
        <time>2021-09-07T10:03:41</time>
      </trkpt>
      <trkpt lat="44.59744" lon="4.08602">
        <ele>742.9847</ele>
        <time>2021-09-07T10:03:43</time>
      </trkpt>
      <trkpt lat="44.59745" lon="4.08595">
        <ele>754.9847</ele>
        <time>2021-09-07T10:03:45</time>
      </trkpt>
      <trkpt lat="44.59749" lon="4.08552">
        <ele>756.58466</ele>
        <time>2021-09-07T10:03:56</time>
      </trkpt>
      <trkpt lat="44.59754" lon="4.08534">
        <ele>756.58466</ele>
        <time>2021-09-07T10:04:02</time>
      </trkpt>
      <trkpt lat="44.59754" lon="4.0853">
        <ele>756.58466</ele>
        <time>2021-09-07T10:04:03</time>
      </trkpt>
      <trkpt lat="44.59754" lon="4.08518">
        <ele>764.88464</ele>
        <time>2021-09-07T10:04:07</time>
      </trkpt>
      <trkpt lat="44.59753" lon="4.08516">
        <ele>764.88464</ele>
        <time>2021-09-07T10:04:08</time>
      </trkpt>
      <trkpt lat="44.59751" lon="4.08513">
        <ele>764.88464</ele>
        <time>2021-09-07T10:04:10</time>
      </trkpt>
      <trkpt lat="44.59745" lon="4.08506">
        <ele>764.88464</ele>
        <time>2021-09-07T10:04:14</time>
      </trkpt>
      <trkpt lat="44.5974" lon="4.08502">
        <ele>764.88464</ele>
        <time>2021-09-07T10:04:16</time>
      </trkpt>
      <trkpt lat="44.59727" lon="4.08495">
        <ele>764.88464</ele>
        <time>2021-09-07T10:04:22</time>
      </trkpt>
      <trkpt lat="44.59716" lon="4.08481">
        <ele>764.88464</ele>
        <time>2021-09-07T10:04:27</time>
      </trkpt>
      <trkpt lat="44.59713" lon="4.08474">
        <ele>764.88464</ele>
        <time>2021-09-07T10:04:29</time>
      </trkpt>
      <trkpt lat="44.5971" lon="4.08466">
        <ele>764.88464</ele>
        <time>2021-09-07T10:04:31</time>
      </trkpt>
      <trkpt lat="44.59704" lon="4.08454">
        <ele>764.88464</ele>
        <time>2021-09-07T10:04:35</time>
      </trkpt>
      <trkpt lat="44.59677" lon="4.08435">
        <ele>764.88464</ele>
        <time>2021-09-07T10:04:47</time>
      </trkpt>
      <trkpt lat="44.5967" lon="4.08426">
        <ele>764.88464</ele>
        <time>2021-09-07T10:04:51</time>
      </trkpt>
      <trkpt lat="44.59666" lon="4.08422">
        <ele>764.88464</ele>
        <time>2021-09-07T10:04:53</time>
      </trkpt>
      <trkpt lat="44.59657" lon="4.08413">
        <ele>764.88464</ele>
        <time>2021-09-07T10:04:58</time>
      </trkpt>
      <trkpt lat="44.59647" lon="4.08407">
        <ele>764.88464</ele>
        <time>2021-09-07T10:05:02</time>
      </trkpt>
      <trkpt lat="44.59636" lon="4.08406">
        <ele>760.28467</ele>
        <time>2021-09-07T10:05:07</time>
      </trkpt>
      <trkpt lat="44.59618" lon="4.08409">
        <ele>760.28467</ele>
        <time>2021-09-07T10:05:14</time>
      </trkpt>
      <trkpt lat="44.59611" lon="4.08407">
        <ele>760.118</ele>
        <time>2021-09-07T10:05:16</time>
      </trkpt>
      <trkpt lat="44.59604" lon="4.08404">
        <ele>760.118</ele>
        <time>2021-09-07T10:05:18</time>
      </trkpt>
      <trkpt lat="44.59601" lon="4.08402">
        <ele>760.118</ele>
        <time>2021-09-07T10:05:19</time>
      </trkpt>
      <trkpt lat="44.59599" lon="4.084">
        <ele>760.118</ele>
        <time>2021-09-07T10:05:20</time>
      </trkpt>
      <trkpt lat="44.59596" lon="4.08397">
        <ele>760.118</ele>
        <time>2021-09-07T10:05:21</time>
      </trkpt>
      <trkpt lat="44.59593" lon="4.0839">
        <ele>760.118</ele>
        <time>2021-09-07T10:05:23</time>
      </trkpt>
      <trkpt lat="44.59591" lon="4.08386">
        <ele>760.118</ele>
        <time>2021-09-07T10:05:24</time>
      </trkpt>
      <trkpt lat="44.5959" lon="4.0838">
        <ele>756.4847</ele>
        <time>2021-09-07T10:05:25</time>
      </trkpt>
      <trkpt lat="44.5959" lon="4.08376">
        <ele>756.4847</ele>
        <time>2021-09-07T10:05:26</time>
      </trkpt>
      <trkpt lat="44.59591" lon="4.08367">
        <ele>756.4847</ele>
        <time>2021-09-07T10:05:28</time>
      </trkpt>
      <trkpt lat="44.59593" lon="4.0836">
        <ele>756.4847</ele>
        <time>2021-09-07T10:05:30</time>
      </trkpt>
      <trkpt lat="44.59597" lon="4.08349">
        <ele>756.4847</ele>
        <time>2021-09-07T10:05:33</time>
      </trkpt>
      <trkpt lat="44.59601" lon="4.08344">
        <ele>756.4847</ele>
        <time>2021-09-07T10:05:35</time>
      </trkpt>
      <trkpt lat="44.59603" lon="4.08342">
        <ele>756.4847</ele>
        <time>2021-09-07T10:05:36</time>
      </trkpt>
      <trkpt lat="44.59609" lon="4.08337">
        <ele>756.4847</ele>
        <time>2021-09-07T10:05:38</time>
      </trkpt>
      <trkpt lat="44.59611" lon="4.08335">
        <ele>756.4847</ele>
        <time>2021-09-07T10:05:39</time>
      </trkpt>
      <trkpt lat="44.59614" lon="4.08334">
        <ele>756.4847</ele>
        <time>2021-09-07T10:05:40</time>
      </trkpt>
      <trkpt lat="44.5962" lon="4.08334">
        <ele>756.4847</ele>
        <time>2021-09-07T10:05:42</time>
      </trkpt>
      <trkpt lat="44.59623" lon="4.08334">
        <ele>756.4847</ele>
        <time>2021-09-07T10:05:43</time>
      </trkpt>
      <trkpt lat="44.59628" lon="4.08337">
        <ele>759.58466</ele>
        <time>2021-09-07T10:05:45</time>
      </trkpt>
      <trkpt lat="44.59633" lon="4.0834">
        <ele>759.58466</ele>
        <time>2021-09-07T10:05:47</time>
      </trkpt>
      <trkpt lat="44.59684" lon="4.08389">
        <ele>761.58466</ele>
        <time>2021-09-07T10:06:10</time>
      </trkpt>
      <trkpt lat="44.5969" lon="4.08392">
        <ele>761.58466</ele>
        <time>2021-09-07T10:06:13</time>
      </trkpt>
      <trkpt lat="44.59696" lon="4.08396">
        <ele>761.58466</ele>
        <time>2021-09-07T10:06:16</time>
      </trkpt>
      <trkpt lat="44.59702" lon="4.084">
        <ele>761.58466</ele>
        <time>2021-09-07T10:06:19</time>
      </trkpt>
      <trkpt lat="44.59751" lon="4.08433">
        <ele>761.58466</ele>
        <time>2021-09-07T10:06:41</time>
      </trkpt>
      <trkpt lat="44.59758" lon="4.08437">
        <ele>761.58466</ele>
        <time>2021-09-07T10:06:44</time>
      </trkpt>
      <trkpt lat="44.59784" lon="4.08451">
        <ele>761.58466</ele>
        <time>2021-09-07T10:06:54</time>
      </trkpt>
      <trkpt lat="44.59786" lon="4.08453">
        <ele>761.58466</ele>
        <time>2021-09-07T10:06:55</time>
      </trkpt>
      <trkpt lat="44.59811" lon="4.08477">
        <ele>761.58466</ele>
        <time>2021-09-07T10:07:06</time>
      </trkpt>
      <trkpt lat="44.59817" lon="4.08479">
        <ele>761.58466</ele>
        <time>2021-09-07T10:07:08</time>
      </trkpt>
      <trkpt lat="44.59826" lon="4.08482">
        <ele>761.58466</ele>
        <time>2021-09-07T10:07:11</time>
      </trkpt>
      <trkpt lat="44.59835" lon="4.08484">
        <ele>761.58466</ele>
        <time>2021-09-07T10:07:14</time>
      </trkpt>
      <trkpt lat="44.59843" lon="4.08485">
        <ele>761.58466</ele>
        <time>2021-09-07T10:07:17</time>
      </trkpt>
      <trkpt lat="44.59846" lon="4.08486">
        <ele>761.58466</ele>
        <time>2021-09-07T10:07:18</time>
      </trkpt>
      <trkpt lat="44.59852" lon="4.08488">
        <ele>761.58466</ele>
        <time>2021-09-07T10:07:20</time>
      </trkpt>
      <trkpt lat="44.59857" lon="4.08492">
        <ele>761.58466</ele>
        <time>2021-09-07T10:07:22</time>
      </trkpt>
      <trkpt lat="44.59862" lon="4.08495">
        <ele>761.58466</ele>
        <time>2021-09-07T10:07:24</time>
      </trkpt>
      <trkpt lat="44.59871" lon="4.08506">
        <ele>761.58466</ele>
        <time>2021-09-07T10:07:29</time>
      </trkpt>
      <trkpt lat="44.59883" lon="4.08524">
        <ele>761.58466</ele>
        <time>2021-09-07T10:07:35</time>
      </trkpt>
      <trkpt lat="44.59889" lon="4.08529">
        <ele>761.58466</ele>
        <time>2021-09-07T10:07:37</time>
      </trkpt>
      <trkpt lat="44.59897" lon="4.08538">
        <ele>761.58466</ele>
        <time>2021-09-07T10:07:41</time>
      </trkpt>
      <trkpt lat="44.59904" lon="4.08554">
        <ele>761.58466</ele>
        <time>2021-09-07T10:07:46</time>
      </trkpt>
      <trkpt lat="44.59908" lon="4.08557">
        <ele>761.58466</ele>
        <time>2021-09-07T10:07:49</time>
      </trkpt>
      <trkpt lat="44.59913" lon="4.0856">
        <ele>761.58466</ele>
        <time>2021-09-07T10:07:51</time>
      </trkpt>
      <trkpt lat="44.5992" lon="4.08561">
        <ele>761.58466</ele>
        <time>2021-09-07T10:07:54</time>
      </trkpt>
      <trkpt lat="44.59925" lon="4.08561">
        <ele>761.58466</ele>
        <time>2021-09-07T10:07:56</time>
      </trkpt>
      <trkpt lat="44.59928" lon="4.08559">
        <ele>761.58466</ele>
        <time>2021-09-07T10:07:57</time>
      </trkpt>
      <trkpt lat="44.59932" lon="4.08556">
        <ele>761.58466</ele>
        <time>2021-09-07T10:07:59</time>
      </trkpt>
      <trkpt lat="44.59934" lon="4.08554">
        <ele>761.58466</ele>
        <time>2021-09-07T10:08:00</time>
      </trkpt>
      <trkpt lat="44.59934" lon="4.08551">
        <ele>761.58466</ele>
        <time>2021-09-07T10:08:01</time>
      </trkpt>
      <trkpt lat="44.59935" lon="4.08549">
        <ele>761.58466</ele>
        <time>2021-09-07T10:08:02</time>
      </trkpt>
      <trkpt lat="44.59936" lon="4.08543">
        <ele>761.58466</ele>
        <time>2021-09-07T10:08:04</time>
      </trkpt>
      <trkpt lat="44.59935" lon="4.0854">
        <ele>761.58466</ele>
        <time>2021-09-07T10:08:05</time>
      </trkpt>
      <trkpt lat="44.59934" lon="4.08534">
        <ele>761.58466</ele>
        <time>2021-09-07T10:08:07</time>
      </trkpt>
      <trkpt lat="44.59933" lon="4.08531">
        <ele>761.58466</ele>
        <time>2021-09-07T10:08:08</time>
      </trkpt>
      <trkpt lat="44.59931" lon="4.08528">
        <ele>761.58466</ele>
        <time>2021-09-07T10:08:09</time>
      </trkpt>
      <trkpt lat="44.59927" lon="4.08522">
        <ele>761.58466</ele>
        <time>2021-09-07T10:08:11</time>
      </trkpt>
      <trkpt lat="44.59925" lon="4.08519">
        <ele>761.58466</ele>
        <time>2021-09-07T10:08:12</time>
      </trkpt>
      <trkpt lat="44.5992" lon="4.08516">
        <ele>761.58466</ele>
        <time>2021-09-07T10:08:14</time>
      </trkpt>
      <trkpt lat="44.59915" lon="4.08514">
        <ele>789.68463</ele>
        <time>2021-09-07T10:08:16</time>
      </trkpt>
      <trkpt lat="44.59909" lon="4.08514">
        <ele>789.68463</ele>
        <time>2021-09-07T10:08:18</time>
      </trkpt>
      <trkpt lat="44.599" lon="4.08511">
        <ele>789.68463</ele>
        <time>2021-09-07T10:08:21</time>
      </trkpt>
      <trkpt lat="44.59882" lon="4.08501">
        <ele>789.68463</ele>
        <time>2021-09-07T10:08:26</time>
      </trkpt>
      <trkpt lat="44.5988" lon="4.08497">
        <ele>789.68463</ele>
        <time>2021-09-07T10:08:27</time>
      </trkpt>
      <trkpt lat="44.59875" lon="4.08488">
        <ele>789.68463</ele>
        <time>2021-09-07T10:08:29</time>
      </trkpt>
      <trkpt lat="44.59871" lon="4.08479">
        <ele>789.68463</ele>
        <time>2021-09-07T10:08:31</time>
      </trkpt>
      <trkpt lat="44.59858" lon="4.08454">
        <ele>789.68463</ele>
        <time>2021-09-07T10:08:38</time>
      </trkpt>
      <trkpt lat="44.59852" lon="4.08448">
        <ele>789.68463</ele>
        <time>2021-09-07T10:08:40</time>
      </trkpt>
      <trkpt lat="44.59838" lon="4.08441">
        <ele>789.68463</ele>
        <time>2021-09-07T10:08:45</time>
      </trkpt>
      <trkpt lat="44.59816" lon="4.0843">
        <ele>789.68463</ele>
        <time>2021-09-07T10:08:54</time>
      </trkpt>
      <trkpt lat="44.59802" lon="4.08417">
        <ele>798.58466</ele>
        <time>2021-09-07T10:09:01</time>
      </trkpt>
      <trkpt lat="44.59761" lon="4.08358">
        <ele>777.78467</ele>
        <time>2021-09-07T10:09:22</time>
      </trkpt>
      <trkpt lat="44.59751" lon="4.0834">
        <ele>777.78467</ele>
        <time>2021-09-07T10:09:28</time>
      </trkpt>
      <trkpt lat="44.59749" lon="4.08337">
        <ele>777.78467</ele>
        <time>2021-09-07T10:09:29</time>
      </trkpt>
      <trkpt lat="44.59748" lon="4.0833">
        <ele>777.78467</ele>
        <time>2021-09-07T10:09:31</time>
      </trkpt>
      <trkpt lat="44.59747" lon="4.08322">
        <ele>777.78467</ele>
        <time>2021-09-07T10:09:34</time>
      </trkpt>
      <trkpt lat="44.59747" lon="4.08317">
        <ele>777.78467</ele>
        <time>2021-09-07T10:09:36</time>
      </trkpt>
      <trkpt lat="44.5975" lon="4.08305">
        <ele>777.78467</ele>
        <time>2021-09-07T10:09:40</time>
      </trkpt>
      <trkpt lat="44.59751" lon="4.083">
        <ele>777.78467</ele>
        <time>2021-09-07T10:09:42</time>
      </trkpt>
      <trkpt lat="44.59755" lon="4.08289">
        <ele>798.18463</ele>
        <time>2021-09-07T10:09:46</time>
      </trkpt>
      <trkpt lat="44.59756" lon="4.08287">
        <ele>798.18463</ele>
        <time>2021-09-07T10:09:47</time>
      </trkpt>
      <trkpt lat="44.59763" lon="4.08274">
        <ele>798.18463</ele>
        <time>2021-09-07T10:09:52</time>
      </trkpt>
      <trkpt lat="44.59764" lon="4.08272">
        <ele>798.18463</ele>
        <time>2021-09-07T10:09:53</time>
      </trkpt>
      <trkpt lat="44.59768" lon="4.08267">
        <ele>798.18463</ele>
        <time>2021-09-07T10:09:55</time>
      </trkpt>
      <trkpt lat="44.59785" lon="4.0824">
        <ele>798.18463</ele>
        <time>2021-09-07T10:10:05</time>
      </trkpt>
      <trkpt lat="44.59789" lon="4.08231">
        <ele>798.18463</ele>
        <time>2021-09-07T10:10:08</time>
      </trkpt>
      <trkpt lat="44.5979" lon="4.08225">
        <ele>798.18463</ele>
        <time>2021-09-07T10:10:10</time>
      </trkpt>
      <trkpt lat="44.5979" lon="4.08214">
        <ele>798.18463</ele>
        <time>2021-09-07T10:10:13</time>
      </trkpt>
      <trkpt lat="44.59789" lon="4.082">
        <ele>811.88464</ele>
        <time>2021-09-07T10:10:17</time>
      </trkpt>
      <trkpt lat="44.5979" lon="4.08184">
        <ele>811.88464</ele>
        <time>2021-09-07T10:10:22</time>
      </trkpt>
      <trkpt lat="44.5979" lon="4.08181">
        <ele>811.88464</ele>
        <time>2021-09-07T10:10:23</time>
      </trkpt>
      <trkpt lat="44.59793" lon="4.08175">
        <ele>816.3513</ele>
        <time>2021-09-07T10:10:25</time>
      </trkpt>
      <trkpt lat="44.59795" lon="4.08169">
        <ele>816.3513</ele>
        <time>2021-09-07T10:10:27</time>
      </trkpt>
      <trkpt lat="44.598" lon="4.08161">
        <ele>816.3513</ele>
        <time>2021-09-07T10:10:30</time>
      </trkpt>
      <trkpt lat="44.59808" lon="4.08153">
        <ele>816.3513</ele>
        <time>2021-09-07T10:10:34</time>
      </trkpt>
      <trkpt lat="44.59816" lon="4.08143">
        <ele>818.28467</ele>
        <time>2021-09-07T10:10:38</time>
      </trkpt>
      <trkpt lat="44.59832" lon="4.08119">
        <ele>821.38464</ele>
        <time>2021-09-07T10:10:47</time>
      </trkpt>
      <trkpt lat="44.59845" lon="4.08094">
        <ele>823.78467</ele>
        <time>2021-09-07T10:10:56</time>
      </trkpt>
      <trkpt lat="44.5985" lon="4.08081">
        <ele>823.78467</ele>
        <time>2021-09-07T10:11:00</time>
      </trkpt>
      <trkpt lat="44.59851" lon="4.08071">
        <ele>823.78467</ele>
        <time>2021-09-07T10:11:03</time>
      </trkpt>
      <trkpt lat="44.59852" lon="4.08056">
        <ele>823.218</ele>
        <time>2021-09-07T10:11:07</time>
      </trkpt>
      <trkpt lat="44.59851" lon="4.08028">
        <ele>824.78467</ele>
        <time>2021-09-07T10:11:15</time>
      </trkpt>
      <trkpt lat="44.59856" lon="4.07978">
        <ele>823.68463</ele>
        <time>2021-09-07T10:11:28</time>
      </trkpt>
      <trkpt lat="44.5985" lon="4.07932">
        <ele>823.28467</ele>
        <time>2021-09-07T10:11:42</time>
      </trkpt>
      <trkpt lat="44.59844" lon="4.07913">
        <ele>827.08466</ele>
        <time>2021-09-07T10:11:48</time>
      </trkpt>
      <trkpt lat="44.59833" lon="4.07886">
        <ele>832.28467</ele>
        <time>2021-09-07T10:11:57</time>
      </trkpt>
      <trkpt lat="44.5983" lon="4.07873">
        <ele>832.28467</ele>
        <time>2021-09-07T10:12:01</time>
      </trkpt>
      <trkpt lat="44.59819" lon="4.07841">
        <ele>835.4847</ele>
        <time>2021-09-07T10:12:11</time>
      </trkpt>
      <trkpt lat="44.59819" lon="4.07833">
        <ele>835.4847</ele>
        <time>2021-09-07T10:12:13</time>
      </trkpt>
      <trkpt lat="44.5982" lon="4.07822">
        <ele>841.68463</ele>
        <time>2021-09-07T10:12:16</time>
      </trkpt>
      <trkpt lat="44.59825" lon="4.07767">
        <ele>838.38464</ele>
        <time>2021-09-07T10:12:33</time>
      </trkpt>
      <trkpt lat="44.59827" lon="4.07761">
        <ele>838.38464</ele>
        <time>2021-09-07T10:12:35</time>
      </trkpt>
      <trkpt lat="44.59827" lon="4.07757">
        <ele>838.38464</ele>
        <time>2021-09-07T10:12:36</time>
      </trkpt>
      <trkpt lat="44.59828" lon="4.07751">
        <ele>838.38464</ele>
        <time>2021-09-07T10:12:38</time>
      </trkpt>
      <trkpt lat="44.59826" lon="4.07712">
        <ele>838.38464</ele>
        <time>2021-09-07T10:12:50</time>
      </trkpt>
      <trkpt lat="44.59825" lon="4.07705">
        <ele>838.38464</ele>
        <time>2021-09-07T10:12:52</time>
      </trkpt>
      <trkpt lat="44.59822" lon="4.07694">
        <ele>838.38464</ele>
        <time>2021-09-07T10:12:55</time>
      </trkpt>
      <trkpt lat="44.59814" lon="4.07671">
        <ele>838.38464</ele>
        <time>2021-09-07T10:13:03</time>
      </trkpt>
      <trkpt lat="44.59813" lon="4.07657">
        <ele>838.38464</ele>
        <time>2021-09-07T10:13:08</time>
      </trkpt>
      <trkpt lat="44.59814" lon="4.0765">
        <ele>838.38464</ele>
        <time>2021-09-07T10:13:10</time>
      </trkpt>
      <trkpt lat="44.59816" lon="4.07644">
        <ele>838.38464</ele>
        <time>2021-09-07T10:13:12</time>
      </trkpt>
      <trkpt lat="44.59834" lon="4.07595">
        <ele>838.38464</ele>
        <time>2021-09-07T10:13:27</time>
      </trkpt>
      <trkpt lat="44.59834" lon="4.07589">
        <ele>838.38464</ele>
        <time>2021-09-07T10:13:29</time>
      </trkpt>
      <trkpt lat="44.59834" lon="4.07586">
        <ele>838.38464</ele>
        <time>2021-09-07T10:13:30</time>
      </trkpt>
      <trkpt lat="44.59826" lon="4.07547">
        <ele>849.28467</ele>
        <time>2021-09-07T10:13:40</time>
      </trkpt>
      <trkpt lat="44.59819" lon="4.07521">
        <ele>851.18463</ele>
        <time>2021-09-07T10:13:46</time>
      </trkpt>
      <trkpt lat="44.59808" lon="4.07496">
        <ele>851.18463</ele>
        <time>2021-09-07T10:13:52</time>
      </trkpt>
      <trkpt lat="44.59803" lon="4.07489">
        <ele>851.18463</ele>
        <time>2021-09-07T10:13:54</time>
      </trkpt>
      <trkpt lat="44.59782" lon="4.07457">
        <ele>850.9847</ele>
        <time>2021-09-07T10:14:01</time>
      </trkpt>
      <trkpt lat="44.59779" lon="4.07443">
        <ele>850.9847</ele>
        <time>2021-09-07T10:14:03</time>
      </trkpt>
      <trkpt lat="44.59771" lon="4.0742">
        <ele>846.68463</ele>
        <time>2021-09-07T10:14:07</time>
      </trkpt>
      <trkpt lat="44.59764" lon="4.07406">
        <ele>846.68463</ele>
        <time>2021-09-07T10:14:10</time>
      </trkpt>
      <trkpt lat="44.59754" lon="4.07391">
        <ele>846.68463</ele>
        <time>2021-09-07T10:14:14</time>
      </trkpt>
      <trkpt lat="44.59746" lon="4.07383">
        <ele>843.118</ele>
        <time>2021-09-07T10:14:17</time>
      </trkpt>
      <trkpt lat="44.59744" lon="4.07379">
        <ele>843.118</ele>
        <time>2021-09-07T10:14:18</time>
      </trkpt>
      <trkpt lat="44.59741" lon="4.0737">
        <ele>843.118</ele>
        <time>2021-09-07T10:14:20</time>
      </trkpt>
      <trkpt lat="44.59739" lon="4.07361">
        <ele>843.118</ele>
        <time>2021-09-07T10:14:22</time>
      </trkpt>
      <trkpt lat="44.59739" lon="4.07352">
        <ele>843.118</ele>
        <time>2021-09-07T10:14:24</time>
      </trkpt>
      <trkpt lat="44.59739" lon="4.07344">
        <ele>843.78467</ele>
        <time>2021-09-07T10:14:26</time>
      </trkpt>
      <trkpt lat="44.59743" lon="4.07275">
        <ele>848.28467</ele>
        <time>2021-09-07T10:14:46</time>
      </trkpt>
      <trkpt lat="44.59744" lon="4.07233">
        <ele>855.28467</ele>
        <time>2021-09-07T10:14:58</time>
      </trkpt>
      <trkpt lat="44.59742" lon="4.07202">
        <ele>855.28467</ele>
        <time>2021-09-07T10:15:08</time>
      </trkpt>
      <trkpt lat="44.5974" lon="4.07162">
        <ele>855.28467</ele>
        <time>2021-09-07T10:15:20</time>
      </trkpt>
      <trkpt lat="44.59741" lon="4.07156">
        <ele>855.28467</ele>
        <time>2021-09-07T10:15:22</time>
      </trkpt>
      <trkpt lat="44.59748" lon="4.0711">
        <ele>855.28467</ele>
        <time>2021-09-07T10:15:35</time>
      </trkpt>
      <trkpt lat="44.59749" lon="4.07108">
        <ele>855.28467</ele>
        <time>2021-09-07T10:15:36</time>
      </trkpt>
      <trkpt lat="44.59751" lon="4.07106">
        <ele>855.28467</ele>
        <time>2021-09-07T10:15:37</time>
      </trkpt>
      <trkpt lat="44.59755" lon="4.07101">
        <ele>855.28467</ele>
        <time>2021-09-07T10:15:39</time>
      </trkpt>
      <trkpt lat="44.59758" lon="4.07099">
        <ele>855.28467</ele>
        <time>2021-09-07T10:15:40</time>
      </trkpt>
      <trkpt lat="44.59764" lon="4.07098">
        <ele>855.28467</ele>
        <time>2021-09-07T10:15:42</time>
      </trkpt>
      <trkpt lat="44.59766" lon="4.07098">
        <ele>855.28467</ele>
        <time>2021-09-07T10:15:43</time>
      </trkpt>
      <trkpt lat="44.59771" lon="4.071">
        <ele>876.08466</ele>
        <time>2021-09-07T10:15:45</time>
      </trkpt>
      <trkpt lat="44.59775" lon="4.07104">
        <ele>876.08466</ele>
        <time>2021-09-07T10:15:47</time>
      </trkpt>
      <trkpt lat="44.59776" lon="4.07106">
        <ele>876.08466</ele>
        <time>2021-09-07T10:15:48</time>
      </trkpt>
      <trkpt lat="44.59777" lon="4.07111">
        <ele>876.08466</ele>
        <time>2021-09-07T10:15:50</time>
      </trkpt>
      <trkpt lat="44.59777" lon="4.07117">
        <ele>876.08466</ele>
        <time>2021-09-07T10:15:52</time>
      </trkpt>
      <trkpt lat="44.59776" lon="4.07122">
        <ele>876.08466</ele>
        <time>2021-09-07T10:15:54</time>
      </trkpt>
      <trkpt lat="44.59774" lon="4.07128">
        <ele>864.68463</ele>
        <time>2021-09-07T10:15:56</time>
      </trkpt>
      <trkpt lat="44.59771" lon="4.07133">
        <ele>864.68463</ele>
        <time>2021-09-07T10:15:58</time>
      </trkpt>
      <trkpt lat="44.59766" lon="4.07142">
        <ele>864.68463</ele>
        <time>2021-09-07T10:16:01</time>
      </trkpt>
      <trkpt lat="44.59765" lon="4.07149">
        <ele>864.68463</ele>
        <time>2021-09-07T10:16:03</time>
      </trkpt>
      <trkpt lat="44.59765" lon="4.07157">
        <ele>857.18463</ele>
        <time>2021-09-07T10:16:05</time>
      </trkpt>
      <trkpt lat="44.59766" lon="4.07166">
        <ele>857.18463</ele>
        <time>2021-09-07T10:16:07</time>
      </trkpt>
      <trkpt lat="44.59769" lon="4.07177">
        <ele>857.18463</ele>
        <time>2021-09-07T10:16:10</time>
      </trkpt>
      <trkpt lat="44.59772" lon="4.07188">
        <ele>857.18463</ele>
        <time>2021-09-07T10:16:13</time>
      </trkpt>
      <trkpt lat="44.59775" lon="4.07198">
        <ele>856.4847</ele>
        <time>2021-09-07T10:16:16</time>
      </trkpt>
      <trkpt lat="44.59778" lon="4.07213">
        <ele>856.4847</ele>
        <time>2021-09-07T10:16:20</time>
      </trkpt>
      <trkpt lat="44.59778" lon="4.07255">
        <ele>859.38464</ele>
        <time>2021-09-07T10:16:32</time>
      </trkpt>
      <trkpt lat="44.59781" lon="4.07269">
        <ele>862.68463</ele>
        <time>2021-09-07T10:16:36</time>
      </trkpt>
      <trkpt lat="44.5979" lon="4.07288">
        <ele>862.68463</ele>
        <time>2021-09-07T10:16:42</time>
      </trkpt>
      <trkpt lat="44.59801" lon="4.07306">
        <ele>864.78467</ele>
        <time>2021-09-07T10:16:48</time>
      </trkpt>
      <trkpt lat="44.59805" lon="4.07312">
        <ele>864.78467</ele>
        <time>2021-09-07T10:16:50</time>
      </trkpt>
      <trkpt lat="44.59806" lon="4.07315">
        <ele>864.78467</ele>
        <time>2021-09-07T10:16:51</time>
      </trkpt>
      <trkpt lat="44.59807" lon="4.07319">
        <ele>864.78467</ele>
        <time>2021-09-07T10:16:52</time>
      </trkpt>
      <trkpt lat="44.59809" lon="4.07333">
        <ele>865.4847</ele>
        <time>2021-09-07T10:16:56</time>
      </trkpt>
      <trkpt lat="44.59809" lon="4.07341">
        <ele>865.4847</ele>
        <time>2021-09-07T10:16:58</time>
      </trkpt>
      <trkpt lat="44.59813" lon="4.07369">
        <ele>865.28467</ele>
        <time>2021-09-07T10:17:06</time>
      </trkpt>
      <trkpt lat="44.59817" lon="4.07382">
        <ele>865.28467</ele>
        <time>2021-09-07T10:17:10</time>
      </trkpt>
      <trkpt lat="44.59832" lon="4.07418">
        <ele>867.4847</ele>
        <time>2021-09-07T10:17:21</time>
      </trkpt>
      <trkpt lat="44.59856" lon="4.07459">
        <ele>867.4847</ele>
        <time>2021-09-07T10:17:34</time>
      </trkpt>
      <trkpt lat="44.59888" lon="4.07505">
        <ele>868.28467</ele>
        <time>2021-09-07T10:17:51</time>
      </trkpt>
      <trkpt lat="44.59901" lon="4.07528">
        <ele>868.28467</ele>
        <time>2021-09-07T10:18:00</time>
      </trkpt>
      <trkpt lat="44.59936" lon="4.07588">
        <ele>868.28467</ele>
        <time>2021-09-07T10:18:19</time>
      </trkpt>
      <trkpt lat="44.59983" lon="4.07687">
        <ele>868.28467</ele>
        <time>2021-09-07T10:18:49</time>
      </trkpt>
      <trkpt lat="44.60012" lon="4.0779">
        <ele>884.18463</ele>
        <time>2021-09-07T10:19:19</time>
      </trkpt>
      <trkpt lat="44.60018" lon="4.07804">
        <ele>884.18463</ele>
        <time>2021-09-07T10:19:23</time>
      </trkpt>
      <trkpt lat="44.60024" lon="4.07817">
        <ele>884.18463</ele>
        <time>2021-09-07T10:19:27</time>
      </trkpt>
      <trkpt lat="44.60046" lon="4.07851">
        <ele>884.28467</ele>
        <time>2021-09-07T10:19:41</time>
      </trkpt>
      <trkpt lat="44.60047" lon="4.07854">
        <ele>884.28467</ele>
        <time>2021-09-07T10:19:42</time>
      </trkpt>
      <trkpt lat="44.60049" lon="4.07869">
        <ele>886.18463</ele>
        <time>2021-09-07T10:19:46</time>
      </trkpt>
      <trkpt lat="44.60048" lon="4.07876">
        <ele>886.18463</ele>
        <time>2021-09-07T10:19:48</time>
      </trkpt>
      <trkpt lat="44.60046" lon="4.07891">
        <ele>886.18463</ele>
        <time>2021-09-07T10:19:52</time>
      </trkpt>
      <trkpt lat="44.60043" lon="4.07899">
        <ele>886.18463</ele>
        <time>2021-09-07T10:19:54</time>
      </trkpt>
      <trkpt lat="44.60033" lon="4.07939">
        <ele>888.08466</ele>
        <time>2021-09-07T10:20:06</time>
      </trkpt>
      <trkpt lat="44.60026" lon="4.07993">
        <ele>888.18463</ele>
        <time>2021-09-07T10:20:21</time>
      </trkpt>
      <trkpt lat="44.60025" lon="4.08003">
        <ele>888.18463</ele>
        <time>2021-09-07T10:20:24</time>
      </trkpt>
      <trkpt lat="44.60009" lon="4.08104">
        <ele>895.18463</ele>
        <time>2021-09-07T10:20:54</time>
      </trkpt>
      <trkpt lat="44.59991" lon="4.08163">
        <ele>897.58466</ele>
        <time>2021-09-07T10:21:13</time>
      </trkpt>
      <trkpt lat="44.59986" lon="4.08205">
        <ele>900.38464</ele>
        <time>2021-09-07T10:21:27</time>
      </trkpt>
      <trkpt lat="44.59986" lon="4.08222">
        <ele>900.38464</ele>
        <time>2021-09-07T10:21:33</time>
      </trkpt>
      <trkpt lat="44.59988" lon="4.08236">
        <ele>901.9847</ele>
        <time>2021-09-07T10:21:38</time>
      </trkpt>
      <trkpt lat="44.5999" lon="4.08244">
        <ele>901.9847</ele>
        <time>2021-09-07T10:21:41</time>
      </trkpt>
      <trkpt lat="44.59995" lon="4.08255">
        <ele>903.58466</ele>
        <time>2021-09-07T10:21:45</time>
      </trkpt>
      <trkpt lat="44.59999" lon="4.08262">
        <ele>903.58466</ele>
        <time>2021-09-07T10:21:48</time>
      </trkpt>
      <trkpt lat="44.60007" lon="4.08269">
        <ele>903.58466</ele>
        <time>2021-09-07T10:21:52</time>
      </trkpt>
      <trkpt lat="44.60016" lon="4.08275">
        <ele>903.58466</ele>
        <time>2021-09-07T10:21:56</time>
      </trkpt>
      <trkpt lat="44.60029" lon="4.08281">
        <ele>903.58466</ele>
        <time>2021-09-07T10:22:02</time>
      </trkpt>
      <trkpt lat="44.6008" lon="4.08291">
        <ele>903.58466</ele>
        <time>2021-09-07T10:22:27</time>
      </trkpt>
      <trkpt lat="44.60083" lon="4.08292">
        <ele>903.58466</ele>
        <time>2021-09-07T10:22:28</time>
      </trkpt>
      <trkpt lat="44.6009" lon="4.08294">
        <ele>903.58466</ele>
        <time>2021-09-07T10:22:31</time>
      </trkpt>
      <trkpt lat="44.60092" lon="4.08294">
        <ele>903.58466</ele>
        <time>2021-09-07T10:22:32</time>
      </trkpt>
      <trkpt lat="44.60099" lon="4.08293">
        <ele>912.18463</ele>
        <time>2021-09-07T10:22:35</time>
      </trkpt>
      <trkpt lat="44.60103" lon="4.0829">
        <ele>912.18463</ele>
        <time>2021-09-07T10:22:37</time>
      </trkpt>
      <trkpt lat="44.60107" lon="4.08286">
        <ele>912.18463</ele>
        <time>2021-09-07T10:22:39</time>
      </trkpt>
      <trkpt lat="44.60108" lon="4.08284">
        <ele>912.18463</ele>
        <time>2021-09-07T10:22:40</time>
      </trkpt>
      <trkpt lat="44.60109" lon="4.08281">
        <ele>912.18463</ele>
        <time>2021-09-07T10:22:41</time>
      </trkpt>
      <trkpt lat="44.6011" lon="4.08277">
        <ele>912.18463</ele>
        <time>2021-09-07T10:22:42</time>
      </trkpt>
      <trkpt lat="44.6011" lon="4.08274">
        <ele>912.18463</ele>
        <time>2021-09-07T10:22:43</time>
      </trkpt>
      <trkpt lat="44.60108" lon="4.08266">
        <ele>912.18463</ele>
        <time>2021-09-07T10:22:45</time>
      </trkpt>
      <trkpt lat="44.60105" lon="4.08259">
        <ele>912.18463</ele>
        <time>2021-09-07T10:22:47</time>
      </trkpt>
      <trkpt lat="44.60102" lon="4.08256">
        <ele>912.18463</ele>
        <time>2021-09-07T10:22:48</time>
      </trkpt>
      <trkpt lat="44.601" lon="4.08254">
        <ele>912.18463</ele>
        <time>2021-09-07T10:22:49</time>
      </trkpt>
      <trkpt lat="44.60097" lon="4.08253">
        <ele>912.18463</ele>
        <time>2021-09-07T10:22:50</time>
      </trkpt>
      <trkpt lat="44.60094" lon="4.08253">
        <ele>912.18463</ele>
        <time>2021-09-07T10:22:51</time>
      </trkpt>
      <trkpt lat="44.60091" lon="4.08254">
        <ele>912.18463</ele>
        <time>2021-09-07T10:22:52</time>
      </trkpt>
      <trkpt lat="44.60088" lon="4.08255">
        <ele>912.18463</ele>
        <time>2021-09-07T10:22:53</time>
      </trkpt>
      <trkpt lat="44.60082" lon="4.08257">
        <ele>912.18463</ele>
        <time>2021-09-07T10:22:55</time>
      </trkpt>
      <trkpt lat="44.60065" lon="4.08264">
        <ele>912.18463</ele>
        <time>2021-09-07T10:23:02</time>
      </trkpt>
      <trkpt lat="44.60038" lon="4.08259">
        <ele>912.18463</ele>
        <time>2021-09-07T10:23:11</time>
      </trkpt>
      <trkpt lat="44.60026" lon="4.08254">
        <ele>923.18463</ele>
        <time>2021-09-07T10:23:15</time>
      </trkpt>
      <trkpt lat="44.60024" lon="4.08251">
        <ele>923.18463</ele>
        <time>2021-09-07T10:23:16</time>
      </trkpt>
      <trkpt lat="44.60022" lon="4.08248">
        <ele>923.18463</ele>
        <time>2021-09-07T10:23:17</time>
      </trkpt>
      <trkpt lat="44.60018" lon="4.08241">
        <ele>923.18463</ele>
        <time>2021-09-07T10:23:19</time>
      </trkpt>
      <trkpt lat="44.60016" lon="4.08235">
        <ele>923.18463</ele>
        <time>2021-09-07T10:23:21</time>
      </trkpt>
      <trkpt lat="44.60014" lon="4.08225">
        <ele>923.18463</ele>
        <time>2021-09-07T10:23:24</time>
      </trkpt>
      <trkpt lat="44.60015" lon="4.08215">
        <ele>925.18463</ele>
        <time>2021-09-07T10:23:27</time>
      </trkpt>
      <trkpt lat="44.60016" lon="4.08201">
        <ele>925.18463</ele>
        <time>2021-09-07T10:23:31</time>
      </trkpt>
      <trkpt lat="44.6002" lon="4.08182">
        <ele>925.38464</ele>
        <time>2021-09-07T10:23:37</time>
      </trkpt>
      <trkpt lat="44.60026" lon="4.08164">
        <ele>925.38464</ele>
        <time>2021-09-07T10:23:44</time>
      </trkpt>
      <trkpt lat="44.60056" lon="4.08096">
        <ele>924.28467</ele>
        <time>2021-09-07T10:24:09</time>
      </trkpt>
      <trkpt lat="44.60088" lon="4.08017">
        <ele>936.318</ele>
        <time>2021-09-07T10:24:39</time>
      </trkpt>
      <trkpt lat="44.60097" lon="4.07991">
        <ele>943.38464</ele>
        <time>2021-09-07T10:24:48</time>
      </trkpt>
      <trkpt lat="44.60111" lon="4.07972">
        <ele>943.38464</ele>
        <time>2021-09-07T10:24:56</time>
      </trkpt>
      <trkpt lat="44.60133" lon="4.07943">
        <ele>943.38464</ele>
        <time>2021-09-07T10:25:07</time>
      </trkpt>
      <trkpt lat="44.6014" lon="4.07929">
        <ele>943.38464</ele>
        <time>2021-09-07T10:25:12</time>
      </trkpt>
      <trkpt lat="44.60146" lon="4.07902">
        <ele>943.38464</ele>
        <time>2021-09-07T10:25:21</time>
      </trkpt>
      <trkpt lat="44.60146" lon="4.07885">
        <ele>943.38464</ele>
        <time>2021-09-07T10:25:27</time>
      </trkpt>
      <trkpt lat="44.60147" lon="4.07873">
        <ele>943.38464</ele>
        <time>2021-09-07T10:25:31</time>
      </trkpt>
      <trkpt lat="44.60148" lon="4.07865">
        <ele>943.38464</ele>
        <time>2021-09-07T10:25:34</time>
      </trkpt>
      <trkpt lat="44.60146" lon="4.07834">
        <ele>943.38464</ele>
        <time>2021-09-07T10:25:44</time>
      </trkpt>
      <trkpt lat="44.60145" lon="4.07828">
        <ele>946.88464</ele>
        <time>2021-09-07T10:25:46</time>
      </trkpt>
      <trkpt lat="44.60145" lon="4.07821">
        <ele>946.88464</ele>
        <time>2021-09-07T10:25:48</time>
      </trkpt>
      <trkpt lat="44.60148" lon="4.07793">
        <ele>946.88464</ele>
        <time>2021-09-07T10:25:58</time>
      </trkpt>
      <trkpt lat="44.60147" lon="4.07786">
        <ele>946.88464</ele>
        <time>2021-09-07T10:26:01</time>
      </trkpt>
      <trkpt lat="44.60145" lon="4.07779">
        <ele>946.88464</ele>
        <time>2021-09-07T10:26:04</time>
      </trkpt>
      <trkpt lat="44.6014" lon="4.07763">
        <ele>940.18463</ele>
        <time>2021-09-07T10:26:10</time>
      </trkpt>
      <trkpt lat="44.60137" lon="4.07757">
        <ele>940.18463</ele>
        <time>2021-09-07T10:26:13</time>
      </trkpt>
      <trkpt lat="44.60136" lon="4.07755">
        <ele>940.18463</ele>
        <time>2021-09-07T10:26:14</time>
      </trkpt>
      <trkpt lat="44.60135" lon="4.07756">
        <ele>944.38464</ele>
        <time>2021-09-07T10:26:15</time>
      </trkpt>
      <trkpt lat="44.60135" lon="4.07754">
        <ele>944.38464</ele>
        <time>2021-09-07T10:26:19</time>
      </trkpt>
      <trkpt lat="44.60135" lon="4.07717">
        <ele>944.38464</ele>
        <time>2021-09-07T10:26:28</time>
      </trkpt>
      <trkpt lat="44.60135" lon="4.07713">
        <ele>944.38464</ele>
        <time>2021-09-07T10:26:29</time>
      </trkpt>
      <trkpt lat="44.6013" lon="4.07624">
        <ele>944.58466</ele>
        <time>2021-09-07T10:26:56</time>
      </trkpt>
      <trkpt lat="44.60128" lon="4.0761">
        <ele>944.58466</ele>
        <time>2021-09-07T10:27:00</time>
      </trkpt>
      <trkpt lat="44.60123" lon="4.07595">
        <ele>944.58466</ele>
        <time>2021-09-07T10:27:05</time>
      </trkpt>
      <trkpt lat="44.60121" lon="4.07591">
        <ele>944.58466</ele>
        <time>2021-09-07T10:27:07</time>
      </trkpt>
      <trkpt lat="44.60112" lon="4.07582">
        <ele>944.58466</ele>
        <time>2021-09-07T10:27:12</time>
      </trkpt>
      <trkpt lat="44.60104" lon="4.07576">
        <ele>944.58466</ele>
        <time>2021-09-07T10:27:16</time>
      </trkpt>
      <trkpt lat="44.60099" lon="4.07571">
        <ele>944.58466</ele>
        <time>2021-09-07T10:27:19</time>
      </trkpt>
      <trkpt lat="44.60088" lon="4.07563">
        <ele>944.58466</ele>
        <time>2021-09-07T10:27:26</time>
      </trkpt>
      <trkpt lat="44.60082" lon="4.07559">
        <ele>944.58466</ele>
        <time>2021-09-07T10:27:30</time>
      </trkpt>
      <trkpt lat="44.60078" lon="4.07551">
        <ele>944.58466</ele>
        <time>2021-09-07T10:27:33</time>
      </trkpt>
      <trkpt lat="44.60077" lon="4.07548">
        <ele>944.58466</ele>
        <time>2021-09-07T10:27:34</time>
      </trkpt>
      <trkpt lat="44.60076" lon="4.07545">
        <ele>944.58466</ele>
        <time>2021-09-07T10:27:35</time>
      </trkpt>
      <trkpt lat="44.60062" lon="4.07511">
        <ele>944.58466</ele>
        <time>2021-09-07T10:27:47</time>
      </trkpt>
      <trkpt lat="44.60024" lon="4.07452">
        <ele>944.58466</ele>
        <time>2021-09-07T10:28:12</time>
      </trkpt>
      <trkpt lat="44.60009" lon="4.07406">
        <ele>944.58466</ele>
        <time>2021-09-07T10:28:28</time>
      </trkpt>
      <trkpt lat="44.60004" lon="4.07386">
        <ele>944.58466</ele>
        <time>2021-09-07T10:28:34</time>
      </trkpt>
      <trkpt lat="44.60004" lon="4.07367">
        <ele>970.9847</ele>
        <time>2021-09-07T10:28:41</time>
      </trkpt>
      <trkpt lat="44.60006" lon="4.07343">
        <ele>972.88464</ele>
        <time>2021-09-07T10:28:49</time>
      </trkpt>
      <trkpt lat="44.60007" lon="4.0733">
        <ele>972.88464</ele>
        <time>2021-09-07T10:28:54</time>
      </trkpt>
      <trkpt lat="44.60008" lon="4.07327">
        <ele>972.38464</ele>
        <time>2021-09-07T10:28:55</time>
      </trkpt>
      <trkpt lat="44.60011" lon="4.07311">
        <ele>972.38464</ele>
        <time>2021-09-07T10:29:01</time>
      </trkpt>
      <trkpt lat="44.60017" lon="4.07279">
        <ele>975.3847</ele>
        <time>2021-09-07T10:29:13</time>
      </trkpt>
      <trkpt lat="44.60036" lon="4.07219">
        <ele>976.2846</ele>
        <time>2021-09-07T10:29:36</time>
      </trkpt>
      <trkpt lat="44.60055" lon="4.07185">
        <ele>984.8847</ele>
        <time>2021-09-07T10:29:51</time>
      </trkpt>
      <trkpt lat="44.60071" lon="4.0717">
        <ele>984.8847</ele>
        <time>2021-09-07T10:29:59</time>
      </trkpt>
      <trkpt lat="44.60075" lon="4.07163">
        <ele>984.8847</ele>
        <time>2021-09-07T10:30:01</time>
      </trkpt>
      <trkpt lat="44.60076" lon="4.0716">
        <ele>984.8847</ele>
        <time>2021-09-07T10:30:02</time>
      </trkpt>
      <trkpt lat="44.60077" lon="4.07153">
        <ele>984.8847</ele>
        <time>2021-09-07T10:30:04</time>
      </trkpt>
      <trkpt lat="44.60077" lon="4.07149">
        <ele>984.8847</ele>
        <time>2021-09-07T10:30:05</time>
      </trkpt>
      <trkpt lat="44.60075" lon="4.07138">
        <ele>984.8847</ele>
        <time>2021-09-07T10:30:08</time>
      </trkpt>
      <trkpt lat="44.60074" lon="4.07132">
        <ele>984.8847</ele>
        <time>2021-09-07T10:30:10</time>
      </trkpt>
      <trkpt lat="44.60065" lon="4.07118">
        <ele>984.8847</ele>
        <time>2021-09-07T10:30:16</time>
      </trkpt>
      <trkpt lat="44.6006" lon="4.07108">
        <ele>984.8847</ele>
        <time>2021-09-07T10:30:20</time>
      </trkpt>
      <trkpt lat="44.60058" lon="4.07101">
        <ele>984.8847</ele>
        <time>2021-09-07T10:30:22</time>
      </trkpt>
      <trkpt lat="44.60052" lon="4.07083">
        <ele>975.518</ele>
        <time>2021-09-07T10:30:29</time>
      </trkpt>
      <trkpt lat="44.60052" lon="4.07081">
        <ele>975.518</ele>
        <time>2021-09-07T10:30:30</time>
      </trkpt>
      <trkpt lat="44.60051" lon="4.07077">
        <ele>975.518</ele>
        <time>2021-09-07T10:30:32</time>
      </trkpt>
      <trkpt lat="44.6005" lon="4.07073">
        <ele>975.518</ele>
        <time>2021-09-07T10:30:33</time>
      </trkpt>
      <trkpt lat="44.60044" lon="4.07057">
        <ele>975.518</ele>
        <time>2021-09-07T10:30:39</time>
      </trkpt>
      <trkpt lat="44.60041" lon="4.0705">
        <ele>975.518</ele>
        <time>2021-09-07T10:30:42</time>
      </trkpt>
      <trkpt lat="44.60034" lon="4.0703">
        <ele>975.518</ele>
        <time>2021-09-07T10:30:50</time>
      </trkpt>
      <trkpt lat="44.6003" lon="4.07018">
        <ele>975.518</ele>
        <time>2021-09-07T10:30:54</time>
      </trkpt>
      <trkpt lat="44.60028" lon="4.0701">
        <ele>987.9847</ele>
        <time>2021-09-07T10:30:57</time>
      </trkpt>
      <trkpt lat="44.60027" lon="4.07008">
        <ele>987.9847</ele>
        <time>2021-09-07T10:30:58</time>
      </trkpt>
      <trkpt lat="44.60023" lon="4.06991">
        <ele>987.9847</ele>
        <time>2021-09-07T10:31:04</time>
      </trkpt>
      <trkpt lat="44.60023" lon="4.06985">
        <ele>987.9847</ele>
        <time>2021-09-07T10:31:06</time>
      </trkpt>
      <trkpt lat="44.60023" lon="4.06978">
        <ele>987.9847</ele>
        <time>2021-09-07T10:31:08</time>
      </trkpt>
      <trkpt lat="44.60021" lon="4.06963">
        <ele>987.9847</ele>
        <time>2021-09-07T10:31:13</time>
      </trkpt>
      <trkpt lat="44.60022" lon="4.06934">
        <ele>987.9847</ele>
        <time>2021-09-07T10:31:22</time>
      </trkpt>
      <trkpt lat="44.60027" lon="4.06906">
        <ele>995.918</ele>
        <time>2021-09-07T10:31:31</time>
      </trkpt>
      <trkpt lat="44.6003" lon="4.06896">
        <ele>995.918</ele>
        <time>2021-09-07T10:31:35</time>
      </trkpt>
      <trkpt lat="44.60033" lon="4.06891">
        <ele>994.418</ele>
        <time>2021-09-07T10:31:37</time>
      </trkpt>
      <trkpt lat="44.60057" lon="4.06844">
        <ele>1000.7846</ele>
        <time>2021-09-07T10:31:57</time>
      </trkpt>
      <trkpt lat="44.60064" lon="4.06834">
        <ele>1000.7846</ele>
        <time>2021-09-07T10:32:03</time>
      </trkpt>
      <trkpt lat="44.60067" lon="4.06829">
        <ele>1000.7846</ele>
        <time>2021-09-07T10:32:06</time>
      </trkpt>
      <trkpt lat="44.60069" lon="4.06823">
        <ele>1000.7846</ele>
        <time>2021-09-07T10:32:09</time>
      </trkpt>
      <trkpt lat="44.6007" lon="4.06817">
        <ele>1000.7846</ele>
        <time>2021-09-07T10:32:11</time>
      </trkpt>
      <trkpt lat="44.60071" lon="4.06811">
        <ele>1000.7846</ele>
        <time>2021-09-07T10:32:13</time>
      </trkpt>
      <trkpt lat="44.60071" lon="4.06804">
        <ele>1000.7846</ele>
        <time>2021-09-07T10:32:15</time>
      </trkpt>
      <trkpt lat="44.60069" lon="4.06795">
        <ele>1000.7846</ele>
        <time>2021-09-07T10:32:18</time>
      </trkpt>
      <trkpt lat="44.60065" lon="4.06782">
        <ele>1000.7846</ele>
        <time>2021-09-07T10:32:22</time>
      </trkpt>
      <trkpt lat="44.60064" lon="4.0678">
        <ele>1000.7846</ele>
        <time>2021-09-07T10:32:23</time>
      </trkpt>
      <trkpt lat="44.60055" lon="4.06767">
        <ele>1000.7846</ele>
        <time>2021-09-07T10:32:29</time>
      </trkpt>
      <trkpt lat="44.60047" lon="4.06756">
        <ele>1000.7846</ele>
        <time>2021-09-07T10:32:35</time>
      </trkpt>
      <trkpt lat="44.60023" lon="4.06712">
        <ele>1000.7846</ele>
        <time>2021-09-07T10:32:53</time>
      </trkpt>
      <trkpt lat="44.60021" lon="4.06711">
        <ele>1000.7846</ele>
        <time>2021-09-07T10:32:54</time>
      </trkpt>
      <trkpt lat="44.60016" lon="4.06699">
        <ele>1011.9847</ele>
        <time>2021-09-07T10:32:59</time>
      </trkpt>
      <trkpt lat="44.60009" lon="4.06679">
        <ele>1011.9847</ele>
        <time>2021-09-07T10:33:06</time>
      </trkpt>
      <trkpt lat="44.60007" lon="4.06675">
        <ele>1006.9847</ele>
        <time>2021-09-07T10:33:08</time>
      </trkpt>
      <trkpt lat="44.60005" lon="4.06666">
        <ele>1006.9847</ele>
        <time>2021-09-07T10:33:11</time>
      </trkpt>
      <trkpt lat="44.60004" lon="4.06663">
        <ele>1006.9847</ele>
        <time>2021-09-07T10:33:12</time>
      </trkpt>
      <trkpt lat="44.60003" lon="4.0666">
        <ele>1006.9847</ele>
        <time>2021-09-07T10:33:13</time>
      </trkpt>
      <trkpt lat="44.60001" lon="4.06653">
        <ele>1006.9847</ele>
        <time>2021-09-07T10:33:15</time>
      </trkpt>
      <trkpt lat="44.59997" lon="4.06632">
        <ele>1005.08466</ele>
        <time>2021-09-07T10:33:22</time>
      </trkpt>
      <trkpt lat="44.59995" lon="4.06586">
        <ele>1003.08466</ele>
        <time>2021-09-07T10:33:37</time>
      </trkpt>
      <trkpt lat="44.59995" lon="4.06553">
        <ele>988.58466</ele>
        <time>2021-09-07T10:33:50</time>
      </trkpt>
      <trkpt lat="44.59995" lon="4.06534">
        <ele>932.88464</ele>
        <time>2021-09-07T10:33:58</time>
      </trkpt>
      <trkpt lat="44.60004" lon="4.06503">
        <ele>994.4847</ele>
        <time>2021-09-07T10:34:11</time>
      </trkpt>
      <trkpt lat="44.60021" lon="4.06452">
        <ele>1022.4847</ele>
        <time>2021-09-07T10:34:32</time>
      </trkpt>
      <trkpt lat="44.60021" lon="4.06446">
        <ele>1022.4847</ele>
        <time>2021-09-07T10:34:34</time>
      </trkpt>
      <trkpt lat="44.6002" lon="4.06439">
        <ele>1022.4847</ele>
        <time>2021-09-07T10:34:36</time>
      </trkpt>
      <trkpt lat="44.60018" lon="4.06425">
        <ele>1022.4847</ele>
        <time>2021-09-07T10:34:40</time>
      </trkpt>
      <trkpt lat="44.60016" lon="4.06421">
        <ele>1022.4847</ele>
        <time>2021-09-07T10:34:42</time>
      </trkpt>
      <trkpt lat="44.59983" lon="4.06362">
        <ele>1022.4847</ele>
        <time>2021-09-07T10:35:03</time>
      </trkpt>
      <trkpt lat="44.59969" lon="4.06311">
        <ele>1022.4847</ele>
        <time>2021-09-07T10:35:16</time>
      </trkpt>
      <trkpt lat="44.59967" lon="4.063">
        <ele>970.08466</ele>
        <time>2021-09-07T10:35:19</time>
      </trkpt>
      <trkpt lat="44.59965" lon="4.06287">
        <ele>970.08466</ele>
        <time>2021-09-07T10:35:23</time>
      </trkpt>
      <trkpt lat="44.59967" lon="4.06261">
        <ele>932.38464</ele>
        <time>2021-09-07T10:35:31</time>
      </trkpt>
      <trkpt lat="44.59967" lon="4.06178">
        <ele>1038.0847</ele>
        <time>2021-09-07T10:35:59</time>
      </trkpt>
      <trkpt lat="44.59966" lon="4.06171">
        <ele>1038.0847</ele>
        <time>2021-09-07T10:36:01</time>
      </trkpt>
      <trkpt lat="44.59965" lon="4.06164">
        <ele>1038.0847</ele>
        <time>2021-09-07T10:36:03</time>
      </trkpt>
      <trkpt lat="44.59963" lon="4.06158">
        <ele>1038.0847</ele>
        <time>2021-09-07T10:36:04</time>
      </trkpt>
      <trkpt lat="44.5996" lon="4.06152">
        <ele>1041.6847</ele>
        <time>2021-09-07T10:36:06</time>
      </trkpt>
      <trkpt lat="44.59944" lon="4.06132">
        <ele>1041.6847</ele>
        <time>2021-09-07T10:36:15</time>
      </trkpt>
      <trkpt lat="44.5994" lon="4.06122">
        <ele>1041.6847</ele>
        <time>2021-09-07T10:36:19</time>
      </trkpt>
      <trkpt lat="44.59937" lon="4.06114">
        <ele>1041.6847</ele>
        <time>2021-09-07T10:36:22</time>
      </trkpt>
      <trkpt lat="44.59933" lon="4.06089">
        <ele>1041.6847</ele>
        <time>2021-09-07T10:36:29</time>
      </trkpt>
      <trkpt lat="44.5993" lon="4.06035">
        <ele>1037.0847</ele>
        <time>2021-09-07T10:36:44</time>
      </trkpt>
      <trkpt lat="44.59931" lon="4.06025">
        <ele>1038.5847</ele>
        <time>2021-09-07T10:36:47</time>
      </trkpt>
      <trkpt lat="44.59934" lon="4.06009">
        <ele>1038.5847</ele>
        <time>2021-09-07T10:36:52</time>
      </trkpt>
      <trkpt lat="44.59937" lon="4.05997">
        <ele>1043.0514</ele>
        <time>2021-09-07T10:36:56</time>
      </trkpt>
      <trkpt lat="44.59952" lon="4.05957">
        <ele>1043.0514</ele>
        <time>2021-09-07T10:37:10</time>
      </trkpt>
      <trkpt lat="44.59959" lon="4.05945">
        <ele>1043.0514</ele>
        <time>2021-09-07T10:37:14</time>
      </trkpt>
      <trkpt lat="44.59973" lon="4.05926">
        <ele>1055.4847</ele>
        <time>2021-09-07T10:37:22</time>
      </trkpt>
      <trkpt lat="44.59986" lon="4.05914">
        <ele>1055.4847</ele>
        <time>2021-09-07T10:37:27</time>
      </trkpt>
      <trkpt lat="44.59994" lon="4.05908">
        <ele>1055.4847</ele>
        <time>2021-09-07T10:37:30</time>
      </trkpt>
      <trkpt lat="44.59997" lon="4.05907">
        <ele>1055.4847</ele>
        <time>2021-09-07T10:37:32</time>
      </trkpt>
      <trkpt lat="44.60004" lon="4.05901">
        <ele>1055.4847</ele>
        <time>2021-09-07T10:37:34</time>
      </trkpt>
      <trkpt lat="44.60038" lon="4.05886">
        <ele>1055.4847</ele>
        <time>2021-09-07T10:37:48</time>
      </trkpt>
      <trkpt lat="44.60045" lon="4.05882">
        <ele>1055.4847</ele>
        <time>2021-09-07T10:37:51</time>
      </trkpt>
      <trkpt lat="44.6005" lon="4.05877">
        <ele>1055.4847</ele>
        <time>2021-09-07T10:37:54</time>
      </trkpt>
      <trkpt lat="44.60061" lon="4.05864">
        <ele>1055.4847</ele>
        <time>2021-09-07T10:37:59</time>
      </trkpt>
      <trkpt lat="44.60068" lon="4.05858">
        <ele>1055.4847</ele>
        <time>2021-09-07T10:38:03</time>
      </trkpt>
      <trkpt lat="44.60069" lon="4.05857">
        <ele>1055.4847</ele>
        <time>2021-09-07T10:38:04</time>
      </trkpt>
      <trkpt lat="44.60075" lon="4.0585">
        <ele>1055.4847</ele>
        <time>2021-09-07T10:38:08</time>
      </trkpt>
      <trkpt lat="44.60085" lon="4.05845">
        <ele>1055.4847</ele>
        <time>2021-09-07T10:38:12</time>
      </trkpt>
      <trkpt lat="44.60087" lon="4.05842">
        <ele>1055.4847</ele>
        <time>2021-09-07T10:38:13</time>
      </trkpt>
      <trkpt lat="44.6009" lon="4.05836">
        <ele>1055.4847</ele>
        <time>2021-09-07T10:38:15</time>
      </trkpt>
      <trkpt lat="44.60093" lon="4.05828">
        <ele>1055.4847</ele>
        <time>2021-09-07T10:38:18</time>
      </trkpt>
      <trkpt lat="44.60094" lon="4.05824">
        <ele>1055.4847</ele>
        <time>2021-09-07T10:38:19</time>
      </trkpt>
      <trkpt lat="44.60095" lon="4.05819">
        <ele>1055.4847</ele>
        <time>2021-09-07T10:38:19</time>
      </trkpt>
      <trkpt lat="44.60093" lon="4.0581">
        <ele>1055.4847</ele>
        <time>2021-09-07T10:38:21</time>
      </trkpt>
      <trkpt lat="44.60092" lon="4.05806">
        <ele>1055.4847</ele>
        <time>2021-09-07T10:38:22</time>
      </trkpt>
      <trkpt lat="44.60091" lon="4.05803">
        <ele>1055.4847</ele>
        <time>2021-09-07T10:38:23</time>
      </trkpt>
      <trkpt lat="44.60087" lon="4.05798">
        <ele>1055.4847</ele>
        <time>2021-09-07T10:38:26</time>
      </trkpt>
      <trkpt lat="44.60084" lon="4.05793">
        <ele>1055.4847</ele>
        <time>2021-09-07T10:38:27</time>
      </trkpt>
      <trkpt lat="44.60076" lon="4.05782">
        <ele>1055.4847</ele>
        <time>2021-09-07T10:38:32</time>
      </trkpt>
      <trkpt lat="44.60064" lon="4.05756">
        <ele>1055.4847</ele>
        <time>2021-09-07T10:38:40</time>
      </trkpt>
      <trkpt lat="44.60038" lon="4.05735">
        <ele>1055.4847</ele>
        <time>2021-09-07T10:38:53</time>
      </trkpt>
      <trkpt lat="44.60033" lon="4.05733">
        <ele>1055.4847</ele>
        <time>2021-09-07T10:38:55</time>
      </trkpt>
      <trkpt lat="44.60023" lon="4.05726">
        <ele>1055.4847</ele>
        <time>2021-09-07T10:38:59</time>
      </trkpt>
      <trkpt lat="44.60002" lon="4.05711">
        <ele>1055.4847</ele>
        <time>2021-09-07T10:39:08</time>
      </trkpt>
      <trkpt lat="44.59993" lon="4.05702">
        <ele>1055.4847</ele>
        <time>2021-09-07T10:39:13</time>
      </trkpt>
      <trkpt lat="44.59986" lon="4.05693">
        <ele>1055.4847</ele>
        <time>2021-09-07T10:39:17</time>
      </trkpt>
      <trkpt lat="44.59975" lon="4.05669">
        <ele>1055.4847</ele>
        <time>2021-09-07T10:39:26</time>
      </trkpt>
      <trkpt lat="44.59973" lon="4.05659">
        <ele>1055.4847</ele>
        <time>2021-09-07T10:39:28</time>
      </trkpt>
      <trkpt lat="44.59971" lon="4.05646">
        <ele>1055.4847</ele>
        <time>2021-09-07T10:39:31</time>
      </trkpt>
      <trkpt lat="44.59969" lon="4.05632">
        <ele>1055.4847</ele>
        <time>2021-09-07T10:39:35</time>
      </trkpt>
      <trkpt lat="44.59971" lon="4.05615">
        <ele>1068.0847</ele>
        <time>2021-09-07T10:39:40</time>
      </trkpt>
      <trkpt lat="44.59971" lon="4.05603">
        <ele>1068.0847</ele>
        <time>2021-09-07T10:39:43</time>
      </trkpt>
      <trkpt lat="44.59981" lon="4.05561">
        <ele>1071.1847</ele>
        <time>2021-09-07T10:39:57</time>
      </trkpt>
      <trkpt lat="44.59986" lon="4.0554">
        <ele>1069.2847</ele>
        <time>2021-09-07T10:40:04</time>
      </trkpt>
      <trkpt lat="44.59988" lon="4.05523">
        <ele>1078.6847</ele>
        <time>2021-09-07T10:40:09</time>
      </trkpt>
      <trkpt lat="44.59988" lon="4.05517">
        <ele>1078.6847</ele>
        <time>2021-09-07T10:40:11</time>
      </trkpt>
      <trkpt lat="44.59987" lon="4.0551">
        <ele>1078.6847</ele>
        <time>2021-09-07T10:40:13</time>
      </trkpt>
      <trkpt lat="44.59986" lon="4.05507">
        <ele>1078.6847</ele>
        <time>2021-09-07T10:40:14</time>
      </trkpt>
      <trkpt lat="44.59979" lon="4.05496">
        <ele>1078.6847</ele>
        <time>2021-09-07T10:40:18</time>
      </trkpt>
      <trkpt lat="44.59977" lon="4.05494">
        <ele>1075.5847</ele>
        <time>2021-09-07T10:40:19</time>
      </trkpt>
      <trkpt lat="44.59959" lon="4.05479">
        <ele>1075.5847</ele>
        <time>2021-09-07T10:40:29</time>
      </trkpt>
      <trkpt lat="44.59957" lon="4.05477">
        <ele>1075.5847</ele>
        <time>2021-09-07T10:40:30</time>
      </trkpt>
      <trkpt lat="44.5994" lon="4.05446">
        <ele>1075.5847</ele>
        <time>2021-09-07T10:40:41</time>
      </trkpt>
      <trkpt lat="44.59936" lon="4.05432">
        <ele>1075.5847</ele>
        <time>2021-09-07T10:40:45</time>
      </trkpt>
      <trkpt lat="44.59935" lon="4.05426">
        <ele>1075.5847</ele>
        <time>2021-09-07T10:40:47</time>
      </trkpt>
      <trkpt lat="44.59934" lon="4.05404">
        <ele>1078.8848</ele>
        <time>2021-09-07T10:40:54</time>
      </trkpt>
      <trkpt lat="44.59932" lon="4.05399">
        <ele>1078.8848</ele>
        <time>2021-09-07T10:40:56</time>
      </trkpt>
      <trkpt lat="44.59931" lon="4.05397">
        <ele>1078.8848</ele>
        <time>2021-09-07T10:40:57</time>
      </trkpt>
      <trkpt lat="44.59925" lon="4.0539">
        <ele>1078.8848</ele>
        <time>2021-09-07T10:41:01</time>
      </trkpt>
      <trkpt lat="44.59919" lon="4.05381">
        <ele>1078.8848</ele>
        <time>2021-09-07T10:41:03</time>
      </trkpt>
      <trkpt lat="44.59917" lon="4.05379">
        <ele>1078.8848</ele>
        <time>2021-09-07T10:41:04</time>
      </trkpt>
      <trkpt lat="44.59908" lon="4.05368">
        <ele>1078.8848</ele>
        <time>2021-09-07T10:41:09</time>
      </trkpt>
      <trkpt lat="44.59901" lon="4.05355">
        <ele>1078.8848</ele>
        <time>2021-09-07T10:41:14</time>
      </trkpt>
      <trkpt lat="44.59892" lon="4.0533">
        <ele>1078.8848</ele>
        <time>2021-09-07T10:41:22</time>
      </trkpt>
      <trkpt lat="44.5989" lon="4.05324">
        <ele>1078.8848</ele>
        <time>2021-09-07T10:41:24</time>
      </trkpt>
      <trkpt lat="44.59886" lon="4.05312">
        <ele>1078.8848</ele>
        <time>2021-09-07T10:41:28</time>
      </trkpt>
      <trkpt lat="44.59881" lon="4.05298">
        <ele>1078.8848</ele>
        <time>2021-09-07T10:41:33</time>
      </trkpt>
      <trkpt lat="44.59878" lon="4.05293">
        <ele>1078.8848</ele>
        <time>2021-09-07T10:41:35</time>
      </trkpt>
      <trkpt lat="44.59876" lon="4.0529">
        <ele>1078.8848</ele>
        <time>2021-09-07T10:41:36</time>
      </trkpt>
      <trkpt lat="44.59874" lon="4.05288">
        <ele>1078.8848</ele>
        <time>2021-09-07T10:41:37</time>
      </trkpt>
      <trkpt lat="44.59868" lon="4.05281">
        <ele>1078.8848</ele>
        <time>2021-09-07T10:41:39</time>
      </trkpt>
      <trkpt lat="44.59862" lon="4.05276">
        <ele>1078.8848</ele>
        <time>2021-09-07T10:41:42</time>
      </trkpt>
      <trkpt lat="44.59856" lon="4.05276">
        <ele>1078.8848</ele>
        <time>2021-09-07T10:41:44</time>
      </trkpt>
      <trkpt lat="44.59852" lon="4.05277">
        <ele>1078.8848</ele>
        <time>2021-09-07T10:41:46</time>
      </trkpt>
      <trkpt lat="44.59847" lon="4.05279">
        <ele>1078.8848</ele>
        <time>2021-09-07T10:41:48</time>
      </trkpt>
      <trkpt lat="44.5978" lon="4.05298">
        <ele>1078.8848</ele>
        <time>2021-09-07T10:42:14</time>
      </trkpt>
      <trkpt lat="44.59771" lon="4.05303">
        <ele>1078.8848</ele>
        <time>2021-09-07T10:42:18</time>
      </trkpt>
      <trkpt lat="44.59764" lon="4.05308">
        <ele>1078.8848</ele>
        <time>2021-09-07T10:42:22</time>
      </trkpt>
      <trkpt lat="44.59743" lon="4.05332">
        <ele>1078.8848</ele>
        <time>2021-09-07T10:42:34</time>
      </trkpt>
      <trkpt lat="44.59731" lon="4.05349">
        <ele>1078.8848</ele>
        <time>2021-09-07T10:42:41</time>
      </trkpt>
      <trkpt lat="44.59727" lon="4.05354">
        <ele>1078.8848</ele>
        <time>2021-09-07T10:42:43</time>
      </trkpt>
      <trkpt lat="44.59692" lon="4.05403">
        <ele>1089.3848</ele>
        <time>2021-09-07T10:43:06</time>
      </trkpt>
      <trkpt lat="44.59679" lon="4.05434">
        <ele>1090.3848</ele>
        <time>2021-09-07T10:43:17</time>
      </trkpt>
      <trkpt lat="44.59654" lon="4.05489">
        <ele>1086.6847</ele>
        <time>2021-09-07T10:43:36</time>
      </trkpt>
      <trkpt lat="44.59651" lon="4.05495">
        <ele>1086.6847</ele>
        <time>2021-09-07T10:43:37</time>
      </trkpt>
      <trkpt lat="44.59649" lon="4.05497">
        <ele>1086.6847</ele>
        <time>2021-09-07T10:43:38</time>
      </trkpt>
      <trkpt lat="44.59641" lon="4.05502">
        <ele>1088.7847</ele>
        <time>2021-09-07T10:43:41</time>
      </trkpt>
      <trkpt lat="44.59638" lon="4.05503">
        <ele>1088.7847</ele>
        <time>2021-09-07T10:43:42</time>
      </trkpt>
      <trkpt lat="44.59632" lon="4.05503">
        <ele>1088.7847</ele>
        <time>2021-09-07T10:43:44</time>
      </trkpt>
      <trkpt lat="44.59629" lon="4.05502">
        <ele>1088.7847</ele>
        <time>2021-09-07T10:43:45</time>
      </trkpt>
      <trkpt lat="44.59626" lon="4.055">
        <ele>1088.7847</ele>
        <time>2021-09-07T10:43:46</time>
      </trkpt>
      <trkpt lat="44.59621" lon="4.05495">
        <ele>1088.7847</ele>
        <time>2021-09-07T10:43:48</time>
      </trkpt>
      <trkpt lat="44.59617" lon="4.05489">
        <ele>1090.3848</ele>
        <time>2021-09-07T10:43:50</time>
      </trkpt>
      <trkpt lat="44.59616" lon="4.05485">
        <ele>1090.3848</ele>
        <time>2021-09-07T10:43:51</time>
      </trkpt>
      <trkpt lat="44.59614" lon="4.05481">
        <ele>1090.3848</ele>
        <time>2021-09-07T10:43:52</time>
      </trkpt>
      <trkpt lat="44.59613" lon="4.05478">
        <ele>1090.3848</ele>
        <time>2021-09-07T10:43:53</time>
      </trkpt>
      <trkpt lat="44.59613" lon="4.05474">
        <ele>1090.3848</ele>
        <time>2021-09-07T10:43:55</time>
      </trkpt>
      <trkpt lat="44.59613" lon="4.05473">
        <ele>1094.8848</ele>
        <time>2021-09-07T10:44:20</time>
      </trkpt>
      <trkpt lat="44.59613" lon="4.05471">
        <ele>1094.8848</ele>
        <time>2021-09-07T10:44:21</time>
      </trkpt>
      <trkpt lat="44.59613" lon="4.05467">
        <ele>1094.8848</ele>
        <time>2021-09-07T10:44:23</time>
      </trkpt>
      <trkpt lat="44.59614" lon="4.05464">
        <ele>1094.8848</ele>
        <time>2021-09-07T10:44:24</time>
      </trkpt>
      <trkpt lat="44.59615" lon="4.05458">
        <ele>1094.8848</ele>
        <time>2021-09-07T10:44:26</time>
      </trkpt>
      <trkpt lat="44.59621" lon="4.05342">
        <ele>1094.9847</ele>
        <time>2021-09-07T10:44:59</time>
      </trkpt>
      <trkpt lat="44.59628" lon="4.05282">
        <ele>1096.1847</ele>
        <time>2021-09-07T10:45:21</time>
      </trkpt>
      <trkpt lat="44.59634" lon="4.05265">
        <ele>1098.7847</ele>
        <time>2021-09-07T10:45:28</time>
      </trkpt>
      <trkpt lat="44.59676" lon="4.05167">
        <ele>1117.0847</ele>
        <time>2021-09-07T10:45:58</time>
      </trkpt>
      <trkpt lat="44.59681" lon="4.05151">
        <ele>1120.4847</ele>
        <time>2021-09-07T10:46:03</time>
      </trkpt>
      <trkpt lat="44.59682" lon="4.05148">
        <ele>1120.4847</ele>
        <time>2021-09-07T10:46:04</time>
      </trkpt>
      <trkpt lat="44.59689" lon="4.05132">
        <ele>1120.4847</ele>
        <time>2021-09-07T10:46:10</time>
      </trkpt>
      <trkpt lat="44.59698" lon="4.05092">
        <ele>1118.5847</ele>
        <time>2021-09-07T10:46:24</time>
      </trkpt>
      <trkpt lat="44.597" lon="4.05071">
        <ele>1118.5847</ele>
        <time>2021-09-07T10:46:30</time>
      </trkpt>
      <trkpt lat="44.59701" lon="4.05053">
        <ele>1121.5847</ele>
        <time>2021-09-07T10:46:35</time>
      </trkpt>
      <trkpt lat="44.59701" lon="4.05029">
        <ele>1122.0847</ele>
        <time>2021-09-07T10:46:42</time>
      </trkpt>
      <trkpt lat="44.597" lon="4.04963">
        <ele>1122.0847</ele>
        <time>2021-09-07T10:46:58</time>
      </trkpt>
      <trkpt lat="44.597" lon="4.04955">
        <ele>1122.0847</ele>
        <time>2021-09-07T10:47:00</time>
      </trkpt>
      <trkpt lat="44.59703" lon="4.04947">
        <ele>1113.5847</ele>
        <time>2021-09-07T10:47:02</time>
      </trkpt>
      <trkpt lat="44.59707" lon="4.04938">
        <ele>1113.5847</ele>
        <time>2021-09-07T10:47:05</time>
      </trkpt>
      <trkpt lat="44.59715" lon="4.04928">
        <ele>1113.5847</ele>
        <time>2021-09-07T10:47:10</time>
      </trkpt>
      <trkpt lat="44.59736" lon="4.04907">
        <ele>1117.5847</ele>
        <time>2021-09-07T10:47:20</time>
      </trkpt>
      <trkpt lat="44.598" lon="4.04838">
        <ele>1130.4847</ele>
        <time>2021-09-07T10:47:50</time>
      </trkpt>
      <trkpt lat="44.59825" lon="4.04811">
        <ele>1124.3848</ele>
        <time>2021-09-07T10:48:02</time>
      </trkpt>
      <trkpt lat="44.59835" lon="4.04804">
        <ele>1124.3848</ele>
        <time>2021-09-07T10:48:06</time>
      </trkpt>
      <trkpt lat="44.59843" lon="4.048">
        <ele>1124.3848</ele>
        <time>2021-09-07T10:48:09</time>
      </trkpt>
      <trkpt lat="44.59863" lon="4.04795">
        <ele>1124.6847</ele>
        <time>2021-09-07T10:48:16</time>
      </trkpt>
      <trkpt lat="44.59915" lon="4.04788">
        <ele>1121.4847</ele>
        <time>2021-09-07T10:48:35</time>
      </trkpt>
      <trkpt lat="44.59927" lon="4.04781">
        <ele>1121.4847</ele>
        <time>2021-09-07T10:48:40</time>
      </trkpt>
      <trkpt lat="44.59934" lon="4.04775">
        <ele>1122.1847</ele>
        <time>2021-09-07T10:48:44</time>
      </trkpt>
      <trkpt lat="44.59942" lon="4.04766">
        <ele>1122.1847</ele>
        <time>2021-09-07T10:48:48</time>
      </trkpt>
      <trkpt lat="44.59954" lon="4.04748">
        <ele>1123.6847</ele>
        <time>2021-09-07T10:48:56</time>
      </trkpt>
      <trkpt lat="44.59961" lon="4.04729">
        <ele>1123.6847</ele>
        <time>2021-09-07T10:49:02</time>
      </trkpt>
      <trkpt lat="44.59963" lon="4.04715">
        <ele>1130.8848</ele>
        <time>2021-09-07T10:49:06</time>
      </trkpt>
      <trkpt lat="44.59964" lon="4.04702">
        <ele>1130.8848</ele>
        <time>2021-09-07T10:49:09</time>
      </trkpt>
      <trkpt lat="44.59964" lon="4.04679">
        <ele>1130.4847</ele>
        <time>2021-09-07T10:49:14</time>
      </trkpt>
      <trkpt lat="44.5996" lon="4.04567">
        <ele>1119.8848</ele>
        <time>2021-09-07T10:49:44</time>
      </trkpt>
      <trkpt lat="44.59958" lon="4.04466">
        <ele>1133.2847</ele>
        <time>2021-09-07T10:50:14</time>
      </trkpt>
      <trkpt lat="44.5996" lon="4.04455">
        <ele>1133.2847</ele>
        <time>2021-09-07T10:50:17</time>
      </trkpt>
      <trkpt lat="44.59963" lon="4.04449">
        <ele>1133.2847</ele>
        <time>2021-09-07T10:50:19</time>
      </trkpt>
      <trkpt lat="44.59968" lon="4.04445">
        <ele>1133.2847</ele>
        <time>2021-09-07T10:50:21</time>
      </trkpt>
      <trkpt lat="44.59973" lon="4.04441">
        <ele>1131.0847</ele>
        <time>2021-09-07T10:50:23</time>
      </trkpt>
      <trkpt lat="44.59978" lon="4.04439">
        <ele>1131.0847</ele>
        <time>2021-09-07T10:50:25</time>
      </trkpt>
      <trkpt lat="44.59981" lon="4.04439">
        <ele>1131.0847</ele>
        <time>2021-09-07T10:50:26</time>
      </trkpt>
      <trkpt lat="44.59989" lon="4.0444">
        <ele>1131.0847</ele>
        <time>2021-09-07T10:50:29</time>
      </trkpt>
      <trkpt lat="44.59997" lon="4.04443">
        <ele>1131.0847</ele>
        <time>2021-09-07T10:50:32</time>
      </trkpt>
      <trkpt lat="44.60002" lon="4.04447">
        <ele>1136.4181</ele>
        <time>2021-09-07T10:50:34</time>
      </trkpt>
      <trkpt lat="44.60004" lon="4.04449">
        <ele>1136.4181</ele>
        <time>2021-09-07T10:50:35</time>
      </trkpt>
      <trkpt lat="44.60005" lon="4.04451">
        <ele>1136.4181</ele>
        <time>2021-09-07T10:50:36</time>
      </trkpt>
      <trkpt lat="44.60008" lon="4.0446">
        <ele>1136.4181</ele>
        <time>2021-09-07T10:50:40</time>
      </trkpt>
      <trkpt lat="44.60016" lon="4.04494">
        <ele>1135.3848</ele>
        <time>2021-09-07T10:50:54</time>
      </trkpt>
      <trkpt lat="44.60025" lon="4.04537">
        <ele>1138.0847</ele>
        <time>2021-09-07T10:51:11</time>
      </trkpt>
      <trkpt lat="44.60025" lon="4.04542">
        <ele>1139.9847</ele>
        <time>2021-09-07T10:51:13</time>
      </trkpt>
      <trkpt lat="44.60039" lon="4.046">
        <ele>1135.8848</ele>
        <time>2021-09-07T10:51:34</time>
      </trkpt>
      <trkpt lat="44.60062" lon="4.04691">
        <ele>1140.4847</ele>
        <time>2021-09-07T10:52:04</time>
      </trkpt>
      <trkpt lat="44.60072" lon="4.04723">
        <ele>1140.0847</ele>
        <time>2021-09-07T10:52:14</time>
      </trkpt>
      <trkpt lat="44.60087" lon="4.04808">
        <ele>1151.1847</ele>
        <time>2021-09-07T10:52:42</time>
      </trkpt>
      <trkpt lat="44.6009" lon="4.04838">
        <ele>1151.4847</ele>
        <time>2021-09-07T10:52:51</time>
      </trkpt>
      <trkpt lat="44.60091" lon="4.04848">
        <ele>1152.5847</ele>
        <time>2021-09-07T10:52:54</time>
      </trkpt>
      <trkpt lat="44.60092" lon="4.04852">
        <ele>1152.5847</ele>
        <time>2021-09-07T10:52:55</time>
      </trkpt>
      <trkpt lat="44.60092" lon="4.04856">
        <ele>1152.5847</ele>
        <time>2021-09-07T10:52:56</time>
      </trkpt>
      <trkpt lat="44.60092" lon="4.04889">
        <ele>1152.9847</ele>
        <time>2021-09-07T10:53:04</time>
      </trkpt>
      <trkpt lat="44.60084" lon="4.0497">
        <ele>1163.7847</ele>
        <time>2021-09-07T10:53:29</time>
      </trkpt>
      <trkpt lat="44.60082" lon="4.04976">
        <ele>1163.7847</ele>
        <time>2021-09-07T10:53:31</time>
      </trkpt>
      <trkpt lat="44.60081" lon="4.04981">
        <ele>1163.7847</ele>
        <time>2021-09-07T10:53:33</time>
      </trkpt>
      <trkpt lat="44.6008" lon="4.04985">
        <ele>1163.7847</ele>
        <time>2021-09-07T10:53:34</time>
      </trkpt>
      <trkpt lat="44.6008" lon="4.04989">
        <ele>1163.7847</ele>
        <time>2021-09-07T10:53:35</time>
      </trkpt>
      <trkpt lat="44.6008" lon="4.04993">
        <ele>1163.7847</ele>
        <time>2021-09-07T10:53:36</time>
      </trkpt>
      <trkpt lat="44.60079" lon="4.05007">
        <ele>1163.7847</ele>
        <time>2021-09-07T10:53:40</time>
      </trkpt>
      <trkpt lat="44.60079" lon="4.05026">
        <ele>1165.8848</ele>
        <time>2021-09-07T10:53:46</time>
      </trkpt>
      <trkpt lat="44.60083" lon="4.05054">
        <ele>1167.3848</ele>
        <time>2021-09-07T10:53:56</time>
      </trkpt>
      <trkpt lat="44.60084" lon="4.05057">
        <ele>1167.3848</ele>
        <time>2021-09-07T10:53:57</time>
      </trkpt>
      <trkpt lat="44.60086" lon="4.05062">
        <ele>1167.3848</ele>
        <time>2021-09-07T10:53:59</time>
      </trkpt>
      <trkpt lat="44.60088" lon="4.05068">
        <ele>1167.3848</ele>
        <time>2021-09-07T10:54:01</time>
      </trkpt>
      <trkpt lat="44.6009" lon="4.05073">
        <ele>1167.3848</ele>
        <time>2021-09-07T10:54:03</time>
      </trkpt>
      <trkpt lat="44.60097" lon="4.05086">
        <ele>1169.9847</ele>
        <time>2021-09-07T10:54:08</time>
      </trkpt>
      <trkpt lat="44.60101" lon="4.05095">
        <ele>1169.9847</ele>
        <time>2021-09-07T10:54:11</time>
      </trkpt>
      <trkpt lat="44.60111" lon="4.05114">
        <ele>1173.4847</ele>
        <time>2021-09-07T10:54:18</time>
      </trkpt>
      <trkpt lat="44.60114" lon="4.0512">
        <ele>1173.4847</ele>
        <time>2021-09-07T10:54:20</time>
      </trkpt>
      <trkpt lat="44.60136" lon="4.05162">
        <ele>1173.4847</ele>
        <time>2021-09-07T10:54:37</time>
      </trkpt>
      <trkpt lat="44.60137" lon="4.05164">
        <ele>1173.4847</ele>
        <time>2021-09-07T10:54:38</time>
      </trkpt>
      <trkpt lat="44.60164" lon="4.0521">
        <ele>1173.4847</ele>
        <time>2021-09-07T10:54:57</time>
      </trkpt>
      <trkpt lat="44.60166" lon="4.05218">
        <ele>1173.4847</ele>
        <time>2021-09-07T10:55:00</time>
      </trkpt>
      <trkpt lat="44.60167" lon="4.0522">
        <ele>1173.4847</ele>
        <time>2021-09-07T10:55:01</time>
      </trkpt>
      <trkpt lat="44.60196" lon="4.05257">
        <ele>1173.4847</ele>
        <time>2021-09-07T10:55:19</time>
      </trkpt>
      <trkpt lat="44.60203" lon="4.05265">
        <ele>1173.4847</ele>
        <time>2021-09-07T10:55:23</time>
      </trkpt>
      <trkpt lat="44.60213" lon="4.05274">
        <ele>1173.4847</ele>
        <time>2021-09-07T10:55:29</time>
      </trkpt>
      <trkpt lat="44.60219" lon="4.05278">
        <ele>1173.4847</ele>
        <time>2021-09-07T10:55:32</time>
      </trkpt>
      <trkpt lat="44.60232" lon="4.05288">
        <ele>1173.4847</ele>
        <time>2021-09-07T10:55:39</time>
      </trkpt>
      <trkpt lat="44.60261" lon="4.05305">
        <ele>1173.4847</ele>
        <time>2021-09-07T10:55:53</time>
      </trkpt>
      <trkpt lat="44.60267" lon="4.0531">
        <ele>1173.4847</ele>
        <time>2021-09-07T10:55:56</time>
      </trkpt>
      <trkpt lat="44.60272" lon="4.05316">
        <ele>1173.4847</ele>
        <time>2021-09-07T10:55:58</time>
      </trkpt>
      <trkpt lat="44.60273" lon="4.05319">
        <ele>1173.4847</ele>
        <time>2021-09-07T10:55:59</time>
      </trkpt>
      <trkpt lat="44.60274" lon="4.05323">
        <ele>1173.4847</ele>
        <time>2021-09-07T10:56:00</time>
      </trkpt>
      <trkpt lat="44.60275" lon="4.05326">
        <ele>1173.4847</ele>
        <time>2021-09-07T10:56:01</time>
      </trkpt>
      <trkpt lat="44.60278" lon="4.0534">
        <ele>1173.4847</ele>
        <time>2021-09-07T10:56:05</time>
      </trkpt>
      <trkpt lat="44.60278" lon="4.05355">
        <ele>1173.4847</ele>
        <time>2021-09-07T10:56:10</time>
      </trkpt>
      <trkpt lat="44.60277" lon="4.05373">
        <ele>1173.4847</ele>
        <time>2021-09-07T10:56:16</time>
      </trkpt>
      <trkpt lat="44.60276" lon="4.05418">
        <ele>1173.4847</ele>
        <time>2021-09-07T10:56:32</time>
      </trkpt>
      <trkpt lat="44.60281" lon="4.05455">
        <ele>1173.4847</ele>
        <time>2021-09-07T10:56:46</time>
      </trkpt>
      <trkpt lat="44.60287" lon="4.05483">
        <ele>1173.4847</ele>
        <time>2021-09-07T10:56:53</time>
      </trkpt>
      <trkpt lat="44.60288" lon="4.05486">
        <ele>1173.4847</ele>
        <time>2021-09-07T10:56:54</time>
      </trkpt>
      <trkpt lat="44.60308" lon="4.05568">
        <ele>1173.4847</ele>
        <time>2021-09-07T10:57:24</time>
      </trkpt>
      <trkpt lat="44.60308" lon="4.0557">
        <ele>1173.4847</ele>
        <time>2021-09-07T10:57:25</time>
      </trkpt>
      <trkpt lat="44.60312" lon="4.05597">
        <ele>1173.4847</ele>
        <time>2021-09-07T10:57:36</time>
      </trkpt>
      <trkpt lat="44.60313" lon="4.05601">
        <ele>1173.4847</ele>
        <time>2021-09-07T10:57:38</time>
      </trkpt>
      <trkpt lat="44.60314" lon="4.05604">
        <ele>1173.4847</ele>
        <time>2021-09-07T10:57:39</time>
      </trkpt>
      <trkpt lat="44.60318" lon="4.05619">
        <ele>1173.4847</ele>
        <time>2021-09-07T10:57:44</time>
      </trkpt>
      <trkpt lat="44.60321" lon="4.05627">
        <ele>1173.4847</ele>
        <time>2021-09-07T10:57:47</time>
      </trkpt>
      <trkpt lat="44.60328" lon="4.05642">
        <ele>1173.4847</ele>
        <time>2021-09-07T10:57:54</time>
      </trkpt>
      <trkpt lat="44.60344" lon="4.05661">
        <ele>1173.4847</ele>
        <time>2021-09-07T10:58:04</time>
      </trkpt>
      <trkpt lat="44.60349" lon="4.05664">
        <ele>1173.4847</ele>
        <time>2021-09-07T10:58:06</time>
      </trkpt>
      <trkpt lat="44.60385" lon="4.05682">
        <ele>1173.4847</ele>
        <time>2021-09-07T10:58:23</time>
      </trkpt>
      <trkpt lat="44.60444" lon="4.05712">
        <ele>1173.4847</ele>
        <time>2021-09-07T10:58:48</time>
      </trkpt>
      <trkpt lat="44.60449" lon="4.05714">
        <ele>1173.4847</ele>
        <time>2021-09-07T10:58:50</time>
      </trkpt>
      <trkpt lat="44.60478" lon="4.05724">
        <ele>1173.4847</ele>
        <time>2021-09-07T10:59:05</time>
      </trkpt>
      <trkpt lat="44.6052" lon="4.0573">
        <ele>1173.4847</ele>
        <time>2021-09-07T10:59:27</time>
      </trkpt>
      <trkpt lat="44.60535" lon="4.05735">
        <ele>1173.4847</ele>
        <time>2021-09-07T10:59:35</time>
      </trkpt>
      <trkpt lat="44.60557" lon="4.05753">
        <ele>1173.4847</ele>
        <time>2021-09-07T10:59:49</time>
      </trkpt>
      <trkpt lat="44.60568" lon="4.05767">
        <ele>1173.4847</ele>
        <time>2021-09-07T10:59:57</time>
      </trkpt>
      <trkpt lat="44.60572" lon="4.05777">
        <ele>1173.4847</ele>
        <time>2021-09-07T11:00:01</time>
      </trkpt>
      <trkpt lat="44.60576" lon="4.05792">
        <ele>1173.4847</ele>
        <time>2021-09-07T11:00:07</time>
      </trkpt>
      <trkpt lat="44.60576" lon="4.05795">
        <ele>1173.4847</ele>
        <time>2021-09-07T11:00:08</time>
      </trkpt>
      <trkpt lat="44.60576" lon="4.05806">
        <ele>1173.4847</ele>
        <time>2021-09-07T11:00:11</time>
      </trkpt>
      <trkpt lat="44.60576" lon="4.0581">
        <ele>1173.4847</ele>
        <time>2021-09-07T11:00:12</time>
      </trkpt>
      <trkpt lat="44.60575" lon="4.05812">
        <ele>1173.4847</ele>
        <time>2021-09-07T11:00:13</time>
      </trkpt>
      <trkpt lat="44.60571" lon="4.05821">
        <ele>1173.4847</ele>
        <time>2021-09-07T11:00:17</time>
      </trkpt>
      <trkpt lat="44.60523" lon="4.05879">
        <ele>1173.4847</ele>
        <time>2021-09-07T11:00:47</time>
      </trkpt>
      <trkpt lat="44.60517" lon="4.05887">
        <ele>1173.4847</ele>
        <time>2021-09-07T11:00:51</time>
      </trkpt>
      <trkpt lat="44.6051" lon="4.05899">
        <ele>1226.9847</ele>
        <time>2021-09-07T11:00:56</time>
      </trkpt>
      <trkpt lat="44.60509" lon="4.05901">
        <ele>1226.9847</ele>
        <time>2021-09-07T11:00:57</time>
      </trkpt>
      <trkpt lat="44.60503" lon="4.05911">
        <ele>1226.9847</ele>
        <time>2021-09-07T11:01:02</time>
      </trkpt>
      <trkpt lat="44.60499" lon="4.05918">
        <ele>1223.0847</ele>
        <time>2021-09-07T11:01:05</time>
      </trkpt>
      <trkpt lat="44.60484" lon="4.05949">
        <ele>1225.3848</ele>
        <time>2021-09-07T11:01:19</time>
      </trkpt>
      <trkpt lat="44.60483" lon="4.05954">
        <ele>1225.3848</ele>
        <time>2021-09-07T11:01:21</time>
      </trkpt>
      <trkpt lat="44.60476" lon="4.05971">
        <ele>1229.1847</ele>
        <time>2021-09-07T11:01:28</time>
      </trkpt>
      <trkpt lat="44.60473" lon="4.05977">
        <ele>1229.1847</ele>
        <time>2021-09-07T11:01:31</time>
      </trkpt>
      <trkpt lat="44.60459" lon="4.06">
        <ele>1227.1847</ele>
        <time>2021-09-07T11:01:42</time>
      </trkpt>
      <trkpt lat="44.6045" lon="4.06009">
        <ele>1232.0847</ele>
        <time>2021-09-07T11:01:47</time>
      </trkpt>
      <trkpt lat="44.60448" lon="4.0601">
        <ele>1232.0847</ele>
        <time>2021-09-07T11:01:48</time>
      </trkpt>
      <trkpt lat="44.60445" lon="4.06013">
        <ele>1232.0847</ele>
        <time>2021-09-07T11:01:50</time>
      </trkpt>
      <trkpt lat="44.60436" lon="4.06022">
        <ele>1229.9847</ele>
        <time>2021-09-07T11:01:56</time>
      </trkpt>
      <trkpt lat="44.60385" lon="4.06063">
        <ele>1236.0847</ele>
        <time>2021-09-07T11:02:25</time>
      </trkpt>
      <trkpt lat="44.60382" lon="4.06066">
        <ele>1236.0847</ele>
        <time>2021-09-07T11:02:27</time>
      </trkpt>
      <trkpt lat="44.60358" lon="4.06088">
        <ele>1238.8848</ele>
        <time>2021-09-07T11:02:40</time>
      </trkpt>
      <trkpt lat="44.60346" lon="4.06102">
        <ele>1238.8848</ele>
        <time>2021-09-07T11:02:47</time>
      </trkpt>
      <trkpt lat="44.6034" lon="4.06113">
        <ele>1238.8848</ele>
        <time>2021-09-07T11:02:52</time>
      </trkpt>
      <trkpt lat="44.60339" lon="4.06116">
        <ele>1238.8848</ele>
        <time>2021-09-07T11:02:53</time>
      </trkpt>
      <trkpt lat="44.60333" lon="4.06136">
        <ele>1238.8848</ele>
        <time>2021-09-07T11:03:00</time>
      </trkpt>
      <trkpt lat="44.6033" lon="4.06155">
        <ele>1238.8848</ele>
        <time>2021-09-07T11:03:07</time>
      </trkpt>
      <trkpt lat="44.6033" lon="4.06165">
        <ele>1238.8848</ele>
        <time>2021-09-07T11:03:11</time>
      </trkpt>
      <trkpt lat="44.6033" lon="4.0617">
        <ele>1238.8848</ele>
        <time>2021-09-07T11:03:14</time>
      </trkpt>
      <trkpt lat="44.60334" lon="4.06189">
        <ele>1238.8848</ele>
        <time>2021-09-07T11:03:23</time>
      </trkpt>
      <trkpt lat="44.60335" lon="4.06192">
        <ele>1238.8848</ele>
        <time>2021-09-07T11:03:24</time>
      </trkpt>
      <trkpt lat="44.60339" lon="4.06219">
        <ele>1238.8848</ele>
        <time>2021-09-07T11:03:32</time>
      </trkpt>
      <trkpt lat="44.60348" lon="4.0628">
        <ele>1238.8848</ele>
        <time>2021-09-07T11:03:53</time>
      </trkpt>
      <trkpt lat="44.60351" lon="4.06293">
        <ele>1238.8848</ele>
        <time>2021-09-07T11:03:58</time>
      </trkpt>
      <trkpt lat="44.60353" lon="4.06298">
        <ele>1238.8848</ele>
        <time>2021-09-07T11:04:00</time>
      </trkpt>
      <trkpt lat="44.6036" lon="4.06313">
        <ele>1238.8848</ele>
        <time>2021-09-07T11:04:05</time>
      </trkpt>
      <trkpt lat="44.60363" lon="4.06321">
        <ele>1238.8848</ele>
        <time>2021-09-07T11:04:07</time>
      </trkpt>
      <trkpt lat="44.60368" lon="4.06331">
        <ele>1238.8848</ele>
        <time>2021-09-07T11:04:10</time>
      </trkpt>
      <trkpt lat="44.60374" lon="4.0634">
        <ele>1238.8848</ele>
        <time>2021-09-07T11:04:14</time>
      </trkpt>
      <trkpt lat="44.6038" lon="4.06349">
        <ele>1238.8848</ele>
        <time>2021-09-07T11:04:19</time>
      </trkpt>
      <trkpt lat="44.60382" lon="4.06352">
        <ele>1238.8848</ele>
        <time>2021-09-07T11:04:21</time>
      </trkpt>
      <trkpt lat="44.6039" lon="4.06367">
        <ele>1238.8848</ele>
        <time>2021-09-07T11:04:28</time>
      </trkpt>
      <trkpt lat="44.60402" lon="4.06394">
        <ele>1238.8848</ele>
        <time>2021-09-07T11:04:39</time>
      </trkpt>
      <trkpt lat="44.60404" lon="4.06398">
        <ele>1238.8848</ele>
        <time>2021-09-07T11:04:41</time>
      </trkpt>
      <trkpt lat="44.60407" lon="4.06405">
        <ele>1238.8848</ele>
        <time>2021-09-07T11:04:44</time>
      </trkpt>
      <trkpt lat="44.6041" lon="4.06409">
        <ele>1254.6514</ele>
        <time>2021-09-07T11:04:47</time>
      </trkpt>
      <trkpt lat="44.60422" lon="4.06447">
        <ele>1255.9847</ele>
        <time>2021-09-07T11:05:04</time>
      </trkpt>
      <trkpt lat="44.60424" lon="4.06452">
        <ele>1257.9181</ele>
        <time>2021-09-07T11:05:06</time>
      </trkpt>
      <trkpt lat="44.60427" lon="4.06464">
        <ele>1257.9181</ele>
        <time>2021-09-07T11:05:10</time>
      </trkpt>
      <trkpt lat="44.60428" lon="4.06473">
        <ele>1257.9181</ele>
        <time>2021-09-07T11:05:13</time>
      </trkpt>
      <trkpt lat="44.60432" lon="4.06514">
        <ele>1257.9181</ele>
        <time>2021-09-07T11:05:27</time>
      </trkpt>
      <trkpt lat="44.60438" lon="4.06541">
        <ele>1257.9181</ele>
        <time>2021-09-07T11:05:36</time>
      </trkpt>
      <trkpt lat="44.60439" lon="4.06544">
        <ele>1257.9181</ele>
        <time>2021-09-07T11:05:37</time>
      </trkpt>
      <trkpt lat="44.6045" lon="4.06568">
        <ele>1257.9181</ele>
        <time>2021-09-07T11:05:48</time>
      </trkpt>
      <trkpt lat="44.60458" lon="4.06583">
        <ele>1257.9181</ele>
        <time>2021-09-07T11:05:55</time>
      </trkpt>
      <trkpt lat="44.60467" lon="4.06619">
        <ele>1257.9181</ele>
        <time>2021-09-07T11:06:10</time>
      </trkpt>
      <trkpt lat="44.60482" lon="4.06669">
        <ele>1257.9181</ele>
        <time>2021-09-07T11:06:30</time>
      </trkpt>
      <trkpt lat="44.60488" lon="4.06695">
        <ele>1257.9181</ele>
        <time>2021-09-07T11:06:42</time>
      </trkpt>
      <trkpt lat="44.60488" lon="4.06703">
        <ele>1257.9181</ele>
        <time>2021-09-07T11:06:45</time>
      </trkpt>
      <trkpt lat="44.60491" lon="4.06721">
        <ele>1257.9181</ele>
        <time>2021-09-07T11:06:53</time>
      </trkpt>
      <trkpt lat="44.60492" lon="4.06733">
        <ele>1257.9181</ele>
        <time>2021-09-07T11:06:57</time>
      </trkpt>
      <trkpt lat="44.60493" lon="4.06741">
        <ele>1257.9181</ele>
        <time>2021-09-07T11:07:00</time>
      </trkpt>
      <trkpt lat="44.60491" lon="4.06773">
        <ele>1257.9181</ele>
        <time>2021-09-07T11:07:11</time>
      </trkpt>
      <trkpt lat="44.60489" lon="4.06785">
        <ele>1257.9181</ele>
        <time>2021-09-07T11:07:15</time>
      </trkpt>
      <trkpt lat="44.60486" lon="4.06825">
        <ele>1257.9181</ele>
        <time>2021-09-07T11:07:30</time>
      </trkpt>
      <trkpt lat="44.60487" lon="4.06832">
        <ele>1257.9181</ele>
        <time>2021-09-07T11:07:33</time>
      </trkpt>
      <trkpt lat="44.60487" lon="4.06835">
        <ele>1257.9181</ele>
        <time>2021-09-07T11:07:34</time>
      </trkpt>
      <trkpt lat="44.60491" lon="4.06916">
        <ele>1257.9181</ele>
        <time>2021-09-07T11:08:04</time>
      </trkpt>
      <trkpt lat="44.60494" lon="4.06928">
        <ele>1257.9181</ele>
        <time>2021-09-07T11:08:09</time>
      </trkpt>
      <trkpt lat="44.60505" lon="4.06969">
        <ele>1257.9181</ele>
        <time>2021-09-07T11:08:22</time>
      </trkpt>
      <trkpt lat="44.60515" lon="4.06995">
        <ele>1257.9181</ele>
        <time>2021-09-07T11:08:32</time>
      </trkpt>
      <trkpt lat="44.60518" lon="4.07002">
        <ele>1257.9181</ele>
        <time>2021-09-07T11:08:35</time>
      </trkpt>
      <trkpt lat="44.6052" lon="4.07007">
        <ele>1257.9181</ele>
        <time>2021-09-07T11:08:37</time>
      </trkpt>
      <trkpt lat="44.60524" lon="4.07014">
        <ele>1257.9181</ele>
        <time>2021-09-07T11:08:40</time>
      </trkpt>
      <trkpt lat="44.60528" lon="4.07027">
        <ele>1257.9181</ele>
        <time>2021-09-07T11:08:46</time>
      </trkpt>
      <trkpt lat="44.60529" lon="4.0703">
        <ele>1257.9181</ele>
        <time>2021-09-07T11:08:47</time>
      </trkpt>
      <trkpt lat="44.60538" lon="4.07078">
        <ele>1257.9181</ele>
        <time>2021-09-07T11:09:08</time>
      </trkpt>
      <trkpt lat="44.60538" lon="4.07109">
        <ele>1257.9181</ele>
        <time>2021-09-07T11:09:19</time>
      </trkpt>
      <trkpt lat="44.60532" lon="4.07185">
        <ele>1257.9181</ele>
        <time>2021-09-07T11:09:43</time>
      </trkpt>
      <trkpt lat="44.60534" lon="4.07198">
        <ele>1257.9181</ele>
        <time>2021-09-07T11:09:48</time>
      </trkpt>
      <trkpt lat="44.60535" lon="4.07207">
        <ele>1257.9181</ele>
        <time>2021-09-07T11:09:51</time>
      </trkpt>
      <trkpt lat="44.6054" lon="4.07236">
        <ele>1257.9181</ele>
        <time>2021-09-07T11:10:03</time>
      </trkpt>
      <trkpt lat="44.60542" lon="4.07238">
        <ele>1257.9181</ele>
        <time>2021-09-07T11:10:05</time>
      </trkpt>
      <trkpt lat="44.60544" lon="4.07241">
        <ele>1257.9181</ele>
        <time>2021-09-07T11:10:07</time>
      </trkpt>
      <trkpt lat="44.60553" lon="4.07259">
        <ele>1257.9181</ele>
        <time>2021-09-07T11:10:15</time>
      </trkpt>
      <trkpt lat="44.60557" lon="4.07265">
        <ele>1257.9181</ele>
        <time>2021-09-07T11:10:19</time>
      </trkpt>
      <trkpt lat="44.60558" lon="4.07267">
        <ele>1257.9181</ele>
        <time>2021-09-07T11:10:20</time>
      </trkpt>
      <trkpt lat="44.60565" lon="4.0728">
        <ele>1257.9181</ele>
        <time>2021-09-07T11:10:27</time>
      </trkpt>
      <trkpt lat="44.6057" lon="4.0729">
        <ele>1257.9181</ele>
        <time>2021-09-07T11:10:32</time>
      </trkpt>
      <trkpt lat="44.60572" lon="4.07291">
        <ele>1257.9181</ele>
        <time>2021-09-07T11:10:33</time>
      </trkpt>
      <trkpt lat="44.60573" lon="4.07292">
        <ele>1257.9181</ele>
        <time>2021-09-07T11:10:34</time>
      </trkpt>
      <trkpt lat="44.60575" lon="4.07294">
        <ele>1257.9181</ele>
        <time>2021-09-07T11:10:35</time>
      </trkpt>
      <trkpt lat="44.60576" lon="4.07296">
        <ele>1257.9181</ele>
        <time>2021-09-07T11:10:36</time>
      </trkpt>
      <trkpt lat="44.60603" lon="4.07343">
        <ele>1257.9181</ele>
        <time>2021-09-07T11:10:55</time>
      </trkpt>
      <trkpt lat="44.60613" lon="4.07355">
        <ele>1257.9181</ele>
        <time>2021-09-07T11:11:00</time>
      </trkpt>
      <trkpt lat="44.60618" lon="4.07361">
        <ele>1257.9181</ele>
        <time>2021-09-07T11:11:03</time>
      </trkpt>
      <trkpt lat="44.60628" lon="4.07373">
        <ele>1257.9181</ele>
        <time>2021-09-07T11:11:09</time>
      </trkpt>
      <trkpt lat="44.60646" lon="4.07392">
        <ele>1257.9181</ele>
        <time>2021-09-07T11:11:19</time>
      </trkpt>
      <trkpt lat="44.60649" lon="4.07396">
        <ele>1257.9181</ele>
        <time>2021-09-07T11:11:21</time>
      </trkpt>
      <trkpt lat="44.60665" lon="4.07412">
        <ele>1257.9181</ele>
        <time>2021-09-07T11:11:30</time>
      </trkpt>
      <trkpt lat="44.60667" lon="4.07413">
        <ele>1257.9181</ele>
        <time>2021-09-07T11:11:31</time>
      </trkpt>
      <trkpt lat="44.60677" lon="4.07422">
        <ele>1257.9181</ele>
        <time>2021-09-07T11:11:37</time>
      </trkpt>
      <trkpt lat="44.60679" lon="4.07423">
        <ele>1257.9181</ele>
        <time>2021-09-07T11:11:38</time>
      </trkpt>
      <trkpt lat="44.60685" lon="4.07431">
        <ele>1257.9181</ele>
        <time>2021-09-07T11:11:46</time>
      </trkpt>
      <trkpt lat="44.60685" lon="4.07431">
        <ele>1257.9181</ele>
        <time>2021-09-07T11:12:16</time>
      </trkpt>
      <trkpt lat="44.60686" lon="4.07433">
        <ele>1257.9181</ele>
        <time>2021-09-07T11:12:21</time>
      </trkpt>
      <trkpt lat="44.60685" lon="4.0743">
        <ele>1257.9181</ele>
        <time>2021-09-07T11:12:41</time>
      </trkpt>
      <trkpt lat="44.60685" lon="4.07431">
        <ele>1257.9181</ele>
        <time>2021-09-07T11:12:42</time>
      </trkpt>
      <trkpt lat="44.60684" lon="4.07429">
        <ele>1318.2847</ele>
        <time>2021-09-07T11:13:12</time>
      </trkpt>
      <trkpt lat="44.60684" lon="4.07429">
        <ele>1318.2847</ele>
        <time>2021-09-07T11:13:49</time>
      </trkpt>
      <trkpt lat="44.60684" lon="4.07429">
        <ele>1318.2847</ele>
        <time>2021-09-07T11:13:55</time>
      </trkpt>
      <trkpt lat="44.60682" lon="4.07429">
        <ele>1317.0847</ele>
        <time>2021-09-07T11:13:59</time>
      </trkpt>
      <trkpt lat="44.60681" lon="4.07437">
        <ele>1317.0847</ele>
        <time>2021-09-07T11:14:25</time>
      </trkpt>
      <trkpt lat="44.60679" lon="4.07438">
        <ele>1317.0847</ele>
        <time>2021-09-07T11:14:31</time>
      </trkpt>
      <trkpt lat="44.60679" lon="4.07438">
        <ele>1317.0847</ele>
        <time>2021-09-07T11:14:33</time>
      </trkpt>
      <trkpt lat="44.60678" lon="4.07439">
        <ele>1317.0847</ele>
        <time>2021-09-07T11:14:37</time>
      </trkpt>
      <trkpt lat="44.60679" lon="4.07437">
        <ele>1317.0847</ele>
        <time>2021-09-07T11:15:12</time>
      </trkpt>
      <trkpt lat="44.60679" lon="4.07436">
        <ele>1317.0847</ele>
        <time>2021-09-07T11:15:15</time>
      </trkpt>
      <trkpt lat="44.60679" lon="4.07436">
        <ele>1317.0847</ele>
        <time>2021-09-07T11:15:16</time>
      </trkpt>
      <trkpt lat="44.60679" lon="4.07435">
        <ele>1311.5847</ele>
        <time>2021-09-07T11:15:17</time>
      </trkpt>
      <trkpt lat="44.60681" lon="4.07436">
        <ele>1307.818</ele>
        <time>2021-09-07T11:15:33</time>
      </trkpt>
      <trkpt lat="44.60684" lon="4.07439">
        <ele>1313.5847</ele>
        <time>2021-09-07T11:15:37</time>
      </trkpt>
      <trkpt lat="44.60683" lon="4.07439">
        <ele>1315.4847</ele>
        <time>2021-09-07T11:16:07</time>
      </trkpt>
      <trkpt lat="44.60683" lon="4.07439">
        <ele>1315.4847</ele>
        <time>2021-09-07T11:16:11</time>
      </trkpt>
      <trkpt lat="44.60683" lon="4.07439">
        <ele>1315.4847</ele>
        <time>2021-09-07T11:16:12</time>
      </trkpt>
      <trkpt lat="44.60683" lon="4.07436">
        <ele>1315.3848</ele>
        <time>2021-09-07T11:16:37</time>
      </trkpt>
      <trkpt lat="44.60683" lon="4.07437">
        <ele>1315.3848</ele>
        <time>2021-09-07T11:16:38</time>
      </trkpt>
      <trkpt lat="44.60682" lon="4.07438">
        <ele>1315.3848</ele>
        <time>2021-09-07T11:17:15</time>
      </trkpt>
      <trkpt lat="44.60682" lon="4.07437">
        <ele>1317.3848</ele>
        <time>2021-09-07T11:17:50</time>
      </trkpt>
      <trkpt lat="44.60682" lon="4.07438">
        <ele>1317.3848</ele>
        <time>2021-09-07T11:18:02</time>
      </trkpt>
      <trkpt lat="44.60683" lon="4.07439">
        <ele>1317.3848</ele>
        <time>2021-09-07T11:18:03</time>
      </trkpt>
      <trkpt lat="44.60682" lon="4.07438">
        <ele>1317.2847</ele>
        <time>2021-09-07T11:18:33</time>
      </trkpt>
      <trkpt lat="44.60682" lon="4.07438">
        <ele>1317.2847</ele>
        <time>2021-09-07T11:18:52</time>
      </trkpt>
      <trkpt lat="44.60681" lon="4.07437">
        <ele>1317.2847</ele>
        <time>2021-09-07T11:18:53</time>
      </trkpt>
      <trkpt lat="44.6068" lon="4.07436">
        <ele>1317.2847</ele>
        <time>2021-09-07T11:18:54</time>
      </trkpt>
      <trkpt lat="44.60679" lon="4.07435">
        <ele>1317.2847</ele>
        <time>2021-09-07T11:18:56</time>
      </trkpt>
      <trkpt lat="44.60678" lon="4.07432">
        <ele>1315.0847</ele>
        <time>2021-09-07T11:18:59</time>
      </trkpt>
      <trkpt lat="44.60676" lon="4.0743">
        <ele>1321.7847</ele>
        <time>2021-09-07T11:19:29</time>
      </trkpt>
      <trkpt lat="44.60676" lon="4.0743">
        <ele>1322.2847</ele>
        <time>2021-09-07T11:20:01</time>
      </trkpt>
      <trkpt lat="44.60676" lon="4.0743">
        <ele>1322.0847</ele>
        <time>2021-09-07T11:20:46</time>
      </trkpt>
      <trkpt lat="44.60676" lon="4.07429">
        <ele>1322.3848</ele>
        <time>2021-09-07T11:20:48</time>
      </trkpt>
      <trkpt lat="44.60604" lon="4.07341">
        <ele>1322.8848</ele>
        <time>2021-09-07T11:21:05</time>
      </trkpt>
      <trkpt lat="44.60585" lon="4.07309">
        <ele>1322.8848</ele>
        <time>2021-09-07T11:21:09</time>
      </trkpt>
      <trkpt lat="44.60555" lon="4.07245">
        <ele>1322.8848</ele>
        <time>2021-09-07T11:21:19</time>
      </trkpt>
      <trkpt lat="44.60549" lon="4.07237">
        <ele>1322.8848</ele>
        <time>2021-09-07T11:21:21</time>
      </trkpt>
      <trkpt lat="44.60542" lon="4.07223">
        <ele>1322.8848</ele>
        <time>2021-09-07T11:21:24</time>
      </trkpt>
      <trkpt lat="44.60538" lon="4.07213">
        <ele>1322.8848</ele>
        <time>2021-09-07T11:21:26</time>
      </trkpt>
      <trkpt lat="44.60536" lon="4.07199">
        <ele>1322.8848</ele>
        <time>2021-09-07T11:21:30</time>
      </trkpt>
      <trkpt lat="44.60536" lon="4.07199">
        <ele>1322.8848</ele>
        <time>2021-09-07T11:21:33</time>
      </trkpt>
      <trkpt lat="44.60534" lon="4.07199">
        <ele>1322.8848</ele>
        <time>2021-09-07T11:21:39</time>
      </trkpt>
      <trkpt lat="44.60532" lon="4.072">
        <ele>1322.8848</ele>
        <time>2021-09-07T11:21:40</time>
      </trkpt>
      <trkpt lat="44.60531" lon="4.07201">
        <ele>1322.8848</ele>
        <time>2021-09-07T11:21:41</time>
      </trkpt>
      <trkpt lat="44.6053" lon="4.07202">
        <ele>1322.8848</ele>
        <time>2021-09-07T11:21:43</time>
      </trkpt>
      <trkpt lat="44.60529" lon="4.07203">
        <ele>1322.8848</ele>
        <time>2021-09-07T11:21:44</time>
      </trkpt>
      <trkpt lat="44.60529" lon="4.07203">
        <ele>1322.8848</ele>
        <time>2021-09-07T11:21:51</time>
      </trkpt>
      <trkpt lat="44.6053" lon="4.07202">
        <ele>1322.8848</ele>
        <time>2021-09-07T11:21:52</time>
      </trkpt>
      <trkpt lat="44.6053" lon="4.07202">
        <ele>1322.8848</ele>
        <time>2021-09-07T11:22:24</time>
      </trkpt>
      <trkpt lat="44.6053" lon="4.07202">
        <ele>1322.8848</ele>
        <time>2021-09-07T11:22:28</time>
      </trkpt>
      <trkpt lat="44.60529" lon="4.07203">
        <ele>1322.8848</ele>
        <time>2021-09-07T11:22:29</time>
      </trkpt>
      <trkpt lat="44.60529" lon="4.07203">
        <ele>1322.8848</ele>
        <time>2021-09-07T11:22:30</time>
      </trkpt>
      <trkpt lat="44.60529" lon="4.07203">
        <ele>1322.8848</ele>
        <time>2021-09-07T11:22:31</time>
      </trkpt>
      <trkpt lat="44.60529" lon="4.07203">
        <ele>1322.8848</ele>
        <time>2021-09-07T11:22:32</time>
      </trkpt>
      <trkpt lat="44.6053" lon="4.07202">
        <ele>1322.8848</ele>
        <time>2021-09-07T11:22:33</time>
      </trkpt>
      <trkpt lat="44.60531" lon="4.07202">
        <ele>1322.8848</ele>
        <time>2021-09-07T11:22:35</time>
      </trkpt>
      <trkpt lat="44.60531" lon="4.07203">
        <ele>1322.8848</ele>
        <time>2021-09-07T11:22:36</time>
      </trkpt>
      <trkpt lat="44.6053" lon="4.07203">
        <ele>1322.8848</ele>
        <time>2021-09-07T11:22:37</time>
      </trkpt>
      <trkpt lat="44.60527" lon="4.07203">
        <ele>1322.8848</ele>
        <time>2021-09-07T11:23:07</time>
      </trkpt>
      <trkpt lat="44.60528" lon="4.07202">
        <ele>1306.0847</ele>
        <time>2021-09-07T11:23:38</time>
      </trkpt>
      <trkpt lat="44.60527" lon="4.07201">
        <ele>1306.4847</ele>
        <time>2021-09-07T11:24:17</time>
      </trkpt>
      <trkpt lat="44.60527" lon="4.072">
        <ele>1304.8848</ele>
        <time>2021-09-07T11:24:47</time>
      </trkpt>
      <trkpt lat="44.60527" lon="4.072">
        <ele>1304.1847</ele>
        <time>2021-09-07T11:25:21</time>
      </trkpt>
      <trkpt lat="44.60526" lon="4.072">
        <ele>1306.6847</ele>
        <time>2021-09-07T11:25:55</time>
      </trkpt>
      <trkpt lat="44.60526" lon="4.072">
        <ele>1308.5847</ele>
        <time>2021-09-07T11:26:26</time>
      </trkpt>
      <trkpt lat="44.60526" lon="4.072">
        <ele>1308.3848</ele>
        <time>2021-09-07T11:26:58</time>
      </trkpt>
      <trkpt lat="44.60526" lon="4.072">
        <ele>1308.3848</ele>
        <time>2021-09-07T11:27:28</time>
      </trkpt>
      <trkpt lat="44.60527" lon="4.07199">
        <ele>1308.3848</ele>
        <time>2021-09-07T11:27:54</time>
      </trkpt>
      <trkpt lat="44.60527" lon="4.07199">
        <ele>1308.3848</ele>
        <time>2021-09-07T11:27:55</time>
      </trkpt>
      <trkpt lat="44.60529" lon="4.072">
        <ele>1308.3848</ele>
        <time>2021-09-07T11:28:40</time>
      </trkpt>
      <trkpt lat="44.60529" lon="4.07201">
        <ele>1308.3848</ele>
        <time>2021-09-07T11:28:41</time>
      </trkpt>
      <trkpt lat="44.60529" lon="4.07202">
        <ele>1308.3848</ele>
        <time>2021-09-07T11:28:42</time>
      </trkpt>
      <trkpt lat="44.60529" lon="4.07201">
        <ele>1308.3848</ele>
        <time>2021-09-07T11:28:44</time>
      </trkpt>
      <trkpt lat="44.6053" lon="4.072">
        <ele>1308.3848</ele>
        <time>2021-09-07T11:28:46</time>
      </trkpt>
      <trkpt lat="44.6053" lon="4.072">
        <ele>1308.3848</ele>
        <time>2021-09-07T11:28:47</time>
      </trkpt>
      <trkpt lat="44.6053" lon="4.072">
        <ele>1308.3848</ele>
        <time>2021-09-07T11:28:48</time>
      </trkpt>
      <trkpt lat="44.6053" lon="4.072">
        <ele>1308.3848</ele>
        <time>2021-09-07T11:28:49</time>
      </trkpt>
      <trkpt lat="44.60528" lon="4.07199">
        <ele>1308.3848</ele>
        <time>2021-09-07T11:33:48</time>
      </trkpt>
      <trkpt lat="44.60528" lon="4.07199">
        <ele>1308.3848</ele>
        <time>2021-09-07T11:34:18</time>
      </trkpt>
      <trkpt lat="44.60527" lon="4.07199">
        <ele>1308.3848</ele>
        <time>2021-09-07T11:37:37</time>
      </trkpt>
      <trkpt lat="44.60527" lon="4.07199">
        <ele>1308.3848</ele>
        <time>2021-09-07T11:38:07</time>
      </trkpt>
      <trkpt lat="44.60527" lon="4.07199">
        <ele>1308.3848</ele>
        <time>2021-09-07T11:38:37</time>
      </trkpt>
      <trkpt lat="44.60527" lon="4.072">
        <ele>1308.3848</ele>
        <time>2021-09-07T11:39:07</time>
      </trkpt>
      <trkpt lat="44.60527" lon="4.072">
        <ele>1302.0847</ele>
        <time>2021-09-07T11:39:37</time>
      </trkpt>
      <trkpt lat="44.60527" lon="4.072">
        <ele>1302.0847</ele>
        <time>2021-09-07T11:40:08</time>
      </trkpt>
      <trkpt lat="44.60527" lon="4.072">
        <ele>1302.0847</ele>
        <time>2021-09-07T11:40:38</time>
      </trkpt>
      <trkpt lat="44.60527" lon="4.07199">
        <ele>1302.0847</ele>
        <time>2021-09-07T11:40:59</time>
      </trkpt>
      <trkpt lat="44.60527" lon="4.07199">
        <ele>1302.0847</ele>
        <time>2021-09-07T11:41:00</time>
      </trkpt>
      <trkpt lat="44.60527" lon="4.07199">
        <ele>1302.0847</ele>
        <time>2021-09-07T11:41:01</time>
      </trkpt>
      <trkpt lat="44.60527" lon="4.07199">
        <ele>1302.0847</ele>
        <time>2021-09-07T11:41:02</time>
      </trkpt>
      <trkpt lat="44.60527" lon="4.072">
        <ele>1302.0847</ele>
        <time>2021-09-07T11:41:03</time>
      </trkpt>
      <trkpt lat="44.60527" lon="4.07201">
        <ele>1302.0847</ele>
        <time>2021-09-07T11:41:04</time>
      </trkpt>
      <trkpt lat="44.60527" lon="4.07201">
        <ele>1302.0847</ele>
        <time>2021-09-07T11:41:05</time>
      </trkpt>
      <trkpt lat="44.60526" lon="4.07201">
        <ele>1302.0847</ele>
        <time>2021-09-07T11:41:06</time>
      </trkpt>
      <trkpt lat="44.60526" lon="4.07201">
        <ele>1302.0847</ele>
        <time>2021-09-07T11:41:07</time>
      </trkpt>
      <trkpt lat="44.60526" lon="4.07201">
        <ele>1300.4847</ele>
        <time>2021-09-07T11:41:10</time>
      </trkpt>
      <trkpt lat="44.60526" lon="4.07201">
        <ele>1300.4847</ele>
        <time>2021-09-07T11:41:11</time>
      </trkpt>
      <trkpt lat="44.60526" lon="4.072">
        <ele>1300.4847</ele>
        <time>2021-09-07T11:41:12</time>
      </trkpt>
      <trkpt lat="44.60528" lon="4.07198">
        <ele>1300.4847</ele>
        <time>2021-09-07T11:41:24</time>
      </trkpt>
      <trkpt lat="44.60529" lon="4.07197">
        <ele>1300.4847</ele>
        <time>2021-09-07T11:41:25</time>
      </trkpt>
      <trkpt lat="44.60532" lon="4.07194">
        <ele>1300.4847</ele>
        <time>2021-09-07T11:41:27</time>
      </trkpt>
      <trkpt lat="44.60533" lon="4.07191">
        <ele>1300.4847</ele>
        <time>2021-09-07T11:41:28</time>
      </trkpt>
      <trkpt lat="44.60535" lon="4.07183">
        <ele>1300.4847</ele>
        <time>2021-09-07T11:41:30</time>
      </trkpt>
      <trkpt lat="44.60535" lon="4.07178">
        <ele>1300.4847</ele>
        <time>2021-09-07T11:41:31</time>
      </trkpt>
      <trkpt lat="44.60534" lon="4.07159">
        <ele>1300.4847</ele>
        <time>2021-09-07T11:41:34</time>
      </trkpt>
      <trkpt lat="44.60542" lon="4.07083">
        <ele>1299.3848</ele>
        <time>2021-09-07T11:41:44</time>
      </trkpt>
      <trkpt lat="44.6054" lon="4.07069">
        <ele>1299.3848</ele>
        <time>2021-09-07T11:41:46</time>
      </trkpt>
      <trkpt lat="44.60538" lon="4.07055">
        <ele>1299.3848</ele>
        <time>2021-09-07T11:41:48</time>
      </trkpt>
      <trkpt lat="44.60536" lon="4.0704">
        <ele>1299.3848</ele>
        <time>2021-09-07T11:41:50</time>
      </trkpt>
      <trkpt lat="44.60532" lon="4.07027">
        <ele>1299.3848</ele>
        <time>2021-09-07T11:41:52</time>
      </trkpt>
      <trkpt lat="44.60498" lon="4.06913">
        <ele>1299.0181</ele>
        <time>2021-09-07T11:42:07</time>
      </trkpt>
      <trkpt lat="44.60495" lon="4.06893">
        <ele>1297.9847</ele>
        <time>2021-09-07T11:42:09</time>
      </trkpt>
      <trkpt lat="44.6049" lon="4.06803">
        <ele>1297.9847</ele>
        <time>2021-09-07T11:42:18</time>
      </trkpt>
      <trkpt lat="44.60493" lon="4.06741">
        <ele>1286.0847</ele>
        <time>2021-09-07T11:42:25</time>
      </trkpt>
      <trkpt lat="44.60486" lon="4.06682">
        <ele>1283.7847</ele>
        <time>2021-09-07T11:42:31</time>
      </trkpt>
      <trkpt lat="44.60474" lon="4.0664">
        <ele>1283.7847</ele>
        <time>2021-09-07T11:42:36</time>
      </trkpt>
      <trkpt lat="44.60444" lon="4.0655">
        <ele>1275.2847</ele>
        <time>2021-09-07T11:42:46</time>
      </trkpt>
      <trkpt lat="44.60436" lon="4.06525">
        <ele>1272.218</ele>
        <time>2021-09-07T11:42:49</time>
      </trkpt>
      <trkpt lat="44.60431" lon="4.06497">
        <ele>1272.218</ele>
        <time>2021-09-07T11:42:52</time>
      </trkpt>
      <trkpt lat="44.60422" lon="4.06441">
        <ele>1272.218</ele>
        <time>2021-09-07T11:42:58</time>
      </trkpt>
      <trkpt lat="44.60406" lon="4.06395">
        <ele>1266.8848</ele>
        <time>2021-09-07T11:43:03</time>
      </trkpt>
      <trkpt lat="44.6039" lon="4.06358">
        <ele>1266.8848</ele>
        <time>2021-09-07T11:43:07</time>
      </trkpt>
      <trkpt lat="44.60352" lon="4.06284">
        <ele>1267.9847</ele>
        <time>2021-09-07T11:43:15</time>
      </trkpt>
      <trkpt lat="44.6035" lon="4.06273">
        <ele>1267.9847</ele>
        <time>2021-09-07T11:43:16</time>
      </trkpt>
      <trkpt lat="44.60347" lon="4.06249">
        <ele>1267.9847</ele>
        <time>2021-09-07T11:43:18</time>
      </trkpt>
      <trkpt lat="44.60336" lon="4.06143">
        <ele>1256.5847</ele>
        <time>2021-09-07T11:43:28</time>
      </trkpt>
      <trkpt lat="44.60337" lon="4.06133">
        <ele>1252.4847</ele>
        <time>2021-09-07T11:43:29</time>
      </trkpt>
      <trkpt lat="44.6034" lon="4.06123">
        <ele>1252.4847</ele>
        <time>2021-09-07T11:43:30</time>
      </trkpt>
      <trkpt lat="44.60343" lon="4.06114">
        <ele>1252.4847</ele>
        <time>2021-09-07T11:43:31</time>
      </trkpt>
      <trkpt lat="44.60348" lon="4.06107">
        <ele>1252.4847</ele>
        <time>2021-09-07T11:43:32</time>
      </trkpt>
      <trkpt lat="44.60358" lon="4.06092">
        <ele>1252.4847</ele>
        <time>2021-09-07T11:43:34</time>
      </trkpt>
      <trkpt lat="44.60369" lon="4.0608">
        <ele>1252.4847</ele>
        <time>2021-09-07T11:43:36</time>
      </trkpt>
      <trkpt lat="44.60469" lon="4.05988">
        <ele>1237.8848</ele>
        <time>2021-09-07T11:43:52</time>
      </trkpt>
      <trkpt lat="44.60484" lon="4.05957">
        <ele>1237.8848</ele>
        <time>2021-09-07T11:43:55</time>
      </trkpt>
      <trkpt lat="44.60534" lon="4.05862">
        <ele>1237.8848</ele>
        <time>2021-09-07T11:44:05</time>
      </trkpt>
      <trkpt lat="44.60568" lon="4.05813">
        <ele>1237.8848</ele>
        <time>2021-09-07T11:44:11</time>
      </trkpt>
      <trkpt lat="44.60571" lon="4.05804">
        <ele>1237.8848</ele>
        <time>2021-09-07T11:44:13</time>
      </trkpt>
      <trkpt lat="44.60577" lon="4.05797">
        <ele>1237.8848</ele>
        <time>2021-09-07T11:44:16</time>
      </trkpt>
      <trkpt lat="44.60577" lon="4.05796">
        <ele>1237.8848</ele>
        <time>2021-09-07T11:44:18</time>
      </trkpt>
      <trkpt lat="44.60579" lon="4.05794">
        <ele>1237.8848</ele>
        <time>2021-09-07T11:44:41</time>
      </trkpt>
      <trkpt lat="44.60579" lon="4.05794">
        <ele>1237.8848</ele>
        <time>2021-09-07T11:44:42</time>
      </trkpt>
      <trkpt lat="44.60578" lon="4.05795">
        <ele>1228.9847</ele>
        <time>2021-09-07T11:45:14</time>
      </trkpt>
      <trkpt lat="44.60578" lon="4.05796">
        <ele>1229.7847</ele>
        <time>2021-09-07T11:45:48</time>
      </trkpt>
      <trkpt lat="44.60578" lon="4.05795">
        <ele>1230.3848</ele>
        <time>2021-09-07T11:46:10</time>
      </trkpt>
      <trkpt lat="44.60578" lon="4.05796">
        <ele>1230.3848</ele>
        <time>2021-09-07T11:46:11</time>
      </trkpt>
      <trkpt lat="44.60577" lon="4.05796">
        <ele>1229.6847</ele>
        <time>2021-09-07T11:46:29</time>
      </trkpt>
      <trkpt lat="44.60578" lon="4.05796">
        <ele>1227.3848</ele>
        <time>2021-09-07T11:46:30</time>
      </trkpt>
      <trkpt lat="44.60579" lon="4.05793">
        <ele>1227.3848</ele>
        <time>2021-09-07T11:46:44</time>
      </trkpt>
      <trkpt lat="44.60578" lon="4.05792">
        <ele>1227.3848</ele>
        <time>2021-09-07T11:46:45</time>
      </trkpt>
      <trkpt lat="44.60575" lon="4.05789">
        <ele>1227.3848</ele>
        <time>2021-09-07T11:46:59</time>
      </trkpt>
      <trkpt lat="44.60575" lon="4.0579">
        <ele>1219.0847</ele>
        <time>2021-09-07T11:47:00</time>
      </trkpt>
      <trkpt lat="44.60578" lon="4.05792">
        <ele>1219.1847</ele>
        <time>2021-09-07T11:47:16</time>
      </trkpt>
      <trkpt lat="44.60579" lon="4.05792">
        <ele>1219.1847</ele>
        <time>2021-09-07T11:47:17</time>
      </trkpt>
      <trkpt lat="44.60579" lon="4.05792">
        <ele>1219.1847</ele>
        <time>2021-09-07T11:47:18</time>
      </trkpt>
      <trkpt lat="44.60579" lon="4.05791">
        <ele>1219.1847</ele>
        <time>2021-09-07T11:47:19</time>
      </trkpt>
      <trkpt lat="44.60579" lon="4.05791">
        <ele>1218.4847</ele>
        <time>2021-09-07T11:47:20</time>
      </trkpt>
      <trkpt lat="44.60573" lon="4.05776">
        <ele>1218.4847</ele>
        <time>2021-09-07T11:47:26</time>
      </trkpt>
      <trkpt lat="44.60569" lon="4.05769">
        <ele>1218.4847</ele>
        <time>2021-09-07T11:47:28</time>
      </trkpt>
      <trkpt lat="44.60558" lon="4.05759">
        <ele>1219.4847</ele>
        <time>2021-09-07T11:47:31</time>
      </trkpt>
      <trkpt lat="44.60551" lon="4.05755">
        <ele>1219.4847</ele>
        <time>2021-09-07T11:47:33</time>
      </trkpt>
      <trkpt lat="44.60525" lon="4.05735">
        <ele>1219.4847</ele>
        <time>2021-09-07T11:47:39</time>
      </trkpt>
      <trkpt lat="44.6051" lon="4.05729">
        <ele>1220.4847</ele>
        <time>2021-09-07T11:47:42</time>
      </trkpt>
      <trkpt lat="44.60454" lon="4.05714">
        <ele>1219.6847</ele>
        <time>2021-09-07T11:47:51</time>
      </trkpt>
      <trkpt lat="44.60355" lon="4.05664">
        <ele>1217.6847</ele>
        <time>2021-09-07T11:48:06</time>
      </trkpt>
      <trkpt lat="44.60333" lon="4.05649">
        <ele>1226.4847</ele>
        <time>2021-09-07T11:48:10</time>
      </trkpt>
      <trkpt lat="44.60328" lon="4.05643">
        <ele>1226.4847</ele>
        <time>2021-09-07T11:48:11</time>
      </trkpt>
      <trkpt lat="44.6032" lon="4.05627">
        <ele>1226.4847</ele>
        <time>2021-09-07T11:48:13</time>
      </trkpt>
      <trkpt lat="44.60314" lon="4.05604">
        <ele>1226.4847</ele>
        <time>2021-09-07T11:48:16</time>
      </trkpt>
      <trkpt lat="44.60282" lon="4.05437">
        <ele>1205.9847</ele>
        <time>2021-09-07T11:48:35</time>
      </trkpt>
      <trkpt lat="44.60276" lon="4.05379">
        <ele>1200.8848</ele>
        <time>2021-09-07T11:48:41</time>
      </trkpt>
      <trkpt lat="44.60272" lon="4.05312">
        <ele>1200.8848</ele>
        <time>2021-09-07T11:48:48</time>
      </trkpt>
      <trkpt lat="44.60269" lon="4.05305">
        <ele>1200.8848</ele>
        <time>2021-09-07T11:48:49</time>
      </trkpt>
      <trkpt lat="44.60265" lon="4.05299">
        <ele>1217.9847</ele>
        <time>2021-09-07T11:48:50</time>
      </trkpt>
      <trkpt lat="44.60261" lon="4.05293">
        <ele>1217.9847</ele>
        <time>2021-09-07T11:48:51</time>
      </trkpt>
      <trkpt lat="44.60254" lon="4.05291">
        <ele>1217.9847</ele>
        <time>2021-09-07T11:48:52</time>
      </trkpt>
      <trkpt lat="44.60243" lon="4.05286">
        <ele>1217.9847</ele>
        <time>2021-09-07T11:48:54</time>
      </trkpt>
      <trkpt lat="44.60206" lon="4.05265">
        <ele>1196.5847</ele>
        <time>2021-09-07T11:49:00</time>
      </trkpt>
      <trkpt lat="44.60188" lon="4.05247">
        <ele>1196.5847</ele>
        <time>2021-09-07T11:49:03</time>
      </trkpt>
      <trkpt lat="44.60175" lon="4.0523">
        <ele>1196.5847</ele>
        <time>2021-09-07T11:49:05</time>
      </trkpt>
      <trkpt lat="44.6011" lon="4.05108">
        <ele>1176.3514</ele>
        <time>2021-09-07T11:49:20</time>
      </trkpt>
      <trkpt lat="44.60087" lon="4.0506">
        <ele>1176.3514</ele>
        <time>2021-09-07T11:49:27</time>
      </trkpt>
      <trkpt lat="44.60083" lon="4.05044">
        <ele>1176.3514</ele>
        <time>2021-09-07T11:49:29</time>
      </trkpt>
      <trkpt lat="44.60081" lon="4.05026">
        <ele>1171.6847</ele>
        <time>2021-09-07T11:49:31</time>
      </trkpt>
      <trkpt lat="44.6008" lon="4.04999">
        <ele>1171.6847</ele>
        <time>2021-09-07T11:49:34</time>
      </trkpt>
      <trkpt lat="44.60082" lon="4.04969">
        <ele>1171.6847</ele>
        <time>2021-09-07T11:49:37</time>
      </trkpt>
      <trkpt lat="44.60092" lon="4.04877">
        <ele>1141.818</ele>
        <time>2021-09-07T11:49:47</time>
      </trkpt>
      <trkpt lat="44.60089" lon="4.04832">
        <ele>1172.1847</ele>
        <time>2021-09-07T11:49:52</time>
      </trkpt>
      <trkpt lat="44.60084" lon="4.04802">
        <ele>1172.1847</ele>
        <time>2021-09-07T11:49:56</time>
      </trkpt>
      <trkpt lat="44.60012" lon="4.04497">
        <ele>1166.4847</ele>
        <time>2021-09-07T11:50:26</time>
      </trkpt>
      <trkpt lat="44.59998" lon="4.04444">
        <ele>1154.9847</ele>
        <time>2021-09-07T11:50:33</time>
      </trkpt>
      <trkpt lat="44.59991" lon="4.04435">
        <ele>1154.9847</ele>
        <time>2021-09-07T11:50:35</time>
      </trkpt>
      <trkpt lat="44.59986" lon="4.04431">
        <ele>1154.9847</ele>
        <time>2021-09-07T11:50:36</time>
      </trkpt>
      <trkpt lat="44.59977" lon="4.04432">
        <ele>1154.9847</ele>
        <time>2021-09-07T11:50:38</time>
      </trkpt>
      <trkpt lat="44.59973" lon="4.04436">
        <ele>1154.9847</ele>
        <time>2021-09-07T11:50:39</time>
      </trkpt>
      <trkpt lat="44.59968" lon="4.04442">
        <ele>1154.9847</ele>
        <time>2021-09-07T11:50:40</time>
      </trkpt>
      <trkpt lat="44.59965" lon="4.04449">
        <ele>1150.8514</ele>
        <time>2021-09-07T11:50:41</time>
      </trkpt>
      <trkpt lat="44.59964" lon="4.04456">
        <ele>1150.8514</ele>
        <time>2021-09-07T11:50:42</time>
      </trkpt>
      <trkpt lat="44.59964" lon="4.04463">
        <ele>1150.8514</ele>
        <time>2021-09-07T11:50:43</time>
      </trkpt>
      <trkpt lat="44.59964" lon="4.04471">
        <ele>1150.8514</ele>
        <time>2021-09-07T11:50:44</time>
      </trkpt>
      <trkpt lat="44.59962" lon="4.04515">
        <ele>1150.8514</ele>
        <time>2021-09-07T11:50:49</time>
      </trkpt>
      <trkpt lat="44.59965" lon="4.04725">
        <ele>1139.2847</ele>
        <time>2021-09-07T11:51:11</time>
      </trkpt>
      <trkpt lat="44.59959" lon="4.04741">
        <ele>1139.2847</ele>
        <time>2021-09-07T11:51:13</time>
      </trkpt>
      <trkpt lat="44.59948" lon="4.0477">
        <ele>1139.2847</ele>
        <time>2021-09-07T11:51:16</time>
      </trkpt>
      <trkpt lat="44.5994" lon="4.04782">
        <ele>1139.2847</ele>
        <time>2021-09-07T11:51:18</time>
      </trkpt>
      <trkpt lat="44.59921" lon="4.04792">
        <ele>1128.0847</ele>
        <time>2021-09-07T11:51:21</time>
      </trkpt>
      <trkpt lat="44.59903" lon="4.04791">
        <ele>1128.0847</ele>
        <time>2021-09-07T11:51:23</time>
      </trkpt>
      <trkpt lat="44.59862" lon="4.04792">
        <ele>1128.0847</ele>
        <time>2021-09-07T11:51:29</time>
      </trkpt>
      <trkpt lat="44.5984" lon="4.04796">
        <ele>1127.818</ele>
        <time>2021-09-07T11:51:33</time>
      </trkpt>
      <trkpt lat="44.59825" lon="4.04803">
        <ele>1127.818</ele>
        <time>2021-09-07T11:51:36</time>
      </trkpt>
      <trkpt lat="44.59821" lon="4.04807">
        <ele>1127.818</ele>
        <time>2021-09-07T11:51:37</time>
      </trkpt>
      <trkpt lat="44.59799" lon="4.04826">
        <ele>1126.8848</ele>
        <time>2021-09-07T11:51:41</time>
      </trkpt>
      <trkpt lat="44.59712" lon="4.04936">
        <ele>1122.3848</ele>
        <time>2021-09-07T11:51:59</time>
      </trkpt>
      <trkpt lat="44.59701" lon="4.04964">
        <ele>1138.5847</ele>
        <time>2021-09-07T11:52:02</time>
      </trkpt>
      <trkpt lat="44.597" lon="4.04973">
        <ele>1138.5847</ele>
        <time>2021-09-07T11:52:03</time>
      </trkpt>
      <trkpt lat="44.59699" lon="4.04982">
        <ele>1138.5847</ele>
        <time>2021-09-07T11:52:04</time>
      </trkpt>
      <trkpt lat="44.59701" lon="4.05001">
        <ele>1138.5847</ele>
        <time>2021-09-07T11:52:06</time>
      </trkpt>
      <trkpt lat="44.597" lon="4.05084">
        <ele>1118.0847</ele>
        <time>2021-09-07T11:52:15</time>
      </trkpt>
      <trkpt lat="44.59694" lon="4.05113">
        <ele>1118.0847</ele>
        <time>2021-09-07T11:52:18</time>
      </trkpt>
      <trkpt lat="44.59677" lon="4.05167">
        <ele>1125.5847</ele>
        <time>2021-09-07T11:52:25</time>
      </trkpt>
      <trkpt lat="44.59624" lon="4.05298">
        <ele>1112.3848</ele>
        <time>2021-09-07T11:52:38</time>
      </trkpt>
      <trkpt lat="44.59619" lon="4.05346">
        <ele>1106.6847</ele>
        <time>2021-09-07T11:52:42</time>
      </trkpt>
      <trkpt lat="44.59605" lon="4.05478">
        <ele>1103.4847</ele>
        <time>2021-09-07T11:52:59</time>
      </trkpt>
      <trkpt lat="44.59605" lon="4.05486">
        <ele>1100.0847</ele>
        <time>2021-09-07T11:53:03</time>
      </trkpt>
      <trkpt lat="44.59606" lon="4.05486">
        <ele>1101.9847</ele>
        <time>2021-09-07T11:53:30</time>
      </trkpt>
      <trkpt lat="44.59606" lon="4.05486">
        <ele>1063.3848</ele>
        <time>2021-09-07T11:53:31</time>
      </trkpt>
      <trkpt lat="44.5961" lon="4.05491">
        <ele>1097.4847</ele>
        <time>2021-09-07T11:53:46</time>
      </trkpt>
      <trkpt lat="44.59615" lon="4.05495">
        <ele>1100.4514</ele>
        <time>2021-09-07T11:53:52</time>
      </trkpt>
      <trkpt lat="44.59616" lon="4.05495">
        <ele>1100.4514</ele>
        <time>2021-09-07T11:53:53</time>
      </trkpt>
      <trkpt lat="44.59624" lon="4.05499">
        <ele>1100.4514</ele>
        <time>2021-09-07T11:53:56</time>
      </trkpt>
      <trkpt lat="44.59631" lon="4.055">
        <ele>1100.4514</ele>
        <time>2021-09-07T11:53:58</time>
      </trkpt>
      <trkpt lat="44.59638" lon="4.05499">
        <ele>1100.4514</ele>
        <time>2021-09-07T11:54:00</time>
      </trkpt>
      <trkpt lat="44.59648" lon="4.05499">
        <ele>1105.2513</ele>
        <time>2021-09-07T11:54:13</time>
      </trkpt>
      <trkpt lat="44.5965" lon="4.05498">
        <ele>1105.2513</ele>
        <time>2021-09-07T11:54:14</time>
      </trkpt>
      <trkpt lat="44.59651" lon="4.05495">
        <ele>1105.2513</ele>
        <time>2021-09-07T11:54:15</time>
      </trkpt>
      <trkpt lat="44.59655" lon="4.05488">
        <ele>1105.2513</ele>
        <time>2021-09-07T11:54:20</time>
      </trkpt>
      <trkpt lat="44.59655" lon="4.05488">
        <ele>1097.4847</ele>
        <time>2021-09-07T11:54:23</time>
      </trkpt>
      <trkpt lat="44.59656" lon="4.05484">
        <ele>1097.4847</ele>
        <time>2021-09-07T11:54:26</time>
      </trkpt>
      <trkpt lat="44.59662" lon="4.05472">
        <ele>1094.7847</ele>
        <time>2021-09-07T11:54:31</time>
      </trkpt>
      <trkpt lat="44.59663" lon="4.0547">
        <ele>1094.7847</ele>
        <time>2021-09-07T11:54:34</time>
      </trkpt>
      <trkpt lat="44.59663" lon="4.05472">
        <ele>1095.5847</ele>
        <time>2021-09-07T11:54:45</time>
      </trkpt>
      <trkpt lat="44.59664" lon="4.05469">
        <ele>1095.5847</ele>
        <time>2021-09-07T11:54:47</time>
      </trkpt>
      <trkpt lat="44.59665" lon="4.05466">
        <ele>1095.5847</ele>
        <time>2021-09-07T11:54:48</time>
      </trkpt>
      <trkpt lat="44.59666" lon="4.05463">
        <ele>1095.5847</ele>
        <time>2021-09-07T11:54:49</time>
      </trkpt>
      <trkpt lat="44.59672" lon="4.05448">
        <ele>1094.8848</ele>
        <time>2021-09-07T11:54:53</time>
      </trkpt>
      <trkpt lat="44.5969" lon="4.05412">
        <ele>1094.8848</ele>
        <time>2021-09-07T11:55:00</time>
      </trkpt>
      <trkpt lat="44.59743" lon="4.05338">
        <ele>1094.5847</ele>
        <time>2021-09-07T11:55:13</time>
      </trkpt>
      <trkpt lat="44.59754" lon="4.05326">
        <ele>1094.5847</ele>
        <time>2021-09-07T11:55:15</time>
      </trkpt>
      <trkpt lat="44.59778" lon="4.05308">
        <ele>1094.5847</ele>
        <time>2021-09-07T11:55:19</time>
      </trkpt>
      <trkpt lat="44.59804" lon="4.05301">
        <ele>1094.5847</ele>
        <time>2021-09-07T11:55:23</time>
      </trkpt>
      <trkpt lat="44.59853" lon="4.05288">
        <ele>1094.5847</ele>
        <time>2021-09-07T11:55:30</time>
      </trkpt>
      <trkpt lat="44.5986" lon="4.05288">
        <ele>1094.5847</ele>
        <time>2021-09-07T11:55:31</time>
      </trkpt>
      <trkpt lat="44.59868" lon="4.05289">
        <ele>1094.5847</ele>
        <time>2021-09-07T11:55:32</time>
      </trkpt>
      <trkpt lat="44.59873" lon="4.05293">
        <ele>1094.5847</ele>
        <time>2021-09-07T11:55:33</time>
      </trkpt>
      <trkpt lat="44.59878" lon="4.05298">
        <ele>1094.5847</ele>
        <time>2021-09-07T11:55:34</time>
      </trkpt>
      <trkpt lat="44.59883" lon="4.05307">
        <ele>1094.5847</ele>
        <time>2021-09-07T11:55:35</time>
      </trkpt>
      <trkpt lat="44.59913" lon="4.05373">
        <ele>1094.5847</ele>
        <time>2021-09-07T11:55:43</time>
      </trkpt>
      <trkpt lat="44.59925" lon="4.05382">
        <ele>1094.5847</ele>
        <time>2021-09-07T11:55:45</time>
      </trkpt>
      <trkpt lat="44.59935" lon="4.05391">
        <ele>1094.5847</ele>
        <time>2021-09-07T11:55:47</time>
      </trkpt>
      <trkpt lat="44.59937" lon="4.05396">
        <ele>1094.5847</ele>
        <time>2021-09-07T11:55:48</time>
      </trkpt>
      <trkpt lat="44.59939" lon="4.05403">
        <ele>1094.5847</ele>
        <time>2021-09-07T11:55:49</time>
      </trkpt>
      <trkpt lat="44.5995" lon="4.05446">
        <ele>1094.5847</ele>
        <time>2021-09-07T11:55:54</time>
      </trkpt>
      <trkpt lat="44.59958" lon="4.05464">
        <ele>1094.5847</ele>
        <time>2021-09-07T11:55:56</time>
      </trkpt>
      <trkpt lat="44.59969" lon="4.05477">
        <ele>1094.5847</ele>
        <time>2021-09-07T11:55:58</time>
      </trkpt>
      <trkpt lat="44.59993" lon="4.05509">
        <ele>1094.5847</ele>
        <time>2021-09-07T11:56:03</time>
      </trkpt>
      <trkpt lat="44.59995" lon="4.05518">
        <ele>1094.5847</ele>
        <time>2021-09-07T11:56:04</time>
      </trkpt>
      <trkpt lat="44.59994" lon="4.05534">
        <ele>1094.5847</ele>
        <time>2021-09-07T11:56:06</time>
      </trkpt>
      <trkpt lat="44.59993" lon="4.05543">
        <ele>1094.5847</ele>
        <time>2021-09-07T11:56:07</time>
      </trkpt>
      <trkpt lat="44.59992" lon="4.05553">
        <ele>1094.5847</ele>
        <time>2021-09-07T11:56:08</time>
      </trkpt>
      <trkpt lat="44.59975" lon="4.05609">
        <ele>1094.5847</ele>
        <time>2021-09-07T11:56:13</time>
      </trkpt>
      <trkpt lat="44.59974" lon="4.05618">
        <ele>1094.5847</ele>
        <time>2021-09-07T11:56:14</time>
      </trkpt>
      <trkpt lat="44.59973" lon="4.0564">
        <ele>1094.5847</ele>
        <time>2021-09-07T11:56:16</time>
      </trkpt>
      <trkpt lat="44.59974" lon="4.0566">
        <ele>1094.5847</ele>
        <time>2021-09-07T11:56:18</time>
      </trkpt>
      <trkpt lat="44.59979" lon="4.05677">
        <ele>1094.5847</ele>
        <time>2021-09-07T11:56:20</time>
      </trkpt>
      <trkpt lat="44.59986" lon="4.05691">
        <ele>1094.5847</ele>
        <time>2021-09-07T11:56:22</time>
      </trkpt>
      <trkpt lat="44.60001" lon="4.05711">
        <ele>1094.5847</ele>
        <time>2021-09-07T11:56:25</time>
      </trkpt>
      <trkpt lat="44.60006" lon="4.05715">
        <ele>1094.5847</ele>
        <time>2021-09-07T11:56:26</time>
      </trkpt>
      <trkpt lat="44.60018" lon="4.05724">
        <ele>1094.5847</ele>
        <time>2021-09-07T11:56:28</time>
      </trkpt>
      <trkpt lat="44.60048" lon="4.05741">
        <ele>1094.5847</ele>
        <time>2021-09-07T11:56:33</time>
      </trkpt>
      <trkpt lat="44.6006" lon="4.05753">
        <ele>1094.5847</ele>
        <time>2021-09-07T11:56:35</time>
      </trkpt>
      <trkpt lat="44.60067" lon="4.05767">
        <ele>1094.5847</ele>
        <time>2021-09-07T11:56:37</time>
      </trkpt>
      <trkpt lat="44.60078" lon="4.05786">
        <ele>1094.5847</ele>
        <time>2021-09-07T11:56:40</time>
      </trkpt>
      <trkpt lat="44.60086" lon="4.05799">
        <ele>1094.5847</ele>
        <time>2021-09-07T11:56:42</time>
      </trkpt>
      <trkpt lat="44.60087" lon="4.05805">
        <ele>1094.5847</ele>
        <time>2021-09-07T11:56:43</time>
      </trkpt>
      <trkpt lat="44.60087" lon="4.05812">
        <ele>1094.5847</ele>
        <time>2021-09-07T11:56:44</time>
      </trkpt>
      <trkpt lat="44.60083" lon="4.05816">
        <ele>1094.5847</ele>
        <time>2021-09-07T11:56:46</time>
      </trkpt>
      <trkpt lat="44.60078" lon="4.05826">
        <ele>1094.5847</ele>
        <time>2021-09-07T11:56:48</time>
      </trkpt>
      <trkpt lat="44.60073" lon="4.05827">
        <ele>1094.5847</ele>
        <time>2021-09-07T11:56:49</time>
      </trkpt>
      <trkpt lat="44.60068" lon="4.05836">
        <ele>1094.5847</ele>
        <time>2021-09-07T11:56:51</time>
      </trkpt>
      <trkpt lat="44.6004" lon="4.05876">
        <ele>1094.5847</ele>
        <time>2021-09-07T11:56:57</time>
      </trkpt>
      <trkpt lat="44.60033" lon="4.05883">
        <ele>1094.5847</ele>
        <time>2021-09-07T11:56:58</time>
      </trkpt>
      <trkpt lat="44.5998" lon="4.05922">
        <ele>1094.5847</ele>
        <time>2021-09-07T11:57:04</time>
      </trkpt>
      <trkpt lat="44.59972" lon="4.05937">
        <ele>1094.5847</ele>
        <time>2021-09-07T11:57:06</time>
      </trkpt>
      <trkpt lat="44.59953" lon="4.05961">
        <ele>1094.5847</ele>
        <time>2021-09-07T11:57:09</time>
      </trkpt>
      <trkpt lat="44.59939" lon="4.05997">
        <ele>1045.7847</ele>
        <time>2021-09-07T11:57:13</time>
      </trkpt>
      <trkpt lat="44.59933" lon="4.06018">
        <ele>1045.7847</ele>
        <time>2021-09-07T11:57:15</time>
      </trkpt>
      <trkpt lat="44.59931" lon="4.06039">
        <ele>1045.7847</ele>
        <time>2021-09-07T11:57:17</time>
      </trkpt>
      <trkpt lat="44.59933" lon="4.06075">
        <ele>1045.7847</ele>
        <time>2021-09-07T11:57:20</time>
      </trkpt>
      <trkpt lat="44.59939" lon="4.06118">
        <ele>1040.5514</ele>
        <time>2021-09-07T11:57:24</time>
      </trkpt>
      <trkpt lat="44.59947" lon="4.06138">
        <ele>1040.5514</ele>
        <time>2021-09-07T11:57:26</time>
      </trkpt>
      <trkpt lat="44.59953" lon="4.06146">
        <ele>1040.5514</ele>
        <time>2021-09-07T11:57:27</time>
      </trkpt>
      <trkpt lat="44.59969" lon="4.06176">
        <ele>1036.1847</ele>
        <time>2021-09-07T11:57:31</time>
      </trkpt>
      <trkpt lat="44.5997" lon="4.06187">
        <ele>1036.1847</ele>
        <time>2021-09-07T11:57:32</time>
      </trkpt>
      <trkpt lat="44.5997" lon="4.06209">
        <ele>1036.1847</ele>
        <time>2021-09-07T11:57:34</time>
      </trkpt>
      <trkpt lat="44.59967" lon="4.06289">
        <ele>1031.7847</ele>
        <time>2021-09-07T11:57:41</time>
      </trkpt>
      <trkpt lat="44.5997" lon="4.06312">
        <ele>1031.7847</ele>
        <time>2021-09-07T11:57:43</time>
      </trkpt>
      <trkpt lat="44.59978" lon="4.06344">
        <ele>1031.7847</ele>
        <time>2021-09-07T11:57:46</time>
      </trkpt>
      <trkpt lat="44.59985" lon="4.06363">
        <ele>1031.7847</ele>
        <time>2021-09-07T11:57:48</time>
      </trkpt>
      <trkpt lat="44.60011" lon="4.06408">
        <ele>1025.5847</ele>
        <time>2021-09-07T11:57:53</time>
      </trkpt>
      <trkpt lat="44.6002" lon="4.06427">
        <ele>1025.5847</ele>
        <time>2021-09-07T11:57:55</time>
      </trkpt>
      <trkpt lat="44.60022" lon="4.06436">
        <ele>1025.5847</ele>
        <time>2021-09-07T11:57:56</time>
      </trkpt>
      <trkpt lat="44.60022" lon="4.06445">
        <ele>1025.5847</ele>
        <time>2021-09-07T11:57:57</time>
      </trkpt>
      <trkpt lat="44.60018" lon="4.06463">
        <ele>1025.5847</ele>
        <time>2021-09-07T11:57:59</time>
      </trkpt>
      <trkpt lat="44.59994" lon="4.06543">
        <ele>1025.5847</ele>
        <time>2021-09-07T11:58:07</time>
      </trkpt>
      <trkpt lat="44.59992" lon="4.0657">
        <ele>1025.5847</ele>
        <time>2021-09-07T11:58:10</time>
      </trkpt>
      <trkpt lat="44.59997" lon="4.06634">
        <ele>1025.5847</ele>
        <time>2021-09-07T11:58:16</time>
      </trkpt>
      <trkpt lat="44.60005" lon="4.06667">
        <ele>1025.5847</ele>
        <time>2021-09-07T11:58:19</time>
      </trkpt>
      <trkpt lat="44.60012" lon="4.0669">
        <ele>1025.5847</ele>
        <time>2021-09-07T11:58:21</time>
      </trkpt>
      <trkpt lat="44.60022" lon="4.06711">
        <ele>1025.5847</ele>
        <time>2021-09-07T11:58:23</time>
      </trkpt>
      <trkpt lat="44.60052" lon="4.06762">
        <ele>1025.5847</ele>
        <time>2021-09-07T11:58:29</time>
      </trkpt>
      <trkpt lat="44.60071" lon="4.06793">
        <ele>1004.68463</ele>
        <time>2021-09-07T11:58:33</time>
      </trkpt>
      <trkpt lat="44.60072" lon="4.06803">
        <ele>1004.68463</ele>
        <time>2021-09-07T11:58:34</time>
      </trkpt>
      <trkpt lat="44.60072" lon="4.06812">
        <ele>1004.68463</ele>
        <time>2021-09-07T11:58:35</time>
      </trkpt>
      <trkpt lat="44.6007" lon="4.06821">
        <ele>1004.68463</ele>
        <time>2021-09-07T11:58:36</time>
      </trkpt>
      <trkpt lat="44.60062" lon="4.06838">
        <ele>1004.68463</ele>
        <time>2021-09-07T11:58:38</time>
      </trkpt>
      <trkpt lat="44.60032" lon="4.0689">
        <ele>1001.58466</ele>
        <time>2021-09-07T11:58:44</time>
      </trkpt>
      <trkpt lat="44.60026" lon="4.06909">
        <ele>1001.58466</ele>
        <time>2021-09-07T11:58:46</time>
      </trkpt>
      <trkpt lat="44.60023" lon="4.0693">
        <ele>1001.58466</ele>
        <time>2021-09-07T11:58:48</time>
      </trkpt>
      <trkpt lat="44.60019" lon="4.0696">
        <ele>991.18463</ele>
        <time>2021-09-07T11:58:51</time>
      </trkpt>
      <trkpt lat="44.60019" lon="4.06979">
        <ele>991.18463</ele>
        <time>2021-09-07T11:58:53</time>
      </trkpt>
      <trkpt lat="44.60023" lon="4.06999">
        <ele>991.18463</ele>
        <time>2021-09-07T11:58:55</time>
      </trkpt>
      <trkpt lat="44.60034" lon="4.0703">
        <ele>991.18463</ele>
        <time>2021-09-07T11:58:58</time>
      </trkpt>
      <trkpt lat="44.60076" lon="4.07147">
        <ele>988.18463</ele>
        <time>2021-09-07T11:59:11</time>
      </trkpt>
      <trkpt lat="44.60076" lon="4.07152">
        <ele>988.18463</ele>
        <time>2021-09-07T11:59:12</time>
      </trkpt>
      <trkpt lat="44.60076" lon="4.07158">
        <ele>988.18463</ele>
        <time>2021-09-07T11:59:13</time>
      </trkpt>
      <trkpt lat="44.60072" lon="4.07164">
        <ele>988.18463</ele>
        <time>2021-09-07T11:59:14</time>
      </trkpt>
      <trkpt lat="44.60063" lon="4.07182">
        <ele>988.18463</ele>
        <time>2021-09-07T11:59:17</time>
      </trkpt>
      <trkpt lat="44.60043" lon="4.07218">
        <ele>988.18463</ele>
        <time>2021-09-07T11:59:21</time>
      </trkpt>
      <trkpt lat="44.60027" lon="4.07257">
        <ele>988.18463</ele>
        <time>2021-09-07T11:59:25</time>
      </trkpt>
      <trkpt lat="44.6001" lon="4.07314">
        <ele>988.18463</ele>
        <time>2021-09-07T11:59:30</time>
      </trkpt>
      <trkpt lat="44.60006" lon="4.07353">
        <ele>988.18463</ele>
        <time>2021-09-07T11:59:33</time>
      </trkpt>
      <trkpt lat="44.60006" lon="4.07376">
        <ele>988.18463</ele>
        <time>2021-09-07T11:59:35</time>
      </trkpt>
      <trkpt lat="44.60009" lon="4.07399">
        <ele>988.18463</ele>
        <time>2021-09-07T11:59:37</time>
      </trkpt>
      <trkpt lat="44.60015" lon="4.07419">
        <ele>988.18463</ele>
        <time>2021-09-07T11:59:39</time>
      </trkpt>
      <trkpt lat="44.60022" lon="4.0744">
        <ele>969.38464</ele>
        <time>2021-09-07T11:59:41</time>
      </trkpt>
      <trkpt lat="44.60037" lon="4.07469">
        <ele>969.38464</ele>
        <time>2021-09-07T11:59:44</time>
      </trkpt>
      <trkpt lat="44.60091" lon="4.0756">
        <ele>963.38464</ele>
        <time>2021-09-07T11:59:56</time>
      </trkpt>
      <trkpt lat="44.60125" lon="4.07599">
        <ele>956.25134</ele>
        <time>2021-09-07T12:00:02</time>
      </trkpt>
      <trkpt lat="44.60128" lon="4.07608">
        <ele>956.25134</ele>
        <time>2021-09-07T12:00:03</time>
      </trkpt>
      <trkpt lat="44.60129" lon="4.07616">
        <ele>956.25134</ele>
        <time>2021-09-07T12:00:04</time>
      </trkpt>
      <trkpt lat="44.60129" lon="4.07626">
        <ele>956.25134</ele>
        <time>2021-09-07T12:00:05</time>
      </trkpt>
      <trkpt lat="44.60129" lon="4.07645">
        <ele>956.25134</ele>
        <time>2021-09-07T12:00:07</time>
      </trkpt>
      <trkpt lat="44.60128" lon="4.07711">
        <ele>951.4847</ele>
        <time>2021-09-07T12:00:13</time>
      </trkpt>
      <trkpt lat="44.60133" lon="4.07744">
        <ele>951.4847</ele>
        <time>2021-09-07T12:00:16</time>
      </trkpt>
      <trkpt lat="44.60138" lon="4.07763">
        <ele>951.4847</ele>
        <time>2021-09-07T12:00:18</time>
      </trkpt>
      <trkpt lat="44.60145" lon="4.07792">
        <ele>947.88464</ele>
        <time>2021-09-07T12:00:21</time>
      </trkpt>
      <trkpt lat="44.60145" lon="4.07815">
        <ele>947.88464</ele>
        <time>2021-09-07T12:00:23</time>
      </trkpt>
      <trkpt lat="44.60146" lon="4.07839">
        <ele>947.88464</ele>
        <time>2021-09-07T12:00:25</time>
      </trkpt>
      <trkpt lat="44.60145" lon="4.07888">
        <ele>947.88464</ele>
        <time>2021-09-07T12:00:29</time>
      </trkpt>
      <trkpt lat="44.60139" lon="4.07911">
        <ele>943.08466</ele>
        <time>2021-09-07T12:00:31</time>
      </trkpt>
      <trkpt lat="44.60131" lon="4.0793">
        <ele>943.08466</ele>
        <time>2021-09-07T12:00:33</time>
      </trkpt>
      <trkpt lat="44.60125" lon="4.0794">
        <ele>943.08466</ele>
        <time>2021-09-07T12:00:34</time>
      </trkpt>
      <trkpt lat="44.60089" lon="4.08013">
        <ele>936.18463</ele>
        <time>2021-09-07T12:00:42</time>
      </trkpt>
      <trkpt lat="44.60021" lon="4.0819">
        <ele>929.38464</ele>
        <time>2021-09-07T12:00:58</time>
      </trkpt>
      <trkpt lat="44.60017" lon="4.0821">
        <ele>929.38464</ele>
        <time>2021-09-07T12:01:00</time>
      </trkpt>
      <trkpt lat="44.60016" lon="4.08229">
        <ele>922.38464</ele>
        <time>2021-09-07T12:01:02</time>
      </trkpt>
      <trkpt lat="44.60018" lon="4.08238">
        <ele>922.38464</ele>
        <time>2021-09-07T12:01:03</time>
      </trkpt>
      <trkpt lat="44.60024" lon="4.08253">
        <ele>922.38464</ele>
        <time>2021-09-07T12:01:05</time>
      </trkpt>
      <trkpt lat="44.6003" lon="4.08257">
        <ele>922.38464</ele>
        <time>2021-09-07T12:01:06</time>
      </trkpt>
      <trkpt lat="44.60036" lon="4.0826">
        <ele>922.38464</ele>
        <time>2021-09-07T12:01:07</time>
      </trkpt>
      <trkpt lat="44.60047" lon="4.08264">
        <ele>922.38464</ele>
        <time>2021-09-07T12:01:09</time>
      </trkpt>
      <trkpt lat="44.60059" lon="4.08265">
        <ele>917.88464</ele>
        <time>2021-09-07T12:01:11</time>
      </trkpt>
      <trkpt lat="44.60066" lon="4.08264">
        <ele>917.88464</ele>
        <time>2021-09-07T12:01:12</time>
      </trkpt>
      <trkpt lat="44.60072" lon="4.08263">
        <ele>917.88464</ele>
        <time>2021-09-07T12:01:13</time>
      </trkpt>
      <trkpt lat="44.60084" lon="4.08257">
        <ele>917.88464</ele>
        <time>2021-09-07T12:01:15</time>
      </trkpt>
      <trkpt lat="44.60091" lon="4.08257">
        <ele>917.88464</ele>
        <time>2021-09-07T12:01:16</time>
      </trkpt>
      <trkpt lat="44.60095" lon="4.08257">
        <ele>917.88464</ele>
        <time>2021-09-07T12:01:17</time>
      </trkpt>
      <trkpt lat="44.60099" lon="4.08258">
        <ele>917.88464</ele>
        <time>2021-09-07T12:01:18</time>
      </trkpt>
      <trkpt lat="44.60102" lon="4.08262">
        <ele>917.88464</ele>
        <time>2021-09-07T12:01:19</time>
      </trkpt>
      <trkpt lat="44.60104" lon="4.08267">
        <ele>917.88464</ele>
        <time>2021-09-07T12:01:20</time>
      </trkpt>
      <trkpt lat="44.60104" lon="4.08273">
        <ele>917.88464</ele>
        <time>2021-09-07T12:01:21</time>
      </trkpt>
      <trkpt lat="44.60103" lon="4.08279">
        <ele>917.88464</ele>
        <time>2021-09-07T12:01:22</time>
      </trkpt>
      <trkpt lat="44.60101" lon="4.08283">
        <ele>917.88464</ele>
        <time>2021-09-07T12:01:23</time>
      </trkpt>
      <trkpt lat="44.60097" lon="4.08287">
        <ele>917.88464</ele>
        <time>2021-09-07T12:01:24</time>
      </trkpt>
      <trkpt lat="44.60091" lon="4.08288">
        <ele>917.88464</ele>
        <time>2021-09-07T12:01:25</time>
      </trkpt>
      <trkpt lat="44.6008" lon="4.08289">
        <ele>917.88464</ele>
        <time>2021-09-07T12:01:27</time>
      </trkpt>
      <trkpt lat="44.60063" lon="4.08287">
        <ele>917.88464</ele>
        <time>2021-09-07T12:01:30</time>
      </trkpt>
      <trkpt lat="44.60011" lon="4.08272">
        <ele>917.88464</ele>
        <time>2021-09-07T12:01:38</time>
      </trkpt>
      <trkpt lat="44.60005" lon="4.08267">
        <ele>917.88464</ele>
        <time>2021-09-07T12:01:39</time>
      </trkpt>
      <trkpt lat="44.6" lon="4.08262">
        <ele>917.88464</ele>
        <time>2021-09-07T12:01:40</time>
      </trkpt>
      <trkpt lat="44.59996" lon="4.08255">
        <ele>919.4847</ele>
        <time>2021-09-07T12:01:41</time>
      </trkpt>
      <trkpt lat="44.5999" lon="4.08238">
        <ele>919.4847</ele>
        <time>2021-09-07T12:01:43</time>
      </trkpt>
      <trkpt lat="44.59988" lon="4.0823">
        <ele>919.4847</ele>
        <time>2021-09-07T12:01:44</time>
      </trkpt>
      <trkpt lat="44.59987" lon="4.08212">
        <ele>919.4847</ele>
        <time>2021-09-07T12:01:46</time>
      </trkpt>
      <trkpt lat="44.59988" lon="4.08192">
        <ele>919.4847</ele>
        <time>2021-09-07T12:01:48</time>
      </trkpt>
      <trkpt lat="44.59992" lon="4.08165">
        <ele>915.4847</ele>
        <time>2021-09-07T12:01:51</time>
      </trkpt>
      <trkpt lat="44.6" lon="4.08137">
        <ele>915.4847</ele>
        <time>2021-09-07T12:01:54</time>
      </trkpt>
      <trkpt lat="44.60014" lon="4.08088">
        <ele>915.4847</ele>
        <time>2021-09-07T12:02:00</time>
      </trkpt>
      <trkpt lat="44.60043" lon="4.07912">
        <ele>905.58466</ele>
        <time>2021-09-07T12:02:17</time>
      </trkpt>
      <trkpt lat="44.6005" lon="4.07887">
        <ele>905.58466</ele>
        <time>2021-09-07T12:02:20</time>
      </trkpt>
      <trkpt lat="44.60051" lon="4.07879">
        <ele>899.4847</ele>
        <time>2021-09-07T12:02:21</time>
      </trkpt>
      <trkpt lat="44.60049" lon="4.07864">
        <ele>899.4847</ele>
        <time>2021-09-07T12:02:23</time>
      </trkpt>
      <trkpt lat="44.60044" lon="4.07849">
        <ele>899.4847</ele>
        <time>2021-09-07T12:02:25</time>
      </trkpt>
      <trkpt lat="44.60041" lon="4.07841">
        <ele>899.4847</ele>
        <time>2021-09-07T12:02:26</time>
      </trkpt>
      <trkpt lat="44.60035" lon="4.07836">
        <ele>899.4847</ele>
        <time>2021-09-07T12:02:27</time>
      </trkpt>
      <trkpt lat="44.6002" lon="4.07811">
        <ele>894.4847</ele>
        <time>2021-09-07T12:02:31</time>
      </trkpt>
      <trkpt lat="44.60013" lon="4.07795">
        <ele>894.4847</ele>
        <time>2021-09-07T12:02:37</time>
      </trkpt>
      <trkpt lat="44.60013" lon="4.0779">
        <ele>873.08466</ele>
        <time>2021-09-07T12:02:55</time>
      </trkpt>
      <trkpt lat="44.60012" lon="4.07788">
        <ele>873.08466</ele>
        <time>2021-09-07T12:02:56</time>
      </trkpt>
      <trkpt lat="44.60009" lon="4.0778">
        <ele>873.08466</ele>
        <time>2021-09-07T12:02:59</time>
      </trkpt>
      <trkpt lat="44.60004" lon="4.07763">
        <ele>884.4847</ele>
        <time>2021-09-07T12:03:03</time>
      </trkpt>
      <trkpt lat="44.60002" lon="4.07757">
        <ele>884.4847</ele>
        <time>2021-09-07T12:03:06</time>
      </trkpt>
      <trkpt lat="44.60002" lon="4.07756">
        <ele>884.4847</ele>
        <time>2021-09-07T12:03:08</time>
      </trkpt>
      <trkpt lat="44.60003" lon="4.07754">
        <ele>886.68463</ele>
        <time>2021-09-07T12:03:14</time>
      </trkpt>
      <trkpt lat="44.59992" lon="4.07718">
        <ele>886.38464</ele>
        <time>2021-09-07T12:03:22</time>
      </trkpt>
      <trkpt lat="44.59974" lon="4.07681">
        <ele>886.38464</ele>
        <time>2021-09-07T12:03:29</time>
      </trkpt>
      <trkpt lat="44.59971" lon="4.07678">
        <ele>886.38464</ele>
        <time>2021-09-07T12:03:30</time>
      </trkpt>
      <trkpt lat="44.59962" lon="4.07669">
        <ele>884.88464</ele>
        <time>2021-09-07T12:03:34</time>
      </trkpt>
      <trkpt lat="44.59961" lon="4.07667">
        <ele>884.88464</ele>
        <time>2021-09-07T12:03:35</time>
      </trkpt>
      <trkpt lat="44.59956" lon="4.07656">
        <ele>884.88464</ele>
        <time>2021-09-07T12:03:37</time>
      </trkpt>
      <trkpt lat="44.59945" lon="4.07623">
        <ele>886.91797</ele>
        <time>2021-09-07T12:03:41</time>
      </trkpt>
      <trkpt lat="44.59932" lon="4.07601">
        <ele>886.91797</ele>
        <time>2021-09-07T12:03:45</time>
      </trkpt>
      <trkpt lat="44.59863" lon="4.07477">
        <ele>884.78467</ele>
        <time>2021-09-07T12:04:03</time>
      </trkpt>
      <trkpt lat="44.59843" lon="4.07449">
        <ele>884.78467</ele>
        <time>2021-09-07T12:04:08</time>
      </trkpt>
      <trkpt lat="44.59822" lon="4.07405">
        <ele>876.88464</ele>
        <time>2021-09-07T12:04:14</time>
      </trkpt>
      <trkpt lat="44.59814" lon="4.0738">
        <ele>876.88464</ele>
        <time>2021-09-07T12:04:17</time>
      </trkpt>
      <trkpt lat="44.59811" lon="4.0736">
        <ele>876.88464</ele>
        <time>2021-09-07T12:04:19</time>
      </trkpt>
      <trkpt lat="44.59806" lon="4.07319">
        <ele>874.18463</ele>
        <time>2021-09-07T12:04:24</time>
      </trkpt>
      <trkpt lat="44.59798" lon="4.07306">
        <ele>874.18463</ele>
        <time>2021-09-07T12:04:26</time>
      </trkpt>
      <trkpt lat="44.59787" lon="4.07286">
        <ele>874.18463</ele>
        <time>2021-09-07T12:04:29</time>
      </trkpt>
      <trkpt lat="44.59783" lon="4.07272">
        <ele>872.08466</ele>
        <time>2021-09-07T12:04:31</time>
      </trkpt>
      <trkpt lat="44.59782" lon="4.07262">
        <ele>872.08466</ele>
        <time>2021-09-07T12:04:32</time>
      </trkpt>
      <trkpt lat="44.59781" lon="4.07239">
        <ele>872.08466</ele>
        <time>2021-09-07T12:04:34</time>
      </trkpt>
      <trkpt lat="44.59782" lon="4.07205">
        <ele>872.08466</ele>
        <time>2021-09-07T12:04:37</time>
      </trkpt>
      <trkpt lat="44.59777" lon="4.07185">
        <ele>872.08466</ele>
        <time>2021-09-07T12:04:39</time>
      </trkpt>
      <trkpt lat="44.59773" lon="4.07159">
        <ele>868.9847</ele>
        <time>2021-09-07T12:04:42</time>
      </trkpt>
      <trkpt lat="44.59775" lon="4.0715">
        <ele>868.9847</ele>
        <time>2021-09-07T12:04:43</time>
      </trkpt>
      <trkpt lat="44.59779" lon="4.07139">
        <ele>868.9847</ele>
        <time>2021-09-07T12:04:44</time>
      </trkpt>
      <trkpt lat="44.59786" lon="4.07114">
        <ele>868.9847</ele>
        <time>2021-09-07T12:04:47</time>
      </trkpt>
      <trkpt lat="44.59785" lon="4.07107">
        <ele>868.9847</ele>
        <time>2021-09-07T12:04:48</time>
      </trkpt>
      <trkpt lat="44.59782" lon="4.07102">
        <ele>868.9847</ele>
        <time>2021-09-07T12:04:49</time>
      </trkpt>
      <trkpt lat="44.59779" lon="4.07096">
        <ele>868.9847</ele>
        <time>2021-09-07T12:04:50</time>
      </trkpt>
      <trkpt lat="44.59774" lon="4.07094">
        <ele>861.88464</ele>
        <time>2021-09-07T12:04:51</time>
      </trkpt>
      <trkpt lat="44.5977" lon="4.07093">
        <ele>861.88464</ele>
        <time>2021-09-07T12:04:52</time>
      </trkpt>
      <trkpt lat="44.59767" lon="4.07093">
        <ele>861.88464</ele>
        <time>2021-09-07T12:04:53</time>
      </trkpt>
      <trkpt lat="44.59764" lon="4.07094">
        <ele>861.88464</ele>
        <time>2021-09-07T12:04:54</time>
      </trkpt>
      <trkpt lat="44.59762" lon="4.07095">
        <ele>861.88464</ele>
        <time>2021-09-07T12:04:55</time>
      </trkpt>
      <trkpt lat="44.5976" lon="4.07097">
        <ele>861.88464</ele>
        <time>2021-09-07T12:04:57</time>
      </trkpt>
      <trkpt lat="44.59757" lon="4.07098">
        <ele>861.88464</ele>
        <time>2021-09-07T12:05:00</time>
      </trkpt>
      <trkpt lat="44.59756" lon="4.07098">
        <ele>861.68463</ele>
        <time>2021-09-07T12:05:02</time>
      </trkpt>
      <trkpt lat="44.59751" lon="4.07097">
        <ele>856.08466</ele>
        <time>2021-09-07T12:05:25</time>
      </trkpt>
      <trkpt lat="44.59745" lon="4.07123">
        <ele>854.9847</ele>
        <time>2021-09-07T12:05:32</time>
      </trkpt>
      <trkpt lat="44.59743" lon="4.07141">
        <ele>854.9847</ele>
        <time>2021-09-07T12:05:35</time>
      </trkpt>
      <trkpt lat="44.59743" lon="4.07165">
        <ele>854.9847</ele>
        <time>2021-09-07T12:05:37</time>
      </trkpt>
      <trkpt lat="44.59743" lon="4.07222">
        <ele>861.18463</ele>
        <time>2021-09-07T12:05:43</time>
      </trkpt>
      <trkpt lat="44.59744" lon="4.07252">
        <ele>861.18463</ele>
        <time>2021-09-07T12:05:46</time>
      </trkpt>
      <trkpt lat="44.59743" lon="4.07261">
        <ele>861.18463</ele>
        <time>2021-09-07T12:05:47</time>
      </trkpt>
      <trkpt lat="44.59742" lon="4.07357">
        <ele>855.88464</ele>
        <time>2021-09-07T12:05:57</time>
      </trkpt>
      <trkpt lat="44.59744" lon="4.07366">
        <ele>855.88464</ele>
        <time>2021-09-07T12:05:58</time>
      </trkpt>
      <trkpt lat="44.59746" lon="4.07374">
        <ele>855.88464</ele>
        <time>2021-09-07T12:05:59</time>
      </trkpt>
      <trkpt lat="44.5975" lon="4.07381">
        <ele>855.88464</ele>
        <time>2021-09-07T12:06:00</time>
      </trkpt>
      <trkpt lat="44.59759" lon="4.07394">
        <ele>853.88464</ele>
        <time>2021-09-07T12:06:02</time>
      </trkpt>
      <trkpt lat="44.59766" lon="4.0741">
        <ele>853.88464</ele>
        <time>2021-09-07T12:06:04</time>
      </trkpt>
      <trkpt lat="44.59784" lon="4.07464">
        <ele>853.88464</ele>
        <time>2021-09-07T12:06:10</time>
      </trkpt>
      <trkpt lat="44.59822" lon="4.07532">
        <ele>848.88464</ele>
        <time>2021-09-07T12:06:20</time>
      </trkpt>
      <trkpt lat="44.59828" lon="4.07555">
        <ele>846.28467</ele>
        <time>2021-09-07T12:06:23</time>
      </trkpt>
      <trkpt lat="44.5983" lon="4.07574">
        <ele>846.28467</ele>
        <time>2021-09-07T12:06:25</time>
      </trkpt>
      <trkpt lat="44.5983" lon="4.07601">
        <ele>846.28467</ele>
        <time>2021-09-07T12:06:28</time>
      </trkpt>
      <trkpt lat="44.59827" lon="4.07607">
        <ele>846.28467</ele>
        <time>2021-09-07T12:06:29</time>
      </trkpt>
      <trkpt lat="44.59818" lon="4.07637">
        <ele>842.58466</ele>
        <time>2021-09-07T12:06:32</time>
      </trkpt>
      <trkpt lat="44.59816" lon="4.07648">
        <ele>842.58466</ele>
        <time>2021-09-07T12:06:33</time>
      </trkpt>
      <trkpt lat="44.59814" lon="4.07657">
        <ele>842.58466</ele>
        <time>2021-09-07T12:06:34</time>
      </trkpt>
      <trkpt lat="44.59815" lon="4.0767">
        <ele>842.58466</ele>
        <time>2021-09-07T12:06:35</time>
      </trkpt>
      <trkpt lat="44.59818" lon="4.0768">
        <ele>842.58466</ele>
        <time>2021-09-07T12:06:36</time>
      </trkpt>
      <trkpt lat="44.5983" lon="4.07715">
        <ele>842.58466</ele>
        <time>2021-09-07T12:06:40</time>
      </trkpt>
      <trkpt lat="44.5983" lon="4.07736">
        <ele>841.88464</ele>
        <time>2021-09-07T12:06:42</time>
      </trkpt>
      <trkpt lat="44.59825" lon="4.07833">
        <ele>841.88464</ele>
        <time>2021-09-07T12:06:50</time>
      </trkpt>
      <trkpt lat="44.59828" lon="4.07844">
        <ele>829.9847</ele>
        <time>2021-09-07T12:06:51</time>
      </trkpt>
      <trkpt lat="44.59834" lon="4.07865">
        <ele>829.9847</ele>
        <time>2021-09-07T12:06:53</time>
      </trkpt>
      <trkpt lat="44.59857" lon="4.07947">
        <ele>822.28467</ele>
        <time>2021-09-07T12:07:02</time>
      </trkpt>
      <trkpt lat="44.59857" lon="4.07958">
        <ele>822.28467</ele>
        <time>2021-09-07T12:07:03</time>
      </trkpt>
      <trkpt lat="44.59855" lon="4.07976">
        <ele>822.28467</ele>
        <time>2021-09-07T12:07:05</time>
      </trkpt>
      <trkpt lat="44.5985" lon="4.08083">
        <ele>819.38464</ele>
        <time>2021-09-07T12:07:15</time>
      </trkpt>
      <trkpt lat="44.59846" lon="4.08093">
        <ele>819.38464</ele>
        <time>2021-09-07T12:07:16</time>
      </trkpt>
      <trkpt lat="44.59838" lon="4.08104">
        <ele>819.38464</ele>
        <time>2021-09-07T12:07:17</time>
      </trkpt>
      <trkpt lat="44.59811" lon="4.08146">
        <ele>819.78467</ele>
        <time>2021-09-07T12:07:22</time>
      </trkpt>
      <trkpt lat="44.59796" lon="4.08167">
        <ele>819.78467</ele>
        <time>2021-09-07T12:07:25</time>
      </trkpt>
      <trkpt lat="44.59794" lon="4.08177">
        <ele>819.78467</ele>
        <time>2021-09-07T12:07:26</time>
      </trkpt>
      <trkpt lat="44.59793" lon="4.08187">
        <ele>819.78467</ele>
        <time>2021-09-07T12:07:27</time>
      </trkpt>
      <trkpt lat="44.59793" lon="4.08198">
        <ele>819.78467</ele>
        <time>2021-09-07T12:07:28</time>
      </trkpt>
      <trkpt lat="44.59793" lon="4.08227">
        <ele>812.08466</ele>
        <time>2021-09-07T12:07:31</time>
      </trkpt>
      <trkpt lat="44.5979" lon="4.08236">
        <ele>812.08466</ele>
        <time>2021-09-07T12:07:32</time>
      </trkpt>
      <trkpt lat="44.59784" lon="4.08247">
        <ele>812.08466</ele>
        <time>2021-09-07T12:07:33</time>
      </trkpt>
      <trkpt lat="44.59753" lon="4.08301">
        <ele>812.08466</ele>
        <time>2021-09-07T12:07:39</time>
      </trkpt>
      <trkpt lat="44.59748" lon="4.08321">
        <ele>808.08466</ele>
        <time>2021-09-07T12:07:41</time>
      </trkpt>
      <trkpt lat="44.59749" lon="4.08332">
        <ele>808.08466</ele>
        <time>2021-09-07T12:07:42</time>
      </trkpt>
      <trkpt lat="44.59751" lon="4.08345">
        <ele>808.08466</ele>
        <time>2021-09-07T12:07:43</time>
      </trkpt>
      <trkpt lat="44.59754" lon="4.08355">
        <ele>808.08466</ele>
        <time>2021-09-07T12:07:44</time>
      </trkpt>
      <trkpt lat="44.59758" lon="4.08365">
        <ele>808.08466</ele>
        <time>2021-09-07T12:07:45</time>
      </trkpt>
      <trkpt lat="44.59763" lon="4.08372">
        <ele>808.08466</ele>
        <time>2021-09-07T12:07:46</time>
      </trkpt>
      <trkpt lat="44.59792" lon="4.08409">
        <ele>802.18463</ele>
        <time>2021-09-07T12:07:51</time>
      </trkpt>
      <trkpt lat="44.59815" lon="4.08431">
        <ele>802.18463</ele>
        <time>2021-09-07T12:07:55</time>
      </trkpt>
      <trkpt lat="44.59822" lon="4.08436">
        <ele>802.18463</ele>
        <time>2021-09-07T12:07:56</time>
      </trkpt>
      <trkpt lat="44.59861" lon="4.08461">
        <ele>797.28467</ele>
        <time>2021-09-07T12:08:02</time>
      </trkpt>
      <trkpt lat="44.59865" lon="4.08468">
        <ele>797.28467</ele>
        <time>2021-09-07T12:08:03</time>
      </trkpt>
      <trkpt lat="44.59881" lon="4.08495">
        <ele>797.28467</ele>
        <time>2021-09-07T12:08:07</time>
      </trkpt>
      <trkpt lat="44.59885" lon="4.085">
        <ele>797.28467</ele>
        <time>2021-09-07T12:08:08</time>
      </trkpt>
      <trkpt lat="44.59891" lon="4.08503">
        <ele>797.28467</ele>
        <time>2021-09-07T12:08:09</time>
      </trkpt>
      <trkpt lat="44.59923" lon="4.08527">
        <ele>794.78467</ele>
        <time>2021-09-07T12:08:15</time>
      </trkpt>
      <trkpt lat="44.59925" lon="4.08532">
        <ele>794.78467</ele>
        <time>2021-09-07T12:08:16</time>
      </trkpt>
      <trkpt lat="44.59925" lon="4.08545">
        <ele>794.78467</ele>
        <time>2021-09-07T12:08:18</time>
      </trkpt>
      <trkpt lat="44.59924" lon="4.0855">
        <ele>794.78467</ele>
        <time>2021-09-07T12:08:19</time>
      </trkpt>
      <trkpt lat="44.59923" lon="4.0856">
        <ele>792.718</ele>
        <time>2021-09-07T12:08:21</time>
      </trkpt>
      <trkpt lat="44.59921" lon="4.08562">
        <ele>792.718</ele>
        <time>2021-09-07T12:08:22</time>
      </trkpt>
      <trkpt lat="44.59913" lon="4.08559">
        <ele>792.718</ele>
        <time>2021-09-07T12:08:23</time>
      </trkpt>
      <trkpt lat="44.59911" lon="4.08557">
        <ele>792.718</ele>
        <time>2021-09-07T12:08:24</time>
      </trkpt>
      <trkpt lat="44.59901" lon="4.0855">
        <ele>792.718</ele>
        <time>2021-09-07T12:08:26</time>
      </trkpt>
      <trkpt lat="44.59892" lon="4.08539">
        <ele>792.718</ele>
        <time>2021-09-07T12:08:28</time>
      </trkpt>
      <trkpt lat="44.59879" lon="4.08518">
        <ele>794.68463</ele>
        <time>2021-09-07T12:08:31</time>
      </trkpt>
      <trkpt lat="44.5987" lon="4.08509">
        <ele>794.68463</ele>
        <time>2021-09-07T12:08:33</time>
      </trkpt>
      <trkpt lat="44.59859" lon="4.08503">
        <ele>794.68463</ele>
        <time>2021-09-07T12:08:35</time>
      </trkpt>
      <trkpt lat="44.59855" lon="4.08502">
        <ele>794.68463</ele>
        <time>2021-09-07T12:08:36</time>
      </trkpt>
      <trkpt lat="44.59849" lon="4.08502">
        <ele>794.68463</ele>
        <time>2021-09-07T12:08:37</time>
      </trkpt>
      <trkpt lat="44.59828" lon="4.08492">
        <ele>794.68463</ele>
        <time>2021-09-07T12:08:40</time>
      </trkpt>
      <trkpt lat="44.59817" lon="4.08484">
        <ele>794.58466</ele>
        <time>2021-09-07T12:08:42</time>
      </trkpt>
      <trkpt lat="44.59812" lon="4.08478">
        <ele>794.58466</ele>
        <time>2021-09-07T12:08:43</time>
      </trkpt>
      <trkpt lat="44.59787" lon="4.08458">
        <ele>794.58466</ele>
        <time>2021-09-07T12:08:48</time>
      </trkpt>
      <trkpt lat="44.59737" lon="4.08431">
        <ele>793.68463</ele>
        <time>2021-09-07T12:08:56</time>
      </trkpt>
      <trkpt lat="44.59702" lon="4.08412">
        <ele>794.88464</ele>
        <time>2021-09-07T12:09:01</time>
      </trkpt>
      <trkpt lat="44.59688" lon="4.08399">
        <ele>794.88464</ele>
        <time>2021-09-07T12:09:03</time>
      </trkpt>
      <trkpt lat="44.59666" lon="4.08378">
        <ele>794.88464</ele>
        <time>2021-09-07T12:09:06</time>
      </trkpt>
      <trkpt lat="44.59632" lon="4.08341">
        <ele>782.78467</ele>
        <time>2021-09-07T12:09:12</time>
      </trkpt>
      <trkpt lat="44.59626" lon="4.08339">
        <ele>782.78467</ele>
        <time>2021-09-07T12:09:13</time>
      </trkpt>
      <trkpt lat="44.5962" lon="4.08338">
        <ele>782.78467</ele>
        <time>2021-09-07T12:09:14</time>
      </trkpt>
      <trkpt lat="44.59615" lon="4.08338">
        <ele>782.78467</ele>
        <time>2021-09-07T12:09:15</time>
      </trkpt>
      <trkpt lat="44.5961" lon="4.08341">
        <ele>782.78467</ele>
        <time>2021-09-07T12:09:16</time>
      </trkpt>
      <trkpt lat="44.59606" lon="4.08346">
        <ele>782.78467</ele>
        <time>2021-09-07T12:09:17</time>
      </trkpt>
      <trkpt lat="44.59602" lon="4.08353">
        <ele>782.78467</ele>
        <time>2021-09-07T12:09:18</time>
      </trkpt>
      <trkpt lat="44.59599" lon="4.0836">
        <ele>782.78467</ele>
        <time>2021-09-07T12:09:19</time>
      </trkpt>
      <trkpt lat="44.59595" lon="4.08376">
        <ele>779.78467</ele>
        <time>2021-09-07T12:09:21</time>
      </trkpt>
      <trkpt lat="44.59595" lon="4.08384">
        <ele>779.78467</ele>
        <time>2021-09-07T12:09:22</time>
      </trkpt>
      <trkpt lat="44.59596" lon="4.08392">
        <ele>779.78467</ele>
        <time>2021-09-07T12:09:23</time>
      </trkpt>
      <trkpt lat="44.59601" lon="4.084">
        <ele>779.78467</ele>
        <time>2021-09-07T12:09:24</time>
      </trkpt>
      <trkpt lat="44.59606" lon="4.08407">
        <ele>779.78467</ele>
        <time>2021-09-07T12:09:25</time>
      </trkpt>
      <trkpt lat="44.59612" lon="4.08411">
        <ele>779.78467</ele>
        <time>2021-09-07T12:09:26</time>
      </trkpt>
      <trkpt lat="44.59618" lon="4.08412">
        <ele>779.78467</ele>
        <time>2021-09-07T12:09:27</time>
      </trkpt>
      <trkpt lat="44.59625" lon="4.08412">
        <ele>779.78467</ele>
        <time>2021-09-07T12:09:28</time>
      </trkpt>
      <trkpt lat="44.59639" lon="4.08408">
        <ele>779.78467</ele>
        <time>2021-09-07T12:09:30</time>
      </trkpt>
      <trkpt lat="44.59656" lon="4.08406">
        <ele>766.08466</ele>
        <time>2021-09-07T12:09:33</time>
      </trkpt>
      <trkpt lat="44.59662" lon="4.08407">
        <ele>766.08466</ele>
        <time>2021-09-07T12:09:34</time>
      </trkpt>
      <trkpt lat="44.59667" lon="4.08409">
        <ele>766.08466</ele>
        <time>2021-09-07T12:09:35</time>
      </trkpt>
      <trkpt lat="44.5967" lon="4.08414">
        <ele>766.08466</ele>
        <time>2021-09-07T12:09:38</time>
      </trkpt>
      <trkpt lat="44.59676" lon="4.08424">
        <ele>766.08466</ele>
        <time>2021-09-07T12:09:40</time>
      </trkpt>
      <trkpt lat="44.59683" lon="4.0843">
        <ele>762.28467</ele>
        <time>2021-09-07T12:09:41</time>
      </trkpt>
      <trkpt lat="44.59707" lon="4.08451">
        <ele>762.28467</ele>
        <time>2021-09-07T12:09:45</time>
      </trkpt>
      <trkpt lat="44.59731" lon="4.08472">
        <ele>762.28467</ele>
        <time>2021-09-07T12:09:49</time>
      </trkpt>
      <trkpt lat="44.59744" lon="4.08483">
        <ele>767.58466</ele>
        <time>2021-09-07T12:09:51</time>
      </trkpt>
      <trkpt lat="44.59751" lon="4.08497">
        <ele>767.58466</ele>
        <time>2021-09-07T12:09:53</time>
      </trkpt>
      <trkpt lat="44.59751" lon="4.08507">
        <ele>767.58466</ele>
        <time>2021-09-07T12:09:54</time>
      </trkpt>
      <trkpt lat="44.59756" lon="4.08539">
        <ele>767.58466</ele>
        <time>2021-09-07T12:09:58</time>
      </trkpt>
      <trkpt lat="44.59753" lon="4.0855">
        <ele>767.58466</ele>
        <time>2021-09-07T12:09:59</time>
      </trkpt>
      <trkpt lat="44.5975" lon="4.08592">
        <ele>764.58466</ele>
        <time>2021-09-07T12:10:03</time>
      </trkpt>
      <trkpt lat="44.59749" lon="4.08609">
        <ele>764.58466</ele>
        <time>2021-09-07T12:10:05</time>
      </trkpt>
      <trkpt lat="44.59755" lon="4.08643">
        <ele>764.58466</ele>
        <time>2021-09-07T12:10:09</time>
      </trkpt>
      <trkpt lat="44.59758" lon="4.08661">
        <ele>760.58466</ele>
        <time>2021-09-07T12:10:11</time>
      </trkpt>
      <trkpt lat="44.59758" lon="4.08674">
        <ele>760.58466</ele>
        <time>2021-09-07T12:10:13</time>
      </trkpt>
      <trkpt lat="44.59757" lon="4.08682">
        <ele>760.58466</ele>
        <time>2021-09-07T12:10:14</time>
      </trkpt>
      <trkpt lat="44.59752" lon="4.08706">
        <ele>760.58466</ele>
        <time>2021-09-07T12:10:17</time>
      </trkpt>
      <trkpt lat="44.5974" lon="4.08732">
        <ele>760.58466</ele>
        <time>2021-09-07T12:10:20</time>
      </trkpt>
      <trkpt lat="44.5972" lon="4.08765">
        <ele>753.28467</ele>
        <time>2021-09-07T12:10:25</time>
      </trkpt>
      <trkpt lat="44.59715" lon="4.08769">
        <ele>753.28467</ele>
        <time>2021-09-07T12:10:26</time>
      </trkpt>
      <trkpt lat="44.59704" lon="4.08773">
        <ele>753.28467</ele>
        <time>2021-09-07T12:10:28</time>
      </trkpt>
      <trkpt lat="44.59704" lon="4.08778">
        <ele>753.28467</ele>
        <time>2021-09-07T12:10:29</time>
      </trkpt>
      <trkpt lat="44.59699" lon="4.08789">
        <ele>751.28467</ele>
        <time>2021-09-07T12:10:31</time>
      </trkpt>
      <trkpt lat="44.59686" lon="4.08795">
        <ele>751.28467</ele>
        <time>2021-09-07T12:10:32</time>
      </trkpt>
      <trkpt lat="44.59672" lon="4.08807">
        <ele>751.28467</ele>
        <time>2021-09-07T12:10:34</time>
      </trkpt>
      <trkpt lat="44.59653" lon="4.08828">
        <ele>751.28467</ele>
        <time>2021-09-07T12:10:37</time>
      </trkpt>
      <trkpt lat="44.59628" lon="4.08846">
        <ele>745.28467</ele>
        <time>2021-09-07T12:10:42</time>
      </trkpt>
      <trkpt lat="44.59609" lon="4.08849">
        <ele>745.28467</ele>
        <time>2021-09-07T12:10:44</time>
      </trkpt>
      <trkpt lat="44.59598" lon="4.08854">
        <ele>745.28467</ele>
        <time>2021-09-07T12:10:46</time>
      </trkpt>
      <trkpt lat="44.59576" lon="4.08866">
        <ele>745.28467</ele>
        <time>2021-09-07T12:10:48</time>
      </trkpt>
      <trkpt lat="44.59574" lon="4.08874">
        <ele>745.28467</ele>
        <time>2021-09-07T12:10:49</time>
      </trkpt>
      <trkpt lat="44.59565" lon="4.08901">
        <ele>739.18463</ele>
        <time>2021-09-07T12:10:52</time>
      </trkpt>
      <trkpt lat="44.59568" lon="4.08912">
        <ele>739.18463</ele>
        <time>2021-09-07T12:10:53</time>
      </trkpt>
      <trkpt lat="44.59575" lon="4.0895">
        <ele>739.18463</ele>
        <time>2021-09-07T12:10:57</time>
      </trkpt>
      <trkpt lat="44.5958" lon="4.08961">
        <ele>739.18463</ele>
        <time>2021-09-07T12:10:58</time>
      </trkpt>
      <trkpt lat="44.59598" lon="4.08997">
        <ele>727.08466</ele>
        <time>2021-09-07T12:11:02</time>
      </trkpt>
      <trkpt lat="44.59609" lon="4.09012">
        <ele>727.08466</ele>
        <time>2021-09-07T12:11:05</time>
      </trkpt>
      <trkpt lat="44.59612" lon="4.0901">
        <ele>727.08466</ele>
        <time>2021-09-07T12:11:06</time>
      </trkpt>
      <trkpt lat="44.59617" lon="4.09009">
        <ele>727.08466</ele>
        <time>2021-09-07T12:11:07</time>
      </trkpt>
      <trkpt lat="44.59649" lon="4.09003">
        <ele>720.88464</ele>
        <time>2021-09-07T12:11:12</time>
      </trkpt>
      <trkpt lat="44.59654" lon="4.09004">
        <ele>720.88464</ele>
        <time>2021-09-07T12:11:13</time>
      </trkpt>
      <trkpt lat="44.59663" lon="4.09009">
        <ele>720.88464</ele>
        <time>2021-09-07T12:11:15</time>
      </trkpt>
      <trkpt lat="44.59669" lon="4.09013">
        <ele>720.88464</ele>
        <time>2021-09-07T12:11:16</time>
      </trkpt>
      <trkpt lat="44.5967" lon="4.09018">
        <ele>720.88464</ele>
        <time>2021-09-07T12:11:17</time>
      </trkpt>
      <trkpt lat="44.59672" lon="4.09023">
        <ele>720.88464</ele>
        <time>2021-09-07T12:11:18</time>
      </trkpt>
      <trkpt lat="44.59683" lon="4.09044">
        <ele>720.88464</ele>
        <time>2021-09-07T12:11:20</time>
      </trkpt>
      <trkpt lat="44.59687" lon="4.0906">
        <ele>723.38464</ele>
        <time>2021-09-07T12:11:22</time>
      </trkpt>
      <trkpt lat="44.59691" lon="4.09078">
        <ele>723.38464</ele>
        <time>2021-09-07T12:11:24</time>
      </trkpt>
      <trkpt lat="44.59694" lon="4.09107">
        <ele>723.38464</ele>
        <time>2021-09-07T12:11:26</time>
      </trkpt>
      <trkpt lat="44.5969" lon="4.09118">
        <ele>723.38464</ele>
        <time>2021-09-07T12:11:27</time>
      </trkpt>
      <trkpt lat="44.59687" lon="4.09145">
        <ele>723.38464</ele>
        <time>2021-09-07T12:11:29</time>
      </trkpt>
      <trkpt lat="44.59677" lon="4.09152">
        <ele>723.38464</ele>
        <time>2021-09-07T12:11:30</time>
      </trkpt>
      <trkpt lat="44.59648" lon="4.09207">
        <ele>721.58466</ele>
        <time>2021-09-07T12:11:36</time>
      </trkpt>
      <trkpt lat="44.59652" lon="4.09221">
        <ele>721.58466</ele>
        <time>2021-09-07T12:11:37</time>
      </trkpt>
      <trkpt lat="44.59651" lon="4.09248">
        <ele>721.58466</ele>
        <time>2021-09-07T12:11:40</time>
      </trkpt>
      <trkpt lat="44.59649" lon="4.09259">
        <ele>716.88464</ele>
        <time>2021-09-07T12:11:41</time>
      </trkpt>
      <trkpt lat="44.59645" lon="4.09269">
        <ele>716.88464</ele>
        <time>2021-09-07T12:11:42</time>
      </trkpt>
      <trkpt lat="44.59631" lon="4.09283">
        <ele>716.88464</ele>
        <time>2021-09-07T12:11:45</time>
      </trkpt>
      <trkpt lat="44.59602" lon="4.09316">
        <ele>716.88464</ele>
        <time>2021-09-07T12:11:50</time>
      </trkpt>
      <trkpt lat="44.59596" lon="4.09328">
        <ele>718.55133</ele>
        <time>2021-09-07T12:11:52</time>
      </trkpt>
      <trkpt lat="44.59594" lon="4.09339">
        <ele>718.55133</ele>
        <time>2021-09-07T12:11:53</time>
      </trkpt>
      <trkpt lat="44.59592" lon="4.09348">
        <ele>718.55133</ele>
        <time>2021-09-07T12:11:54</time>
      </trkpt>
      <trkpt lat="44.59585" lon="4.09366">
        <ele>718.55133</ele>
        <time>2021-09-07T12:11:56</time>
      </trkpt>
      <trkpt lat="44.59545" lon="4.09471">
        <ele>721.08466</ele>
        <time>2021-09-07T12:12:05</time>
      </trkpt>
      <trkpt lat="44.59542" lon="4.09514">
        <ele>721.08466</ele>
        <time>2021-09-07T12:12:09</time>
      </trkpt>
      <trkpt lat="44.59535" lon="4.09537">
        <ele>720.38464</ele>
        <time>2021-09-07T12:12:12</time>
      </trkpt>
      <trkpt lat="44.59531" lon="4.09546">
        <ele>720.38464</ele>
        <time>2021-09-07T12:12:13</time>
      </trkpt>
      <trkpt lat="44.5952" lon="4.09575">
        <ele>720.38464</ele>
        <time>2021-09-07T12:12:17</time>
      </trkpt>
      <trkpt lat="44.59512" lon="4.09597">
        <ele>720.38464</ele>
        <time>2021-09-07T12:12:19</time>
      </trkpt>
      <trkpt lat="44.59504" lon="4.09627">
        <ele>699.08466</ele>
        <time>2021-09-07T12:12:22</time>
      </trkpt>
      <trkpt lat="44.59505" lon="4.09667">
        <ele>699.08466</ele>
        <time>2021-09-07T12:12:25</time>
      </trkpt>
      <trkpt lat="44.59507" lon="4.09676">
        <ele>699.08466</ele>
        <time>2021-09-07T12:12:26</time>
      </trkpt>
      <trkpt lat="44.59506" lon="4.09686">
        <ele>699.08466</ele>
        <time>2021-09-07T12:12:27</time>
      </trkpt>
      <trkpt lat="44.59501" lon="4.09709">
        <ele>699.08466</ele>
        <time>2021-09-07T12:12:29</time>
      </trkpt>
      <trkpt lat="44.59497" lon="4.09729">
        <ele>699.08466</ele>
        <time>2021-09-07T12:12:31</time>
      </trkpt>
      <trkpt lat="44.59485" lon="4.09778">
        <ele>699.18463</ele>
        <time>2021-09-07T12:12:37</time>
      </trkpt>
      <trkpt lat="44.59486" lon="4.09786">
        <ele>699.18463</ele>
        <time>2021-09-07T12:12:38</time>
      </trkpt>
      <trkpt lat="44.59487" lon="4.09795">
        <ele>699.18463</ele>
        <time>2021-09-07T12:12:39</time>
      </trkpt>
      <trkpt lat="44.59494" lon="4.09809">
        <ele>699.18463</ele>
        <time>2021-09-07T12:12:41</time>
      </trkpt>
      <trkpt lat="44.59498" lon="4.09814">
        <ele>692.4847</ele>
        <time>2021-09-07T12:12:42</time>
      </trkpt>
      <trkpt lat="44.59505" lon="4.09819">
        <ele>692.4847</ele>
        <time>2021-09-07T12:12:43</time>
      </trkpt>
      <trkpt lat="44.59524" lon="4.09839">
        <ele>692.4847</ele>
        <time>2021-09-07T12:12:46</time>
      </trkpt>
      <trkpt lat="44.59528" lon="4.09848">
        <ele>692.4847</ele>
        <time>2021-09-07T12:12:47</time>
      </trkpt>
      <trkpt lat="44.59532" lon="4.09858">
        <ele>692.4847</ele>
        <time>2021-09-07T12:12:48</time>
      </trkpt>
      <trkpt lat="44.5955" lon="4.09908">
        <ele>700.08466</ele>
        <time>2021-09-07T12:12:53</time>
      </trkpt>
      <trkpt lat="44.59556" lon="4.09915">
        <ele>700.08466</ele>
        <time>2021-09-07T12:12:54</time>
      </trkpt>
      <trkpt lat="44.59583" lon="4.09951">
        <ele>700.08466</ele>
        <time>2021-09-07T12:12:59</time>
      </trkpt>
      <trkpt lat="44.59597" lon="4.09973">
        <ele>683.4847</ele>
        <time>2021-09-07T12:13:02</time>
      </trkpt>
      <trkpt lat="44.59608" lon="4.09981">
        <ele>683.4847</ele>
        <time>2021-09-07T12:13:04</time>
      </trkpt>
      <trkpt lat="44.59621" lon="4.09978">
        <ele>683.4847</ele>
        <time>2021-09-07T12:13:06</time>
      </trkpt>
      <trkpt lat="44.59628" lon="4.09976">
        <ele>683.4847</ele>
        <time>2021-09-07T12:13:07</time>
      </trkpt>
      <trkpt lat="44.59646" lon="4.09976">
        <ele>683.4847</ele>
        <time>2021-09-07T12:13:10</time>
      </trkpt>
      <trkpt lat="44.59657" lon="4.09981">
        <ele>683.4847</ele>
        <time>2021-09-07T12:13:12</time>
      </trkpt>
      <trkpt lat="44.59669" lon="4.09992">
        <ele>683.4847</ele>
        <time>2021-09-07T12:13:14</time>
      </trkpt>
      <trkpt lat="44.5967" lon="4.10002">
        <ele>683.4847</ele>
        <time>2021-09-07T12:13:15</time>
      </trkpt>
      <trkpt lat="44.59671" lon="4.10013">
        <ele>683.4847</ele>
        <time>2021-09-07T12:13:17</time>
      </trkpt>
      <trkpt lat="44.59663" lon="4.10014">
        <ele>683.4847</ele>
        <time>2021-09-07T12:13:18</time>
      </trkpt>
      <trkpt lat="44.59656" lon="4.10009">
        <ele>683.4847</ele>
        <time>2021-09-07T12:13:19</time>
      </trkpt>
      <trkpt lat="44.59633" lon="4.10007">
        <ele>676.68463</ele>
        <time>2021-09-07T12:13:23</time>
      </trkpt>
      <trkpt lat="44.59615" lon="4.10004">
        <ele>676.68463</ele>
        <time>2021-09-07T12:13:26</time>
      </trkpt>
      <trkpt lat="44.59598" lon="4.09995">
        <ele>676.68463</ele>
        <time>2021-09-07T12:13:29</time>
      </trkpt>
      <trkpt lat="44.59584" lon="4.09988">
        <ele>676.68463</ele>
        <time>2021-09-07T12:13:31</time>
      </trkpt>
      <trkpt lat="44.59563" lon="4.09973">
        <ele>675.58466</ele>
        <time>2021-09-07T12:13:34</time>
      </trkpt>
      <trkpt lat="44.59529" lon="4.09947">
        <ele>675.58466</ele>
        <time>2021-09-07T12:13:39</time>
      </trkpt>
      <trkpt lat="44.59511" lon="4.09924">
        <ele>669.68463</ele>
        <time>2021-09-07T12:13:42</time>
      </trkpt>
      <trkpt lat="44.59494" lon="4.09902">
        <ele>669.68463</ele>
        <time>2021-09-07T12:13:45</time>
      </trkpt>
      <trkpt lat="44.59489" lon="4.09899">
        <ele>669.68463</ele>
        <time>2021-09-07T12:13:46</time>
      </trkpt>
      <trkpt lat="44.59479" lon="4.09893">
        <ele>669.68463</ele>
        <time>2021-09-07T12:13:48</time>
      </trkpt>
      <trkpt lat="44.59472" lon="4.09893">
        <ele>669.68463</ele>
        <time>2021-09-07T12:13:49</time>
      </trkpt>
      <trkpt lat="44.59467" lon="4.09895">
        <ele>669.68463</ele>
        <time>2021-09-07T12:13:50</time>
      </trkpt>
      <trkpt lat="44.59445" lon="4.099">
        <ele>659.88464</ele>
        <time>2021-09-07T12:13:54</time>
      </trkpt>
      <trkpt lat="44.59428" lon="4.09904">
        <ele>659.88464</ele>
        <time>2021-09-07T12:13:56</time>
      </trkpt>
      <trkpt lat="44.59414" lon="4.09903">
        <ele>659.88464</ele>
        <time>2021-09-07T12:13:58</time>
      </trkpt>
      <trkpt lat="44.59402" lon="4.099">
        <ele>659.88464</ele>
        <time>2021-09-07T12:14:00</time>
      </trkpt>
      <trkpt lat="44.59373" lon="4.09886">
        <ele>668.58466</ele>
        <time>2021-09-07T12:14:05</time>
      </trkpt>
      <trkpt lat="44.59349" lon="4.09883">
        <ele>668.58466</ele>
        <time>2021-09-07T12:14:09</time>
      </trkpt>
      <trkpt lat="44.59344" lon="4.09878">
        <ele>668.58466</ele>
        <time>2021-09-07T12:14:10</time>
      </trkpt>
      <trkpt lat="44.59331" lon="4.09863">
        <ele>672.4847</ele>
        <time>2021-09-07T12:14:12</time>
      </trkpt>
      <trkpt lat="44.59309" lon="4.09831">
        <ele>672.4847</ele>
        <time>2021-09-07T12:14:15</time>
      </trkpt>
      <trkpt lat="44.59304" lon="4.09809">
        <ele>672.4847</ele>
        <time>2021-09-07T12:14:17</time>
      </trkpt>
      <trkpt lat="44.59301" lon="4.09783">
        <ele>672.4847</ele>
        <time>2021-09-07T12:14:19</time>
      </trkpt>
      <trkpt lat="44.59305" lon="4.0976">
        <ele>672.4847</ele>
        <time>2021-09-07T12:14:21</time>
      </trkpt>
      <trkpt lat="44.59309" lon="4.09695">
        <ele>665.58466</ele>
        <time>2021-09-07T12:14:28</time>
      </trkpt>
      <trkpt lat="44.59307" lon="4.09689">
        <ele>665.58466</ele>
        <time>2021-09-07T12:14:29</time>
      </trkpt>
      <trkpt lat="44.59304" lon="4.09678">
        <ele>665.58466</ele>
        <time>2021-09-07T12:14:31</time>
      </trkpt>
      <trkpt lat="44.59303" lon="4.0967">
        <ele>657.28467</ele>
        <time>2021-09-07T12:14:32</time>
      </trkpt>
      <trkpt lat="44.593" lon="4.09668">
        <ele>657.28467</ele>
        <time>2021-09-07T12:14:33</time>
      </trkpt>
      <trkpt lat="44.59298" lon="4.09666">
        <ele>657.28467</ele>
        <time>2021-09-07T12:14:34</time>
      </trkpt>
      <trkpt lat="44.59297" lon="4.09666">
        <ele>657.28467</ele>
        <time>2021-09-07T12:14:35</time>
      </trkpt>
      <trkpt lat="44.59295" lon="4.09667">
        <ele>657.28467</ele>
        <time>2021-09-07T12:14:36</time>
      </trkpt>
      <trkpt lat="44.5929" lon="4.09672">
        <ele>657.28467</ele>
        <time>2021-09-07T12:14:38</time>
      </trkpt>
      <trkpt lat="44.59283" lon="4.09687">
        <ele>657.28467</ele>
        <time>2021-09-07T12:14:40</time>
      </trkpt>
      <trkpt lat="44.59283" lon="4.09693">
        <ele>657.28467</ele>
        <time>2021-09-07T12:14:41</time>
      </trkpt>
      <trkpt lat="44.59281" lon="4.09744">
        <ele>645.08466</ele>
        <time>2021-09-07T12:14:46</time>
      </trkpt>
      <trkpt lat="44.59275" lon="4.09773">
        <ele>645.08466</ele>
        <time>2021-09-07T12:14:48</time>
      </trkpt>
      <trkpt lat="44.59276" lon="4.09795">
        <ele>645.08466</ele>
        <time>2021-09-07T12:14:50</time>
      </trkpt>
      <trkpt lat="44.59277" lon="4.09841">
        <ele>644.28467</ele>
        <time>2021-09-07T12:14:54</time>
      </trkpt>
      <trkpt lat="44.59275" lon="4.09878">
        <ele>644.28467</ele>
        <time>2021-09-07T12:14:58</time>
      </trkpt>
      <trkpt lat="44.59278" lon="4.09886">
        <ele>644.28467</ele>
        <time>2021-09-07T12:14:59</time>
      </trkpt>
      <trkpt lat="44.59282" lon="4.09895">
        <ele>644.28467</ele>
        <time>2021-09-07T12:15:00</time>
      </trkpt>
      <trkpt lat="44.59289" lon="4.09903">
        <ele>644.28467</ele>
        <time>2021-09-07T12:15:01</time>
      </trkpt>
      <trkpt lat="44.59315" lon="4.09924">
        <ele>642.28467</ele>
        <time>2021-09-07T12:15:05</time>
      </trkpt>
      <trkpt lat="44.59326" lon="4.09936">
        <ele>642.28467</ele>
        <time>2021-09-07T12:15:07</time>
      </trkpt>
      <trkpt lat="44.59337" lon="4.09949">
        <ele>642.28467</ele>
        <time>2021-09-07T12:15:10</time>
      </trkpt>
      <trkpt lat="44.59349" lon="4.0997">
        <ele>639.18463</ele>
        <time>2021-09-07T12:15:14</time>
      </trkpt>
      <trkpt lat="44.59365" lon="4.1">
        <ele>639.18463</ele>
        <time>2021-09-07T12:15:18</time>
      </trkpt>
      <trkpt lat="44.59374" lon="4.10005">
        <ele>639.18463</ele>
        <time>2021-09-07T12:15:19</time>
      </trkpt>
      <trkpt lat="44.59411" lon="4.10018">
        <ele>642.4847</ele>
        <time>2021-09-07T12:15:23</time>
      </trkpt>
      <trkpt lat="44.59425" lon="4.10024">
        <ele>642.4847</ele>
        <time>2021-09-07T12:15:25</time>
      </trkpt>
      <trkpt lat="44.5943" lon="4.10033">
        <ele>642.4847</ele>
        <time>2021-09-07T12:15:26</time>
      </trkpt>
      <trkpt lat="44.59433" lon="4.10042">
        <ele>642.4847</ele>
        <time>2021-09-07T12:15:27</time>
      </trkpt>
      <trkpt lat="44.59449" lon="4.10076">
        <ele>642.4847</ele>
        <time>2021-09-07T12:15:31</time>
      </trkpt>
      <trkpt lat="44.59456" lon="4.10083">
        <ele>635.28467</ele>
        <time>2021-09-07T12:15:32</time>
      </trkpt>
      <trkpt lat="44.59463" lon="4.10087">
        <ele>635.28467</ele>
        <time>2021-09-07T12:15:33</time>
      </trkpt>
      <trkpt lat="44.59477" lon="4.10093">
        <ele>635.28467</ele>
        <time>2021-09-07T12:15:35</time>
      </trkpt>
      <trkpt lat="44.59483" lon="4.10096">
        <ele>635.28467</ele>
        <time>2021-09-07T12:15:36</time>
      </trkpt>
      <trkpt lat="44.59485" lon="4.10101">
        <ele>635.28467</ele>
        <time>2021-09-07T12:15:37</time>
      </trkpt>
      <trkpt lat="44.5949" lon="4.10114">
        <ele>635.28467</ele>
        <time>2021-09-07T12:15:39</time>
      </trkpt>
      <trkpt lat="44.5949" lon="4.10122">
        <ele>635.28467</ele>
        <time>2021-09-07T12:15:40</time>
      </trkpt>
      <trkpt lat="44.59489" lon="4.10152">
        <ele>633.18463</ele>
        <time>2021-09-07T12:15:43</time>
      </trkpt>
      <trkpt lat="44.59491" lon="4.10197">
        <ele>633.18463</ele>
        <time>2021-09-07T12:15:47</time>
      </trkpt>
      <trkpt lat="44.59499" lon="4.10272">
        <ele>631.28467</ele>
        <time>2021-09-07T12:15:54</time>
      </trkpt>
      <trkpt lat="44.59509" lon="4.10325">
        <ele>631.28467</ele>
        <time>2021-09-07T12:15:59</time>
      </trkpt>
      <trkpt lat="44.59515" lon="4.1041">
        <ele>616.9847</ele>
        <time>2021-09-07T12:16:07</time>
      </trkpt>
      <trkpt lat="44.59518" lon="4.10442">
        <ele>616.9847</ele>
        <time>2021-09-07T12:16:10</time>
      </trkpt>
      <trkpt lat="44.59514" lon="4.10462">
        <ele>615.68463</ele>
        <time>2021-09-07T12:16:12</time>
      </trkpt>
      <trkpt lat="44.59506" lon="4.10555">
        <ele>615.68463</ele>
        <time>2021-09-07T12:16:21</time>
      </trkpt>
      <trkpt lat="44.595" lon="4.10574">
        <ele>610.38464</ele>
        <time>2021-09-07T12:16:23</time>
      </trkpt>
      <trkpt lat="44.59405" lon="4.10831">
        <ele>603.18463</ele>
        <time>2021-09-07T12:16:46</time>
      </trkpt>
      <trkpt lat="44.59342" lon="4.10966">
        <ele>591.58466</ele>
        <time>2021-09-07T12:17:00</time>
      </trkpt>
      <trkpt lat="44.5934" lon="4.10977">
        <ele>591.58466</ele>
        <time>2021-09-07T12:17:01</time>
      </trkpt>
      <trkpt lat="44.59304" lon="4.11064">
        <ele>581.88464</ele>
        <time>2021-09-07T12:17:11</time>
      </trkpt>
      <trkpt lat="44.59298" lon="4.11085">
        <ele>576.38464</ele>
        <time>2021-09-07T12:17:14</time>
      </trkpt>
      <trkpt lat="44.59296" lon="4.11091">
        <ele>576.38464</ele>
        <time>2021-09-07T12:17:15</time>
      </trkpt>
      <trkpt lat="44.59295" lon="4.11097">
        <ele>576.38464</ele>
        <time>2021-09-07T12:17:16</time>
      </trkpt>
      <trkpt lat="44.59298" lon="4.11105">
        <ele>576.38464</ele>
        <time>2021-09-07T12:17:17</time>
      </trkpt>
      <trkpt lat="44.59306" lon="4.11133">
        <ele>576.38464</ele>
        <time>2021-09-07T12:17:21</time>
      </trkpt>
      <trkpt lat="44.59306" lon="4.11138">
        <ele>575.28467</ele>
        <time>2021-09-07T12:17:22</time>
      </trkpt>
      <trkpt lat="44.59304" lon="4.11144">
        <ele>575.28467</ele>
        <time>2021-09-07T12:17:23</time>
      </trkpt>
      <trkpt lat="44.59302" lon="4.11158">
        <ele>575.28467</ele>
        <time>2021-09-07T12:17:25</time>
      </trkpt>
      <trkpt lat="44.59294" lon="4.11177">
        <ele>575.28467</ele>
        <time>2021-09-07T12:17:28</time>
      </trkpt>
      <trkpt lat="44.59284" lon="4.11187">
        <ele>575.28467</ele>
        <time>2021-09-07T12:17:30</time>
      </trkpt>
      <trkpt lat="44.59274" lon="4.11191">
        <ele>575.28467</ele>
        <time>2021-09-07T12:17:31</time>
      </trkpt>
      <trkpt lat="44.59269" lon="4.1119">
        <ele>569.58466</ele>
        <time>2021-09-07T12:17:33</time>
      </trkpt>
      <trkpt lat="44.59263" lon="4.1119">
        <ele>569.58466</ele>
        <time>2021-09-07T12:17:34</time>
      </trkpt>
      <trkpt lat="44.5924" lon="4.11189">
        <ele>569.58466</ele>
        <time>2021-09-07T12:17:38</time>
      </trkpt>
      <trkpt lat="44.59236" lon="4.11192">
        <ele>569.58466</ele>
        <time>2021-09-07T12:17:39</time>
      </trkpt>
      <trkpt lat="44.59184" lon="4.11227">
        <ele>565.08466</ele>
        <time>2021-09-07T12:17:48</time>
      </trkpt>
      <trkpt lat="44.59134" lon="4.11255">
        <ele>564.88464</ele>
        <time>2021-09-07T12:17:56</time>
      </trkpt>
      <trkpt lat="44.59129" lon="4.11266">
        <ele>564.88464</ele>
        <time>2021-09-07T12:17:58</time>
      </trkpt>
      <trkpt lat="44.59126" lon="4.11272">
        <ele>564.88464</ele>
        <time>2021-09-07T12:17:59</time>
      </trkpt>
      <trkpt lat="44.59114" lon="4.11298">
        <ele>560.4847</ele>
        <time>2021-09-07T12:18:03</time>
      </trkpt>
      <trkpt lat="44.59105" lon="4.11323">
        <ele>560.4847</ele>
        <time>2021-09-07T12:18:06</time>
      </trkpt>
      <trkpt lat="44.59105" lon="4.11336">
        <ele>560.4847</ele>
        <time>2021-09-07T12:18:08</time>
      </trkpt>
      <trkpt lat="44.59104" lon="4.11344">
        <ele>560.4847</ele>
        <time>2021-09-07T12:18:09</time>
      </trkpt>
      <trkpt lat="44.59102" lon="4.11359">
        <ele>560.4847</ele>
        <time>2021-09-07T12:18:11</time>
      </trkpt>
      <trkpt lat="44.59086" lon="4.11451">
        <ele>558.08466</ele>
        <time>2021-09-07T12:18:23</time>
      </trkpt>
      <trkpt lat="44.59075" lon="4.11514">
        <ele>556.4847</ele>
        <time>2021-09-07T12:18:32</time>
      </trkpt>
      <trkpt lat="44.59074" lon="4.11528">
        <ele>556.4847</ele>
        <time>2021-09-07T12:18:34</time>
      </trkpt>
      <trkpt lat="44.5907" lon="4.11655">
        <ele>552.4847</ele>
        <time>2021-09-07T12:18:58</time>
      </trkpt>
      <trkpt lat="44.59066" lon="4.11691">
        <ele>552.38464</ele>
        <time>2021-09-07T12:19:04</time>
      </trkpt>
      <trkpt lat="44.59062" lon="4.11703">
        <ele>552.38464</ele>
        <time>2021-09-07T12:19:10</time>
      </trkpt>
      <trkpt lat="44.59062" lon="4.11704">
        <ele>552.38464</ele>
        <time>2021-09-07T12:19:14</time>
      </trkpt>
      <trkpt lat="44.59063" lon="4.11705">
        <ele>552.38464</ele>
        <time>2021-09-07T12:19:15</time>
      </trkpt>
      <trkpt lat="44.59064" lon="4.11708">
        <ele>552.38464</ele>
        <time>2021-09-07T12:19:17</time>
      </trkpt>
      <trkpt lat="44.59069" lon="4.11714">
        <ele>552.38464</ele>
        <time>2021-09-07T12:19:20</time>
      </trkpt>
      <trkpt lat="44.59068" lon="4.1172">
        <ele>552.58466</ele>
        <time>2021-09-07T12:19:23</time>
      </trkpt>
      <trkpt lat="44.59063" lon="4.11735">
        <ele>552.58466</ele>
        <time>2021-09-07T12:19:28</time>
      </trkpt>
      <trkpt lat="44.59063" lon="4.11737">
        <ele>552.58466</ele>
        <time>2021-09-07T12:19:29</time>
      </trkpt>
      <trkpt lat="44.59063" lon="4.11739">
        <ele>552.58466</ele>
        <time>2021-09-07T12:19:30</time>
      </trkpt>
      <trkpt lat="44.59064" lon="4.11742">
        <ele>549.218</ele>
        <time>2021-09-07T12:19:32</time>
      </trkpt>
      <trkpt lat="44.59063" lon="4.11748">
        <ele>549.218</ele>
        <time>2021-09-07T12:19:35</time>
      </trkpt>
      <trkpt lat="44.59065" lon="4.11758">
        <ele>549.218</ele>
        <time>2021-09-07T12:19:39</time>
      </trkpt>
      <trkpt lat="44.59065" lon="4.11761">
        <ele>549.218</ele>
        <time>2021-09-07T12:19:41</time>
      </trkpt>
      <trkpt lat="44.59065" lon="4.11762">
        <ele>548.18463</ele>
        <time>2021-09-07T12:19:42</time>
      </trkpt>
      <trkpt lat="44.59065" lon="4.11762">
        <ele>548.18463</ele>
        <time>2021-09-07T12:19:43</time>
      </trkpt>
      <trkpt lat="44.59065" lon="4.11763">
        <ele>548.18463</ele>
        <time>2021-09-07T12:19:44</time>
      </trkpt>
      <trkpt lat="44.59065" lon="4.11764">
        <ele>548.18463</ele>
        <time>2021-09-07T12:19:45</time>
      </trkpt>
      <trkpt lat="44.59065" lon="4.11766">
        <ele>548.18463</ele>
        <time>2021-09-07T12:19:47</time>
      </trkpt>
      <trkpt lat="44.59066" lon="4.11767">
        <ele>548.18463</ele>
        <time>2021-09-07T12:19:49</time>
      </trkpt>
      <trkpt lat="44.59066" lon="4.11768">
        <ele>548.18463</ele>
        <time>2021-09-07T12:19:50</time>
      </trkpt>
      <trkpt lat="44.59066" lon="4.11768">
        <ele>547.518</ele>
        <time>2021-09-07T12:19:53</time>
      </trkpt>
      <trkpt lat="44.59066" lon="4.11768">
        <ele>547.518</ele>
        <time>2021-09-07T12:19:55</time>
      </trkpt>
      <trkpt lat="44.59069" lon="4.11769">
        <ele>547.518</ele>
        <time>2021-09-07T12:19:58</time>
      </trkpt>
      <trkpt lat="44.59069" lon="4.11772">
        <ele>545.08466</ele>
        <time>2021-09-07T12:20:02</time>
      </trkpt>
      <trkpt lat="44.59069" lon="4.11773">
        <ele>543.58466</ele>
        <time>2021-09-07T12:20:23</time>
      </trkpt>
      <trkpt lat="44.59069" lon="4.11773">
        <ele>543.58466</ele>
        <time>2021-09-07T12:20:24</time>
      </trkpt>
      <trkpt lat="44.59069" lon="4.11774">
        <ele>543.58466</ele>
        <time>2021-09-07T12:20:25</time>
      </trkpt>
      <trkpt lat="44.59069" lon="4.11774">
        <ele>543.58466</ele>
        <time>2021-09-07T12:20:26</time>
      </trkpt>
      <trkpt lat="44.59067" lon="4.11778">
        <ele>548.28467</ele>
        <time>2021-09-07T12:20:32</time>
      </trkpt>
      <trkpt lat="44.59067" lon="4.11778">
        <ele>548.28467</ele>
        <time>2021-09-07T12:20:33</time>
      </trkpt>
      <trkpt lat="44.59067" lon="4.11778">
        <ele>548.28467</ele>
        <time>2021-09-07T12:20:34</time>
      </trkpt>
      <trkpt lat="44.59066" lon="4.11777">
        <ele>548.28467</ele>
        <time>2021-09-07T12:20:37</time>
      </trkpt>
      <trkpt lat="44.59066" lon="4.11776">
        <ele>548.28467</ele>
        <time>2021-09-07T12:20:38</time>
      </trkpt>
      <trkpt lat="44.59066" lon="4.11776">
        <ele>548.28467</ele>
        <time>2021-09-07T12:20:39</time>
      </trkpt>
      <trkpt lat="44.59067" lon="4.11776">
        <ele>548.28467</ele>
        <time>2021-09-07T12:20:40</time>
      </trkpt>
      <trkpt lat="44.59067" lon="4.11776">
        <ele>548.58466</ele>
        <time>2021-09-07T12:20:47</time>
      </trkpt>
      <trkpt lat="44.59067" lon="4.11775">
        <ele>548.58466</ele>
        <time>2021-09-07T12:20:48</time>
      </trkpt>
      <trkpt lat="44.59067" lon="4.11774">
        <ele>548.58466</ele>
        <time>2021-09-07T12:20:49</time>
      </trkpt>
      <trkpt lat="44.59068" lon="4.1176">
        <ele>548.4847</ele>
        <time>2021-09-07T12:20:54</time>
      </trkpt>
      <trkpt lat="44.59068" lon="4.11758">
        <ele>548.4847</ele>
        <time>2021-09-07T12:20:55</time>
      </trkpt>
      <trkpt lat="44.59068" lon="4.11752">
        <ele>548.4847</ele>
        <time>2021-09-07T12:20:57</time>
      </trkpt>
      <trkpt lat="44.59067" lon="4.11747">
        <ele>548.4847</ele>
        <time>2021-09-07T12:20:59</time>
      </trkpt>
      <trkpt lat="44.59066" lon="4.11743">
        <ele>548.4847</ele>
        <time>2021-09-07T12:21:00</time>
      </trkpt>
      <trkpt lat="44.59067" lon="4.11735">
        <ele>547.28467</ele>
        <time>2021-09-07T12:21:02</time>
      </trkpt>
      <trkpt lat="44.59068" lon="4.11727">
        <ele>547.28467</ele>
        <time>2021-09-07T12:21:05</time>
      </trkpt>
      <trkpt lat="44.59067" lon="4.11722">
        <ele>547.28467</ele>
        <time>2021-09-07T12:21:08</time>
      </trkpt>
      <trkpt lat="44.59065" lon="4.11725">
        <ele>549.18463</ele>
        <time>2021-09-07T12:21:12</time>
      </trkpt>
      <trkpt lat="44.59065" lon="4.11729">
        <ele>549.18463</ele>
        <time>2021-09-07T12:21:13</time>
      </trkpt>
      <trkpt lat="44.59065" lon="4.11732">
        <ele>549.18463</ele>
        <time>2021-09-07T12:21:14</time>
      </trkpt>
      <trkpt lat="44.59064" lon="4.1174">
        <ele>549.18463</ele>
        <time>2021-09-07T12:21:16</time>
      </trkpt>
      <trkpt lat="44.5905" lon="4.11872">
        <ele>546.68463</ele>
        <time>2021-09-07T12:21:37</time>
      </trkpt>
      <trkpt lat="44.59049" lon="4.11884">
        <ele>546.68463</ele>
        <time>2021-09-07T12:21:39</time>
      </trkpt>
      <trkpt lat="44.59031" lon="4.12001">
        <ele>549.08466</ele>
        <time>2021-09-07T12:21:57</time>
      </trkpt>
      <trkpt lat="44.59026" lon="4.12014">
        <ele>549.08466</ele>
        <time>2021-09-07T12:21:59</time>
      </trkpt>
      <trkpt lat="44.59016" lon="4.12039">
        <ele>545.78467</ele>
        <time>2021-09-07T12:22:03</time>
      </trkpt>
      <trkpt lat="44.59012" lon="4.12042">
        <ele>545.78467</ele>
        <time>2021-09-07T12:22:04</time>
      </trkpt>
      <trkpt lat="44.58953" lon="4.12108">
        <ele>542.4847</ele>
        <time>2021-09-07T12:22:15</time>
      </trkpt>
      <trkpt lat="44.58938" lon="4.12141">
        <ele>542.4847</ele>
        <time>2021-09-07T12:22:19</time>
      </trkpt>
      <trkpt lat="44.58914" lon="4.12189">
        <ele>540.88464</ele>
        <time>2021-09-07T12:22:26</time>
      </trkpt>
      <trkpt lat="44.58897" lon="4.12254">
        <ele>531.68463</ele>
        <time>2021-09-07T12:22:33</time>
      </trkpt>
      <trkpt lat="44.58854" lon="4.12437">
        <ele>518.88464</ele>
        <time>2021-09-07T12:22:57</time>
      </trkpt>
      <trkpt lat="44.58833" lon="4.12517">
        <ele>521.08466</ele>
        <time>2021-09-07T12:23:08</time>
      </trkpt>
      <trkpt lat="44.58833" lon="4.12528">
        <ele>521.08466</ele>
        <time>2021-09-07T12:23:10</time>
      </trkpt>
      <trkpt lat="44.58825" lon="4.12551">
        <ele>522.68463</ele>
        <time>2021-09-07T12:23:13</time>
      </trkpt>
      <trkpt lat="44.58823" lon="4.12565">
        <ele>522.68463</ele>
        <time>2021-09-07T12:23:15</time>
      </trkpt>
      <trkpt lat="44.58818" lon="4.12569">
        <ele>522.68463</ele>
        <time>2021-09-07T12:23:16</time>
      </trkpt>
      <trkpt lat="44.58781" lon="4.12628">
        <ele>521.9513</ele>
        <time>2021-09-07T12:23:25</time>
      </trkpt>
      <trkpt lat="44.58775" lon="4.12642">
        <ele>521.9513</ele>
        <time>2021-09-07T12:23:27</time>
      </trkpt>
      <trkpt lat="44.5877" lon="4.12652">
        <ele>521.9513</ele>
        <time>2021-09-07T12:23:29</time>
      </trkpt>
      <trkpt lat="44.58765" lon="4.12662">
        <ele>521.9513</ele>
        <time>2021-09-07T12:23:31</time>
      </trkpt>
      <trkpt lat="44.58763" lon="4.12667">
        <ele>518.68463</ele>
        <time>2021-09-07T12:23:32</time>
      </trkpt>
      <trkpt lat="44.58758" lon="4.12686">
        <ele>518.68463</ele>
        <time>2021-09-07T12:23:35</time>
      </trkpt>
      <trkpt lat="44.58751" lon="4.12712">
        <ele>518.68463</ele>
        <time>2021-09-07T12:23:39</time>
      </trkpt>
      <trkpt lat="44.58748" lon="4.12725">
        <ele>518.68463</ele>
        <time>2021-09-07T12:23:41</time>
      </trkpt>
      <trkpt lat="44.58744" lon="4.12738">
        <ele>519.78467</ele>
        <time>2021-09-07T12:23:44</time>
      </trkpt>
      <trkpt lat="44.58742" lon="4.12747">
        <ele>519.78467</ele>
        <time>2021-09-07T12:23:45</time>
      </trkpt>
      <trkpt lat="44.5873" lon="4.12839">
        <ele>514.28467</ele>
        <time>2021-09-07T12:24:04</time>
      </trkpt>
      <trkpt lat="44.58729" lon="4.12851">
        <ele>514.28467</ele>
        <time>2021-09-07T12:24:07</time>
      </trkpt>
      <trkpt lat="44.58734" lon="4.12882">
        <ele>517.68463</ele>
        <time>2021-09-07T12:24:13</time>
      </trkpt>
      <trkpt lat="44.58735" lon="4.12887">
        <ele>517.68463</ele>
        <time>2021-09-07T12:24:14</time>
      </trkpt>
      <trkpt lat="44.58737" lon="4.1289">
        <ele>517.68463</ele>
        <time>2021-09-07T12:24:15</time>
      </trkpt>
      <trkpt lat="44.58738" lon="4.12892">
        <ele>517.68463</ele>
        <time>2021-09-07T12:24:16</time>
      </trkpt>
      <trkpt lat="44.58748" lon="4.12904">
        <ele>517.38464</ele>
        <time>2021-09-07T12:24:22</time>
      </trkpt>
      <trkpt lat="44.5875" lon="4.12907">
        <ele>517.38464</ele>
        <time>2021-09-07T12:24:24</time>
      </trkpt>
      <trkpt lat="44.58752" lon="4.1291">
        <ele>517.38464</ele>
        <time>2021-09-07T12:24:27</time>
      </trkpt>
      <trkpt lat="44.58754" lon="4.12912">
        <ele>517.38464</ele>
        <time>2021-09-07T12:24:29</time>
      </trkpt>
      <trkpt lat="44.58754" lon="4.12913">
        <ele>517.38464</ele>
        <time>2021-09-07T12:24:30</time>
      </trkpt>
      <trkpt lat="44.58756" lon="4.12917">
        <ele>518.4513</ele>
        <time>2021-09-07T12:24:39</time>
      </trkpt>
      <trkpt lat="44.58757" lon="4.12917">
        <ele>518.4513</ele>
        <time>2021-09-07T12:24:40</time>
      </trkpt>
      <trkpt lat="44.58758" lon="4.12918">
        <ele>518.4513</ele>
        <time>2021-09-07T12:24:41</time>
      </trkpt>
      <trkpt lat="44.58762" lon="4.12919">
        <ele>518.68463</ele>
        <time>2021-09-07T12:24:48</time>
      </trkpt>
      <trkpt lat="44.58762" lon="4.1292">
        <ele>518.68463</ele>
        <time>2021-09-07T12:24:49</time>
      </trkpt>
      <trkpt lat="44.58762" lon="4.1292">
        <ele>518.68463</ele>
        <time>2021-09-07T12:24:50</time>
      </trkpt>
      <trkpt lat="44.58761" lon="4.12921">
        <ele>518.68463</ele>
        <time>2021-09-07T12:24:51</time>
      </trkpt>
      <trkpt lat="44.5876" lon="4.12923">
        <ele>516.58466</ele>
        <time>2021-09-07T12:24:55</time>
      </trkpt>
      <trkpt lat="44.58761" lon="4.12927">
        <ele>515.4847</ele>
        <time>2021-09-07T12:25:06</time>
      </trkpt>
      <trkpt lat="44.58761" lon="4.12928">
        <ele>515.4847</ele>
        <time>2021-09-07T12:25:07</time>
      </trkpt>
      <trkpt lat="44.58761" lon="4.12929">
        <ele>515.4847</ele>
        <time>2021-09-07T12:25:09</time>
      </trkpt>
      <trkpt lat="44.58761" lon="4.1293">
        <ele>515.4847</ele>
        <time>2021-09-07T12:25:10</time>
      </trkpt>
      <trkpt lat="44.5876" lon="4.12929">
        <ele>515.4847</ele>
        <time>2021-09-07T12:25:40</time>
      </trkpt>
      <trkpt lat="44.5876" lon="4.12929">
        <ele>515.68463</ele>
        <time>2021-09-07T12:25:50</time>
      </trkpt>
      <trkpt lat="44.5876" lon="4.12929">
        <ele>515.68463</ele>
        <time>2021-09-07T12:25:51</time>
      </trkpt>
      <trkpt lat="44.58761" lon="4.12927">
        <ele>515.68463</ele>
        <time>2021-09-07T12:25:54</time>
      </trkpt>
    </trkseg>
  </trk>
</gpx>